[[{"header":{"parameterUnit":"m.s-1","parameterCategory":1,"la1":31.0,"la2":29.5877,"lo1":-88.7671,"lo2":-86.6584,"dy":0.0162,"dx":0.0185,"nx":115,"ny":88,"refTime":"2023-09-15T06:00:00:Z","depth":0,"parameterNumber":2,"parameterNumberName":"U-component_of_WINDS"},"data":[0.0,0.0,0.0,0.0,0.0,0.0,0.0,0.0,0.0,0.0,0.0,0.0,0.0,0.0,0.0,0.0,0.0,0.0,0.0,0.0,0.0,0.0,0.0,0.0,0.0,0.0,0.0,0.0,0.0,0.0,0.0,0.0,0.0,0.0,0.0,0.0,0.0,0.0,0.0,0.0,0.0,0.0,0.0,0.0,0.0,0.0,0.0,0.0,0.0,0.0,0.0,0.0,0.0,0.0,0.0,0.0,0.0,0.0,0.0,0.0,0.0,0.0,0.0,0.0,0.0,0.0,0.0,0.0,0.0,0.0,0.0,0.0,0.0,0.0,0.0,0.0,0.0,0.0,0.0,0.0,0.0,0.0,0.0,0.0,0.0,0.0,0.0,0.0,0.0,0.0,0.0,0.0,0.0,0.0,0.0,0.0,0.0,0.0,0.0,0.0,0.0,0.0,0.0,0.0,0.0,0.0,0.0,0.0,0.0,0.0,0.0,0.0,0.0,0.0,0.0,0.0,0.0,0.0,0.0,0.0,0.0,0.0,0.0,0.0,0.0,0.0,0.0,0.0,0.0,0.0,0.0,0.0,0.0,0.0,0.0,0.0,0.0,0.0,0.0,0.0,0.0,0.0,0.0,0.0,0.0,0.0,0.0,0.0,0.0,0.0,0.0,0.0,0.0,0.0,0.0,0.0,0.0,0.0,0.0,0.0,0.0,0.0,0.0,0.0,0.0,0.0,0.0,0.0,0.0,0.0,0.0,0.0,0.0,0.0,0.0,0.0,0.0,0.0,0.0,0.0,0.0,0.0,0.0,0.0,0.0,0.0,0.0,0.0,0.0,0.0,0.0,0.0,0.0,0.0,0.0,0.0,0.0,0.0,0.0,0.0,0.0,0.0,0.0,0.0,0.0,0.0,0.0,0.0,0.0,0.0,0.0,0.0,0.0,0.0,0.0,0.0,0.0,0.0,0.0,0.0,0.0,0.0,0.0,0.0,0.0,0.0,0.0,0.0,0.0,0.0,0.0,0.0,0.0,0.0,0.0,0.0,0.0,0.0,0.0,0.0,0.0,0.0,0.0,0.0,0.0,0.0,0.0,0.0,0.0,0.0,0.0,0.0,0.0,0.0,0.0,0.0,0.0,0.0,0.0,0.0,0.0,0.0,0.0,0.0,0.0,0.0,0.0,0.0,0.0,0.0,0.0,0.0,0.0,0.0,0.0,0.0,0.0,0.0,0.0,0.0,0.0,0.0,0.0,0.0,0.0,0.0,0.0,0.0,0.0,0.0,0.0,0.0,0.0,0.0,0.0,0.0,0.0,0.0,0.0,0.0,0.0,0.0,0.0,0.0,0.0,0.0,0.0,0.0,0.0,0.0,0.0,0.0,0.0,0.0,0.0,0.0,0.0,0.0,0.0,0.0,0.0,0.0,0.0,0.0,0.0,0.0,0.0,0.0,0.0,0.0,0.0,0.0,0.0,0.0,0.0,0.0,0.0,0.0,0.0,0.0,0.0,0.0,0.0,0.0,0.0,0.0,0.0,0.0,0.0,0.0,0.0,0.0,0.0,0.0,0.0,0.0,0.0,0.0,0.0,0.0,0.0,0.0,0.0,0.0,0.0,0.0,0.0,0.0,0.0,0.0,0.0,0.0,0.0,0.0,0.0,0.0,0.0,0.0,0.0,0.0,0.0,0.0,0.0,0.0,0.0,0.0,0.0,0.0,0.0,0.0,0.0,0.0,0.0,0.0,0.0,0.0,0.0,0.0,0.0,0.0,0.0,0.0,0.0,0.0,0.0,0.0,0.0,0.0,0.0,0.0,0.0,0.0,0.0,0.0,0.0,0.0,0.0,0.0,0.0,0.0,0.0,0.0,0.0,0.0,0.0,0.0,0.0,0.0,0.0,0.0,0.0,0.0,0.0,0.0,0.0,0.0,0.0,0.0,0.0,0.0,0.0,0.0,0.0,0.0,0.0,0.0,0.0,0.0,0.0,0.0,0.0,0.0,0.0,0.0,0.0,0.0,0.0,0.0,0.0,0.0,0.0,0.0,0.0,0.0,0.0,0.0,0.0,0.0,0.0,0.0,0.0,0.0,0.0,0.0,0.0,0.0,0.0,0.0,0.0,0.0,0.0,0.0,0.0,0.0,0.0,0.0,0.0,0.0,0.0,0.0,0.0,0.0,0.0,0.0,0.0,0.0,0.0,0.0,0.0,0.0,0.0,0.0,0.0,0.0,0.0,0.0,0.0,0.0,0.0,0.0,0.0,0.0,0.0,0.0,0.0,0.0,0.0,0.0,0.0,0.0,0.0,0.0,0.0,0.0,0.0,0.0,0.0,0.0,0.0,0.0,0.0,0.0,0.0,0.0,0.0,0.0,0.0,0.0,0.0,0.0,0.0,0.0,0.0,0.0,0.0,0.0,0.0,0.0,0.0,0.0,0.0,0.0,0.0,0.0,0.0,0.0,0.0,0.0,0.0,0.0,0.0,0.0,0.0,0.0,0.0,0.0,0.0,0.0,0.0,0.0,0.0,0.0,0.0,0.0,0.0,0.0,0.0,0.0,0.0,0.0,0.0,0.0,0.0,0.0,0.0,0.0,0.0,0.0,0.0,0.0,0.0,0.0,0.0,0.0,0.0,0.0,0.0,0.0,0.0,0.0,0.0,0.0,0.0,0.0,0.0,0.0,0.0,0.0,0.0,0.0,0.0,0.0,0.0,0.0,0.0,0.0,0.0,0.0,0.0,0.0,0.0,0.0,0.0,0.0,0.0,0.0,0.0,0.0,0.0,0.0,0.0,0.0,0.0,0.0,0.0,0.0,0.0,0.0,0.0,0.0,0.0,0.0,0.0,0.0,0.0,0.0,0.0,0.0,0.0,0.0,0.0,0.0,0.0,0.0,0.0,0.0,0.0,0.0,0.0,0.0,0.0,0.0,0.0,0.0,0.0,0.0,0.0,0.0,0.0,0.0,0.0,0.0,0.0,0.0,0.0,0.0,0.0,0.0,0.0,0.0,0.0,0.0,0.0,0.0,0.0,0.0,0.0,0.0,0.0,0.0,0.0,0.0,0.0,0.0,0.0,0.0,0.0,0.0,0.0,0.0,0.0,0.0,0.0,0.0,0.0,0.0,0.0,0.0,0.0,0.0,0.0,0.0,0.0,0.0,0.0,0.0,0.0,0.0,0.0,0.0,0.0,0.0,0.0,0.0,0.0,0.0,0.0,0.0,0.0,0.0,0.0,0.0,0.0,0.0,0.0,0.0,0.0,0.0,0.0,0.0,0.0,0.0,0.0,0.0,0.0,0.0,0.0,0.0,0.0,0.0,0.0,0.0,0.0,0.0,0.0,0.0,0.0,0.0,0.0,0.0,0.0,0.0,0.0,0.0,0.0,0.0,0.0,0.0,0.0,0.0,0.0,0.0,0.0,0.0,0.0,0.0,0.0,0.0,0.0,0.0,0.0,0.0,0.0,0.0,0.0,0.0,0.0,0.0,0.0,0.0,0.0,0.0,0.0,0.0,0.0,0.0,0.0,0.0,0.0,0.0,0.0,0.0,0.0,0.0,0.0,0.0,0.0,0.0,0.0,0.0,0.0,0.0,0.0,0.0,0.0,0.0,0.0,0.0,0.0,0.0,0.0,0.0,0.0,0.0,0.0,0.0,0.0,0.0,0.0,0.0,0.0,0.0,0.0,0.0,0.0,0.0,0.0,0.0,0.0,0.0,0.0,0.0,0.0,0.0,0.0,0.0,0.0,0.0,0.0,0.0,0.0,0.0,0.0,0.0,0.0,0.0,0.0,0.0,0.0,0.0,0.0,0.0,0.0,0.0,0.0,0.0,0.0,0.0,0.0,0.0,0.0,0.0,0.0,0.0,0.0,0.0,0.0,0.0,0.0,0.0,0.0,0.0,0.0,0.0,0.0,0.0,0.0,0.0,0.0,0.0,0.0,0.0,0.0,0.0,0.0,0.0,0.0,0.0,0.0,0.0,0.0,0.0,0.0,0.0,0.0,0.0,0.0,0.0,0.0,0.0,0.0,0.0,0.0,0.0,0.0,0.0,0.0,0.0,0.0,0.0,0.0,0.0,0.0,0.0,0.0,0.0,0.0,0.0,0.0,0.0,0.0,0.0,0.0,0.0,0.0,0.0,0.0,0.0,0.0,0.0,0.0,0.0,0.0,0.0,0.0,0.0,0.0,0.0,0.0,0.0,0.0,0.0,0.0,0.0,0.0,0.0,0.0,0.0,0.0,0.0,0.0,0.0,0.0,0.0,0.0,0.0,1.6628,0.0,0.0,0.0,0.0,0.0,0.0,0.0,0.0,0.0,0.0,0.0,0.0,0.0,0.0,0.0,0.0,0.0,0.0,0.0,0.0,0.0,0.0,0.0,0.0,0.0,0.0,0.0,0.0,0.0,0.0,0.0,0.0,0.0,0.0,0.0,0.0,0.0,0.0,0.0,0.0,0.0,0.0,0.0,0.0,0.0,0.0,0.0,0.0,0.0,0.0,0.0,0.0,0.0,0.0,0.0,0.0,0.0,0.0,0.0,0.0,0.0,0.0,0.0,0.0,0.0,0.0,0.0,0.0,0.0,0.0,0.0,0.0,0.0,0.0,0.0,0.0,0.0,0.0,0.0,0.0,0.0,0.0,0.0,0.0,0.0,0.0,0.0,0.0,0.0,0.0,0.0,0.0,0.0,0.0,0.0,0.0,0.0,0.0,0.0,0.0,0.0,0.0,0.0,0.0,0.0,0.0,0.0,0.0,0.0,0.0,1.4256,1.4481,1.485,1.5272,1.5831,0.0,0.0,0.0,0.0,0.0,0.0,0.0,0.0,0.0,0.0,0.0,0.0,0.0,0.0,0.0,0.0,0.0,0.0,0.0,0.0,0.0,0.0,0.0,0.0,0.0,0.0,0.0,0.0,0.0,0.0,0.0,0.0,0.0,0.0,0.0,0.0,0.0,0.0,0.0,0.0,0.0,0.0,0.0,0.0,0.0,0.0,0.0,0.0,0.0,0.0,0.0,0.0,0.0,0.0,0.0,0.0,0.0,0.0,0.0,0.0,0.0,0.0,0.0,0.0,0.0,0.0,0.0,0.0,0.0,0.0,0.0,0.0,0.0,0.0,0.0,0.0,0.0,0.0,0.0,0.0,0.0,0.0,0.0,0.0,0.0,0.0,0.0,0.0,0.0,0.0,0.0,0.0,0.0,0.0,0.0,0.0,0.0,0.0,0.0,0.0,0.0,0.0,0.0,0.0,0.0,0.0,0.0,0.0,0.0,0.0,0.0,0.0,1.3657,1.4219,1.5037,0.0,0.0,0.0,0.0,0.0,0.0,0.0,0.0,0.0,0.0,0.0,0.0,0.0,0.0,0.0,0.0,0.0,0.0,0.0,0.0,0.0,0.0,0.0,0.0,0.0,0.0,0.0,0.0,0.0,0.0,0.0,0.0,0.0,0.0,0.0,0.0,0.0,0.0,0.0,0.0,0.0,0.0,0.0,0.0,0.0,0.0,0.0,0.0,0.0,0.0,0.0,0.0,0.0,0.0,0.0,0.0,0.0,0.0,0.0,0.0,0.0,0.0,0.0,0.0,0.0,0.0,0.0,0.0,0.0,0.0,0.0,0.0,0.0,0.0,0.0,0.0,0.0,0.0,0.0,0.0,0.0,0.0,0.0,0.0,0.0,0.0,0.0,0.0,0.0,0.0,0.0,0.0,0.0,0.0,0.0,0.0,0.0,0.0,0.0,0.0,0.0,0.0,0.0,0.0,0.0,0.0,0.0,0.0,0.0,0.0,1.2056,1.1913,1.2271,0.0,1.4253,0.0,0.0,0.0,0.0,0.0,0.0,0.0,0.0,0.0,0.0,0.0,0.0,0.0,0.0,0.0,0.0,0.0,0.0,0.0,0.0,0.0,0.0,0.0,0.0,0.0,0.0,0.0,0.0,0.0,0.0,0.0,0.0,0.0,0.0,0.0,0.0,0.0,0.0,0.0,0.0,0.0,0.0,0.0,0.0,0.0,0.0,0.0,0.0,0.0,0.0,0.0,0.0,0.0,0.0,0.0,0.0,0.0,0.0,0.0,0.0,0.0,0.0,0.0,0.0,0.0,0.0,0.0,0.0,0.0,0.0,0.0,0.0,0.0,0.0,0.0,0.0,0.0,0.0,0.0,0.0,0.0,0.0,0.0,0.0,0.0,0.0,0.0,0.0,0.0,0.0,0.0,0.0,0.0,0.0,0.0,0.0,0.0,0.0,0.0,0.0,0.0,0.0,0.0,0.0,0.0,0.0,0.0,0.0,0.0,0.0,1.052,1.0329,1.0893,1.1633,0.0,0.0,0.0,0.0,0.0,0.0,0.0,0.0,0.0,0.0,0.0,0.0,0.0,0.0,0.0,0.0,0.0,0.0,0.0,0.0,0.0,0.0,0.0,0.0,0.0,0.0,0.0,0.0,0.0,0.0,0.0,0.0,0.0,0.0,0.0,0.0,0.0,0.0,0.0,0.0,0.0,0.0,0.0,0.0,0.0,0.0,0.0,0.0,0.0,0.0,0.0,0.0,0.0,0.0,0.0,0.0,0.0,0.0,0.0,0.0,0.0,0.0,0.0,0.0,0.0,0.0,0.0,0.0,0.0,0.0,0.0,0.0,0.0,0.0,0.0,0.0,0.0,0.0,0.0,0.0,0.0,0.0,0.0,0.0,0.0,0.0,0.0,0.0,0.0,0.0,0.0,0.0,0.0,0.0,0.0,0.0,0.0,0.0,0.0,0.0,0.0,0.0,0.0,0.0,0.0,0.0,0.0,0.0,0.0,0.0,0.9358,0.8904,0.8616,0.916,0.9839,1.0604,0.0,0.0,0.0,0.0,0.0,0.0,0.0,0.0,0.0,0.0,0.0,0.0,0.0,0.0,0.0,0.0,0.0,0.0,0.0,0.0,0.0,0.0,0.0,0.0,0.0,0.0,0.0,0.0,0.0,0.0,0.0,0.0,0.0,0.0,0.0,0.0,0.0,0.0,0.0,0.0,0.0,0.0,0.0,0.0,0.0,0.0,0.0,0.0,0.0,0.0,0.0,0.0,0.0,0.0,0.0,0.0,0.0,0.0,0.0,0.0,0.0,0.0,0.0,0.0,0.0,0.0,0.0,0.0,0.0,0.0,0.0,0.0,0.0,0.0,0.0,0.0,0.0,0.0,0.0,0.0,0.0,0.0,0.0,0.0,0.0,0.0,0.0,0.0,0.0,0.0,0.0,0.0,0.0,0.0,0.0,0.0,0.0,0.0,0.0,0.0,0.0,0.0,0.0,0.0,0.0,0.0,0.0,0.0,0.8674,0.7878,0.7148,0.6565,0.699,0.7543,0.0,0.0,0.0,0.0,0.0,0.0,0.0,0.0,0.0,0.0,0.0,0.0,0.0,0.0,0.0,0.0,0.0,0.0,0.0,0.0,0.0,0.0,0.0,0.0,0.0,0.0,0.0,0.0,0.0,0.0,0.0,0.0,0.0,0.0,0.0,0.0,0.0,0.0,0.0,0.0,0.0,0.0,0.0,0.0,0.0,0.0,0.0,0.0,0.0,0.0,0.0,0.0,0.0,0.0,0.0,0.0,0.0,0.0,0.0,0.0,0.0,0.0,0.0,0.0,0.0,0.0,0.0,0.0,0.0,0.0,0.0,0.0,0.0,0.0,0.0,0.0,0.0,0.0,0.0,0.0,0.0,0.0,0.0,0.0,0.0,0.0,0.0,0.0,0.0,0.0,0.0,0.0,0.0,0.0,0.0,0.0,0.0,0.0,0.0,0.0,0.0,0.0,0.0,0.0,0.0,0.0,0.0,0.0,0.0,0.713,0.5536,0.4405,0.3966,0.4381,0.4988,0.0,0.0,0.0,0.0,0.0,0.0,0.0,0.0,0.0,0.0,0.0,0.0,0.0,0.0,0.0,0.0,0.0,0.0,0.0,0.0,0.0,0.0,0.0,0.0,0.0,0.0,0.0,0.0,0.0,0.0,0.0,0.0,0.0,0.0,0.0,0.0,0.0,0.0,0.0,0.0,0.0,0.0,0.0,0.0,0.0,0.0,0.0,0.0,0.0,0.0,0.0,0.0,0.0,0.0,0.0,0.0,0.0,0.0,0.0,0.0,0.0,0.0,0.0,0.0,0.0,0.0,0.0,0.0,0.0,0.0,0.0,0.0,0.0,0.0,0.0,0.0,0.0,0.0,0.0,0.0,0.0,0.0,0.0,0.0,0.0,0.0,0.0,0.0,0.0,0.0,0.0,0.0,0.0,0.0,0.0,0.0,0.0,0.0,0.0,0.0,0.0,0.0,0.0,0.0,0.0,0.0,0.0,0.0,0.0,0.4383,0.0,0.1333,0.0938,0.1453,0.2128,0.0,0.0,0.0,0.0,0.0,0.0,0.0,0.0,0.0,0.0,0.0,0.0,0.0,0.0,0.0,0.0,0.0,0.0,0.0,0.0,0.0,0.0,0.0,0.0,0.0,0.0,0.0,0.0,0.0,0.0,0.0,0.0,0.0,0.0,0.0,0.0,0.0,0.0,0.0,0.0,0.0,0.0,0.0,0.0,0.0,0.0,0.0,0.0,0.0,0.0,0.0,0.0,0.0,0.0,0.0,0.0,0.0,0.0,0.0,0.0,0.0,0.0,0.0,0.0,0.0,0.0,0.0,0.0,0.0,0.0,0.0,0.0,0.0,0.0,0.0,0.0,0.0,0.0,0.0,0.0,0.0,0.0,0.0,0.0,0.0,0.0,0.0,0.0,0.0,0.0,0.0,0.0,0.0,0.0,0.0,0.0,0.0,0.0,0.0,0.0,0.0,0.0,0.0,0.0,0.0,0.0,0.0,0.0,0.5668,0.0313,-0.1258,-0.2216,-0.2557,-0.1972,-0.1086,0.0,0.0,0.0,0.0,0.0,0.0,0.0,0.0,0.0,0.0,0.0,0.0,0.0,0.0,0.0,0.0,0.0,0.0,0.0,0.0,0.0,0.0,0.0,0.0,0.0,0.0,0.0,0.0,0.0,0.0,0.0,0.0,0.0,0.0,0.0,0.0,0.0,0.0,0.0,0.0,0.0,0.0,0.0,0.0,0.0,0.0,0.0,0.0,0.0,0.0,0.0,0.0,0.0,0.0,0.0,0.0,0.0,0.0,0.0,0.0,0.0,0.0,0.0,0.0,0.0,0.0,0.0,0.0,0.0,0.0,0.0,0.0,0.0,0.0,0.0,0.0,0.0,0.0,0.0,0.0,0.0,0.0,0.0,0.0,0.0,0.0,0.0,0.0,0.0,0.0,0.0,0.0,0.0,0.0,0.0,0.0,0.0,0.0,0.0,0.0,0.0,0.0,0.0,0.0,0.0,0.0,0.0,0.0,0.0,-0.4076,-0.6224,-0.7285,-0.7224,-0.6675,-0.5123,0.0,0.0,0.0,0.0,0.0,0.0,0.0,0.0,0.0,0.0,0.0,0.0,0.0,0.0,0.0,0.0,0.0,0.0,0.0,0.0,0.0,0.0,0.0,0.0,0.0,0.0,0.0,0.0,0.0,0.0,0.0,0.0,0.0,0.0,0.0,0.0,0.0,0.0,0.0,0.0,0.0,0.0,0.0,0.0,0.0,0.0,0.0,0.0,0.0,0.0,0.0,0.0,0.0,0.0,0.0,0.0,0.0,0.0,0.0,0.0,0.0,0.0,0.0,0.0,0.0,0.0,0.0,0.0,0.0,0.0,0.0,0.0,0.0,0.0,0.0,0.0,0.0,0.0,0.0,0.0,0.0,0.0,0.0,0.0,0.0,0.0,0.0,0.0,0.0,0.0,0.0,0.0,0.0,0.0,0.0,0.0,0.0,0.0,0.0,0.0,0.0,0.0,0.0,0.0,0.0,0.0,0.0,0.0,0.0,-1.2135,-1.2852,-1.3314,-1.3327,-1.1997,-0.9556,-0.5824,0.0,0.0,0.0,0.0,0.0,0.0,0.0,0.0,0.0,0.0,0.0,0.0,0.0,0.0,0.0,0.0,0.0,0.0,0.0,0.0,0.0,0.0,0.0,0.0,0.0,0.0,0.0,0.0,0.0,0.0,0.0,0.0,0.0,0.0,0.0,0.0,0.0,0.0,0.0,0.0,0.0,0.0,0.0,0.0,0.0,0.0,0.0,0.0,0.0,0.0,0.0,0.0,0.0,0.0,0.0,0.0,0.0,0.0,0.0,0.0,0.0,0.0,0.0,0.0,0.0,0.0,0.0,0.0,0.0,0.0,0.0,0.0,0.0,0.0,0.0,0.0,0.0,0.0,0.0,0.0,0.0,0.0,0.0,0.0,0.0,0.0,0.0,0.0,0.0,0.0,0.0,0.0,0.0,0.0,0.0,0.0,0.0,0.0,0.0,0.0,0.0,0.0,0.0,0.0,0.0,0.0,0.0,0.0,-2.2744,-2.103,-2.0166,-2.0182,-1.7786,-1.4254,0.0,0.0,0.0,0.0,0.0,0.0,0.0,0.0,0.0,0.0,0.0,0.0,0.0,0.0,0.0,0.0,0.0,0.0,0.0,0.0,0.0,0.0,0.0,0.0,0.0,0.0,0.0,0.0,0.0,0.0,0.0,0.0,0.0,0.0,0.0,0.0,0.0,0.0,0.0,0.0,0.0,0.0,0.0,0.0,0.0,0.0,0.0,0.0,0.0,0.0,0.0,0.0,0.0,0.0,0.0,0.0,0.0,0.0,0.0,0.0,0.0,0.0,0.0,0.0,0.0,0.0,0.0,0.0,0.0,0.0,0.0,0.0,0.0,0.0,0.0,0.0,0.0,0.0,0.0,0.0,0.0,0.0,0.0,0.0,0.0,0.0,0.0,0.0,0.0,0.0,0.0,0.0,0.0,0.0,0.0,0.0,0.0,0.0,0.0,0.0,0.0,0.0,0.0,0.0,0.0,0.0,0.0,0.0,0.0,-2.7944,-2.9842,-2.8874,-2.4924,-2.2399,-1.8845,0.0,0.0,0.0,0.0,0.0,0.0,0.0,0.0,0.0,0.0,0.0,0.0,0.0,0.0,0.0,0.0,0.0,0.0,0.0,0.0,0.0,0.0,0.0,0.0,0.0,0.0,0.0,0.0,0.0,0.0,0.0,0.0,0.0,0.0,0.0,0.0,0.0,0.0,0.0,0.0,0.0,0.0,0.0,0.0,0.0,0.0,0.0,0.0,0.0,0.0,0.0,0.0,0.0,0.0,0.0,0.0,0.0,0.0,0.0,0.0,0.0,0.0,0.0,0.0,0.0,0.0,0.0,0.0,0.0,0.0,0.0,0.0,0.0,0.0,0.0,0.0,0.0,0.0,0.0,0.0,0.0,0.0,0.0,0.0,0.0,0.0,0.0,0.0,0.0,0.0,0.0,0.0,0.0,0.0,0.0,0.0,0.0,0.0,0.0,0.0,0.0,0.0,0.0,0.0,0.0,0.0,0.0,0.0,-2.6213,-3.1059,-3.4111,-3.4112,-3.0801,-2.7391,-2.3254,0.0,0.0,0.0,0.0,0.0,0.0,0.0,0.0,0.0,0.0,0.0,0.0,0.0,0.0,0.0,0.0,0.0,0.0,0.0,0.0,0.0,0.0,0.0,0.0,0.0,0.0,0.0,0.0,0.0,0.0,0.0,0.0,0.0,0.0,0.0,0.0,0.0,0.0,0.0,0.0,0.0,0.0,0.0,0.0,0.0,0.0,0.0,0.0,0.0,0.0,0.0,0.0,0.0,0.0,0.0,0.0,0.0,0.0,0.0,0.0,0.0,0.0,0.0,0.0,0.0,0.0,0.0,0.0,0.0,0.0,0.0,0.0,0.0,0.0,0.0,0.0,0.0,0.0,0.0,0.0,0.0,0.0,0.0,0.0,0.0,0.0,0.0,0.0,0.0,0.0,0.0,0.0,0.0,0.0,0.0,0.0,0.0,0.0,0.0,0.0,0.0,0.0,0.0,0.0,0.0,0.0,0.0,0.0,-2.9074,-3.2706,-3.5509,-3.6798,-3.6343,-3.1788,-2.7061,0.0,0.0,0.0,0.0,0.0,0.0,0.0,0.0,0.0,0.0,0.0,0.0,0.0,0.0,0.0,0.0,0.0,0.0,0.0,0.0,0.0,0.0,0.0,0.0,0.0,0.0,0.0,0.0,0.0,0.0,0.0,0.0,0.0,0.0,0.0,0.0,0.0,0.0,0.0,0.0,0.0,0.0,0.0,0.0,0.0,0.0,0.0,0.0,0.0,0.0,0.0,0.0,0.0,0.0,0.0,0.0,0.0,0.0,0.0,0.0,0.0,0.0,0.0,0.0,0.0,0.0,0.0,0.0,0.0,0.0,0.0,0.0,0.0,0.0,0.0,0.0,0.0,0.0,0.0,0.0,0.0,0.0,0.0,0.0,0.0,0.0,0.0,0.0,0.0,0.0,0.0,0.0,0.0,0.0,0.0,0.0,0.0,0.0,0.0,0.0,0.0,0.0,0.0,0.0,0.0,0.0,0.0,0.0,-3.0549,-3.4461,-3.6684,-3.7338,-3.6363,-3.2015,-2.8017,0.0,0.0,0.0,0.0,0.0,0.0,0.0,0.0,0.0,0.0,0.0,0.0,0.0,0.0,0.0,0.0,0.0,0.0,0.0,0.0,0.0,0.0,0.0,0.0,0.0,0.0,0.0,0.0,0.0,0.0,0.0,0.0,0.0,0.0,0.0,0.0,0.0,0.0,0.0,0.0,0.0,0.0,0.0,0.0,0.0,0.0,0.0,0.0,-1.2975,0.0,0.0,0.0,0.0,0.0,0.0,0.0,0.0,0.0,0.0,0.0,0.0,0.0,0.0,0.0,0.0,0.0,0.0,0.0,0.0,0.0,0.0,0.0,0.0,0.0,0.0,0.0,0.0,0.0,0.0,0.0,0.0,0.0,0.0,0.0,0.0,0.0,0.0,0.0,0.0,0.0,0.0,0.0,0.0,0.0,0.0,0.0,0.0,0.0,0.0,0.0,0.0,0.0,0.0,0.0,0.0,0.0,0.0,0.0,-3.0784,-3.4119,-3.6023,-3.6514,-3.5438,-3.2496,-2.9113,0.0,0.0,0.0,0.0,0.0,0.0,0.0,0.0,0.0,0.0,0.0,0.0,0.0,0.0,0.0,0.0,0.0,0.0,0.0,0.0,0.0,0.0,0.0,0.0,0.0,0.0,0.0,0.0,0.0,0.0,0.0,0.0,0.0,0.0,0.0,0.0,0.0,0.0,0.0,0.0,0.0,0.0,0.0,0.0,0.0,0.0,0.0,0.0,0.0,0.0,0.0,0.0,0.0,0.0,0.0,0.0,0.0,0.0,0.0,0.0,0.0,0.0,0.0,0.0,0.0,0.0,0.0,0.0,0.0,0.0,0.0,0.0,0.0,0.0,0.0,0.0,0.0,0.0,0.0,0.0,0.0,0.0,0.0,0.0,0.0,0.0,0.0,0.0,0.0,0.0,0.0,0.0,0.0,0.0,0.0,0.0,0.0,0.0,0.0,0.0,0.0,0.0,0.0,0.0,0.0,0.0,0.0,-2.7784,-3.0632,-3.3366,-3.4796,-3.515,-3.4353,-3.2711,-2.9802,-2.5491,0.0,0.0,0.0,0.0,0.0,0.0,0.0,0.0,0.0,0.0,0.0,0.0,0.0,0.0,0.0,0.0,0.0,0.0,0.0,0.0,0.0,0.0,0.0,0.0,0.0,0.0,0.0,0.0,0.0,0.0,0.0,0.0,0.0,0.0,0.0,0.0,0.0,0.0,-2.0731,-2.1519,0.0,0.0,0.0,0.0,0.0,0.0,0.0,0.0,-2.1242,0.0,0.0,0.0,0.0,0.0,0.0,0.0,0.0,0.0,0.0,0.0,0.0,0.0,0.0,0.0,0.0,0.0,0.0,0.0,0.0,0.0,0.0,0.0,0.0,0.0,0.0,0.0,0.0,0.0,0.0,0.0,0.0,0.0,0.0,0.0,0.0,0.0,0.0,0.0,0.0,0.0,0.0,0.0,0.0,0.0,0.0,0.0,0.0,0.0,0.0,0.0,0.0,0.0,0.0,0.0,0.0,-2.6657,-2.8369,-3.0963,-3.4408,-3.4602,-3.4156,-3.3236,-3.1568,-2.8705,-2.4534,0.0,0.0,0.0,0.0,0.0,0.0,0.0,0.0,0.0,0.0,0.0,0.0,0.0,0.0,0.0,0.0,0.0,0.0,0.0,0.0,0.0,0.0,0.0,0.0,0.0,0.0,0.0,0.0,0.0,0.0,0.0,0.0,0.0,0.0,0.0,0.0,0.0,0.0,0.0,-2.4426,-2.4653,0.0,0.0,0.0,0.0,0.0,0.0,0.0,0.0,-2.3434,0.0,0.0,0.0,0.0,0.0,0.0,0.0,0.0,0.0,0.0,0.0,0.0,0.0,0.0,0.0,0.0,0.0,0.0,0.0,0.0,0.0,0.0,0.0,0.0,0.0,0.0,0.0,0.0,0.0,0.0,0.0,0.0,0.0,0.0,0.0,0.0,0.0,0.0,0.0,0.0,0.0,0.0,0.0,0.0,0.0,0.0,0.0,0.0,0.0,0.0,0.0,0.0,0.0,0.0,0.0,-2.6882,-2.8739,-3.0709,-3.2973,-3.3173,-3.2817,-3.1965,-3.0509,-2.8003,0.0,0.0,0.0,0.0,0.0,0.0,0.0,0.0,0.0,0.0,0.0,0.0,0.0,0.0,0.0,0.0,0.0,0.0,0.0,0.0,0.0,0.0,0.0,0.0,0.0,0.0,0.0,0.0,0.0,0.0,0.0,0.0,0.0,0.0,0.0,0.0,0.0,0.0,0.0,0.0,-2.6103,-2.6474,-2.7006,0.0,0.0,0.0,0.0,0.0,0.0,-2.705,-2.6226,0.0,0.0,0.0,0.0,0.0,0.0,0.0,0.0,0.0,0.0,0.0,0.0,0.0,0.0,0.0,0.0,0.0,0.0,0.0,0.0,0.0,0.0,0.0,0.0,0.0,0.0,0.0,0.0,0.0,0.0,0.0,0.0,0.0,0.0,0.0,0.0,0.0,0.0,0.0,0.0,0.0,0.0,0.0,0.0,0.0,0.0,0.0,0.0,0.0,0.0,0.0,0.0,0.0,0.0,0.0,-2.6635,-2.8477,-2.9871,-3.0885,-3.125,-3.1104,-3.0494,-2.9105,-2.6977,0.0,0.0,0.0,0.0,0.0,0.0,0.0,0.0,0.0,0.0,0.0,0.0,0.0,0.0,0.0,0.0,0.0,0.0,0.0,0.0,0.0,0.0,0.0,0.0,0.0,0.0,0.0,0.0,0.0,0.0,0.0,0.0,0.0,0.0,0.0,0.0,0.0,0.0,0.0,0.0,0.0,-2.7963,-2.9332,-2.9122,0.0,0.0,0.0,0.0,-3.0114,-2.9894,0.0,0.0,0.0,0.0,0.0,0.0,0.0,0.0,0.0,0.0,0.0,0.0,0.0,0.0,0.0,0.0,0.0,0.0,0.0,0.0,0.0,0.0,0.0,0.0,0.0,0.0,0.0,0.0,0.0,0.0,0.0,0.0,0.0,0.0,0.0,0.0,0.0,0.0,0.0,0.0,0.0,0.0,0.0,0.0,0.0,0.0,0.0,0.0,0.0,0.0,0.0,0.0,0.0,0.0,0.0,0.0,-2.5971,-2.6821,-2.7923,-2.9329,-2.8958,-2.8715,-2.8854,-2.6848,-2.4909,0.0,0.0,0.0,0.0,0.0,0.0,0.0,0.0,0.0,0.0,0.0,0.0,0.0,0.0,0.0,0.0,0.0,0.0,0.0,0.0,0.0,0.0,0.0,0.0,0.0,0.0,0.0,0.0,0.0,0.0,0.0,0.0,0.0,0.0,0.0,0.0,0.0,0.0,0.0,0.0,0.0,-2.9456,-3.0104,-3.0009,-2.9761,0.0,0.0,-3.1827,-3.1175,-3.2118,0.0,0.0,0.0,0.0,0.0,0.0,0.0,0.0,0.0,0.0,0.0,0.0,0.0,0.0,0.0,0.0,0.0,0.0,0.0,0.0,0.0,0.0,0.0,0.0,0.0,0.0,0.0,0.0,0.0,0.0,0.0,0.0,0.0,0.0,0.0,0.0,0.0,0.0,0.0,0.0,0.0,0.0,0.0,0.0,0.0,0.0,0.0,0.0,0.0,0.0,0.0,0.0,0.0,0.0,0.0,-2.3163,-2.5345,-2.7058,-2.8125,-2.8553,-2.8145,-2.797,-2.8079,-2.5825,-2.4146,0.0,0.0,0.0,0.0,0.0,0.0,0.0,0.0,0.0,0.0,0.0,0.0,0.0,0.0,0.0,0.0,0.0,0.0,0.0,0.0,0.0,0.0,0.0,0.0,0.0,0.0,0.0,0.0,0.0,0.0,0.0,0.0,0.0,0.0,0.0,0.0,0.0,0.0,0.0,0.0,0.0,0.0,-3.1117,-3.156,0.0,0.0,0.0,-3.3768,-3.3528,0.0,0.0,0.0,0.0,0.0,0.0,0.0,0.0,0.0,0.0,0.0,0.0,0.0,0.0,0.0,0.0,0.0,0.0,0.0,0.0,0.0,0.0,0.0,0.0,0.0,0.0,0.0,0.0,0.0,0.0,0.0,0.0,0.0,0.0,0.0,0.0,0.0,0.0,0.0,0.0,0.0,0.0,0.0,0.0,0.0,0.0,0.0,0.0,0.0,0.0,0.0,0.0,0.0,0.0,0.0,0.0,0.0,-2.45,-2.6693,-2.7721,-2.7434,-2.7146,-2.7066,-2.7074,-2.5155,0.0,0.0,0.0,0.0,0.0,0.0,0.0,0.0,0.0,0.0,0.0,0.0,0.0,0.0,0.0,0.0,0.0,0.0,0.0,0.0,0.0,0.0,0.0,0.0,0.0,0.0,0.0,-1.8839,0.0,0.0,0.0,0.0,0.0,0.0,0.0,0.0,0.0,0.0,0.0,0.0,0.0,0.0,-3.0514,-3.1687,-3.2514,-3.3253,0.0,0.0,-3.5341,-3.5656,-3.4509,-3.2791,0.0,0.0,0.0,0.0,0.0,0.0,0.0,0.0,0.0,0.0,0.0,0.0,0.0,0.0,0.0,0.0,0.0,0.0,0.0,0.0,0.0,0.0,0.0,0.0,0.0,0.0,0.0,0.0,0.0,0.0,0.0,0.0,0.0,0.0,0.0,0.0,0.0,0.0,0.0,0.0,0.0,0.0,0.0,0.0,0.0,0.0,0.0,0.0,0.0,0.0,0.0,0.0,0.0,0.0,0.0,-2.3396,-2.4642,-2.5385,-2.5561,-2.5345,-2.5266,-2.5422,-2.4717,-2.3694,0.0,0.0,0.0,0.0,0.0,0.0,0.0,0.0,0.0,0.0,0.0,0.0,0.0,0.0,0.0,0.0,0.0,0.0,0.0,0.0,0.0,0.0,0.0,0.0,0.0,0.0,0.0,0.0,0.0,0.0,0.0,0.0,0.0,0.0,0.0,0.0,0.0,0.0,0.0,0.0,0.0,-3.1042,-3.1486,-3.2405,-3.3223,0.0,0.0,-3.6435,-3.6917,-3.5354,-3.338,-3.1177,0.0,0.0,0.0,0.0,0.0,0.0,0.0,0.0,0.0,0.0,0.0,0.0,0.0,0.0,0.0,0.0,0.0,0.0,0.0,0.0,0.0,0.0,0.0,0.0,0.0,0.0,0.0,0.0,0.0,0.0,0.0,0.0,0.0,0.0,0.0,0.0,0.0,0.0,0.0,0.0,0.0,0.0,0.0,0.0,0.0,0.0,0.0,0.0,0.0,0.0,0.0,0.0,0.0,-2.1565,-2.2485,-2.4148,-2.4766,-2.4295,-2.4315,-2.4168,-2.3825,-2.3,-2.2391,0.0,0.0,0.0,0.0,0.0,0.0,0.0,0.0,0.0,0.0,0.0,0.0,0.0,0.0,0.0,0.0,0.0,0.0,0.0,0.0,0.0,0.0,0.0,0.0,0.0,0.0,0.0,0.0,-2.2048,-2.2799,-2.3474,0.0,0.0,0.0,0.0,0.0,0.0,0.0,0.0,0.0,0.0,-3.1353,-3.2364,-3.3122,0.0,0.0,-3.5569,-3.6253,-3.5817,-3.45,-3.2514,-2.9633,-2.6198,0.0,0.0,0.0,0.0,0.0,0.0,0.0,0.0,0.0,0.0,0.0,0.0,0.0,0.0,0.0,0.0,0.0,0.0,0.0,0.0,0.0,0.0,0.0,0.0,0.0,0.0,0.0,0.0,0.0,0.0,0.0,0.0,0.0,0.0,0.0,0.0,0.0,0.0,0.0,0.0,0.0,0.0,0.0,0.0,0.0,0.0,0.0,0.0,0.0,0.0,0.0,0.0,-2.124,-2.2109,-2.358,-2.4181,-2.3873,-2.3594,-2.3387,-2.3234,-2.2387,-2.1931,0.0,0.0,0.0,0.0,0.0,0.0,0.0,0.0,0.0,0.0,0.0,0.0,0.0,0.0,0.0,0.0,0.0,0.0,0.0,0.0,0.0,0.0,0.0,0.0,0.0,0.0,0.0,0.0,-2.2889,-2.3742,-2.4202,0.0,0.0,0.0,0.0,0.0,0.0,0.0,0.0,0.0,0.0,-3.1919,-3.2539,-3.3257,-3.3977,-3.461,-3.5419,-3.5639,-3.4984,-3.325,-3.1007,-2.8131,0.0,0.0,0.0,0.0,0.0,0.0,0.0,0.0,0.0,0.0,0.0,0.0,0.0,0.0,0.0,0.0,0.0,0.0,0.0,0.0,0.0,0.0,0.0,0.0,0.0,0.0,0.0,0.0,0.0,0.0,-1.3036,0.0,0.0,0.0,0.0,0.0,0.0,0.0,0.0,0.0,0.0,0.0,0.0,0.0,0.0,0.0,0.0,0.0,0.0,0.0,0.0,0.0,0.0,-2.1209,-2.2273,-2.2697,-2.3371,-2.4364,-2.3134,-2.2936,-2.393,-2.3332,-2.2667,-2.2053,0.0,0.0,0.0,0.0,0.0,0.0,0.0,0.0,0.0,0.0,0.0,0.0,0.0,0.0,0.0,0.0,0.0,0.0,0.0,0.0,0.0,0.0,0.0,0.0,0.0,0.0,-2.2976,-2.3872,-2.454,0.0,0.0,0.0,0.0,0.0,0.0,0.0,0.0,0.0,0.0,-3.1444,-3.2611,-3.1622,-3.2701,-3.3713,-3.4177,-3.4507,-3.4735,-3.4703,-3.1819,-2.8818,0.0,0.0,0.0,0.0,0.0,0.0,0.0,0.0,0.0,0.0,0.0,0.0,0.0,0.0,0.0,0.0,0.0,0.0,0.0,0.0,0.0,0.0,0.0,0.0,0.0,0.0,0.0,-1.6961,-1.7446,0.0,0.0,0.0,0.0,0.0,0.0,0.0,0.0,0.0,0.0,0.0,-1.897,-1.8766,0.0,0.0,0.0,0.0,0.0,0.0,0.0,0.0,0.0,0.0,0.0,0.0,-2.0656,-2.138,-2.2466,-2.2861,-2.2655,-2.222,-2.2033,-2.2017,-2.1599,-2.1205,-2.0945,0.0,0.0,0.0,0.0,0.0,0.0,0.0,0.0,0.0,0.0,0.0,0.0,0.0,0.0,0.0,0.0,0.0,0.0,0.0,0.0,0.0,0.0,0.0,0.0,0.0,-2.327,0.0,0.0,0.0,0.0,0.0,0.0,0.0,0.0,0.0,0.0,0.0,-2.9784,-2.9952,-3.0791,-3.1387,-3.1467,-3.1859,-3.2374,0.0,0.0,0.0,0.0,0.0,0.0,0.0,0.0,0.0,0.0,0.0,0.0,0.0,0.0,-1.4207,-1.3219,-1.2815,-1.2714,-1.2992,0.0,0.0,0.0,0.0,0.0,0.0,0.0,0.0,0.0,0.0,0.0,0.0,0.0,0.0,0.0,0.0,-1.9253,0.0,0.0,0.0,0.0,0.0,0.0,0.0,0.0,-1.8738,-1.9052,-1.9148,-1.9141,-1.8911,0.0,-1.8612,-1.8163,0.0,0.0,0.0,0.0,0.0,0.0,0.0,0.0,-2.016,-2.0826,-2.2019,-2.2366,-2.1839,-2.1506,-2.1327,-2.1338,-2.0962,-2.0649,-2.0454,-1.9396,-1.8193,0.0,0.0,0.0,0.0,0.0,0.0,0.0,0.0,0.0,0.0,0.0,0.0,0.0,0.0,0.0,0.0,0.0,0.0,0.0,0.0,0.0,0.0,0.0,-2.3581,0.0,0.0,0.0,0.0,0.0,0.0,0.0,0.0,0.0,-2.8306,-2.9247,-2.9997,-3.0311,-3.0637,-3.0928,-3.1121,0.0,0.0,0.0,0.0,0.0,0.0,0.0,-2.597,-2.2543,-2.0695,-1.8991,-1.6892,-1.5721,-1.5006,-1.4728,0.0,0.0,-1.328,-1.2982,-1.2864,-1.3126,-1.2832,-1.2601,-1.2639,-1.2477,-1.229,0.0,0.0,0.0,0.0,0.0,0.0,0.0,0.0,-2.2251,-2.236,0.0,-2.1944,0.0,0.0,0.0,0.0,0.0,-1.8232,0.0,0.0,-1.9522,-1.9577,-1.9393,-1.8893,-1.8881,-1.9368,-1.8987,-1.8891,-1.8958,-1.7987,0.0,0.0,0.0,0.0,0.0,0.0,-1.9708,-2.0621,-2.1308,-2.1783,-2.1983,-2.0986,-2.094,-2.1908,-2.1458,-2.1006,-2.056,-1.9579,-1.863,-1.7744,-1.5578,0.0,0.0,0.0,0.0,0.0,0.0,0.0,0.0,0.0,0.0,0.0,0.0,0.0,0.0,0.0,0.0,0.0,0.0,0.0,0.0,-2.3425,0.0,0.0,0.0,0.0,0.0,0.0,0.0,0.0,0.0,0.0,-2.9493,-2.9983,-3.0358,-3.0439,0.0,0.0,0.0,0.0,-3.0922,-3.114,-3.0054,-2.8863,-2.79,-2.6358,-2.4257,-2.1077,0.0,0.0,-1.5523,-1.463,-1.4379,-1.4258,-1.3969,-1.3655,-1.4067,-1.3801,-1.3549,-1.3346,-1.3192,-1.3021,-1.2657,-1.2621,-1.2635,-2.6722,0.0,0.0,0.0,0.0,-2.352,-2.4258,-2.522,-2.4399,-2.3886,-2.3582,-2.2743,0.0,0.0,0.0,0.0,0.0,0.0,-1.9194,-1.9645,-1.9718,-1.9451,-1.8972,-1.898,-1.9028,-1.9105,-1.9316,-1.9438,-1.956,-1.9259,-1.8596,-1.7677,0.0,0.0,0.0,0.0,-1.9342,-1.9904,-2.0588,-2.0982,-2.1161,-2.1124,-2.1185,-2.1277,-2.0957,-2.061,-2.0346,-1.9837,-1.9165,-1.823,-1.6849,0.0,0.0,0.0,0.0,0.0,0.0,0.0,0.0,0.0,0.0,0.0,0.0,0.0,0.0,0.0,0.0,0.0,0.0,0.0,-2.4682,-2.4778,-2.4861,0.0,0.0,0.0,0.0,0.0,0.0,0.0,0.0,0.0,-2.9651,-2.9879,-3.0111,0.0,0.0,-3.001,-3.0077,-3.0014,-2.9909,-3.0126,-2.8913,0.0,0.0,-2.5447,-2.3287,-2.11,-1.9205,-1.7644,-1.6786,-1.6364,-1.6033,-1.5352,-1.504,-1.4715,-1.4397,-1.3875,-1.3595,-1.3776,-1.3444,-1.3027,-1.2686,-1.2606,-1.2415,-3.0225,-2.772,-2.6101,-2.5403,-2.5434,-2.5371,-2.5816,-2.6612,-2.5714,-2.4902,-2.4175,-2.3276,-2.1977,-2.0394,-1.9625,0.0,0.0,0.0,-1.9182,-1.9413,-1.9485,-1.919,-1.8655,-1.8661,-1.8815,-1.8987,-1.9133,-1.9448,-1.9952,-1.9787,-1.9272,-1.84,0.0,0.0,-1.8017,-1.8235,-1.8688,-1.937,-1.9974,-2.0322,-2.0396,-2.0759,-2.0835,-2.0686,-2.0573,-2.0308,-1.9901,-1.9592,-1.9081,-1.8325,-1.7207,-1.6501,0.0,0.0,0.0,0.0,0.0,0.0,0.0,0.0,0.0,0.0,0.0,-1.8089,-1.9725,0.0,0.0,0.0,-2.4121,-2.4682,-2.486,-2.4888,0.0,0.0,0.0,0.0,0.0,0.0,0.0,-2.729,-2.7899,-2.8627,-2.9428,-2.931,-2.9553,-3.0415,-2.9871,-2.9551,-2.987,0.0,-2.9538,-2.9616,-2.8533,-2.7509,-2.6892,-2.509,-2.301,-2.0448,-1.88,-1.7552,-1.7098,-1.7043,-1.6821,-1.609,-1.5763,-1.5431,-1.4838,-1.4262,-1.3892,-1.3834,-1.3595,-1.3225,-1.2729,-1.2637,-1.257,-3.2772,-3.1168,-2.7064,-2.5791,-2.6463,-2.6008,-2.6189,-2.6876,-2.6335,-2.5503,-2.4434,-2.3585,-2.2661,-2.1682,-2.0286,0.0,-1.8464,-1.8975,-1.9028,-1.8798,-1.8934,-1.8827,-1.8471,-1.8061,-1.8236,-1.8934,-1.8721,-1.9146,-2.008,-1.9759,-1.956,-1.9402,-1.9235,-1.8936,-1.8495,-1.789,-1.8012,-1.9007,-1.9481,-1.9798,-1.9786,-2.0016,-2.0195,-2.0131,-2.0233,-1.9965,-1.9316,-1.891,-1.8506,-1.8052,-1.7004,-1.6645,-1.7136,0.0,0.0,0.0,0.0,0.0,0.0,0.0,0.0,0.0,0.0,0.0,0.0,0.0,0.0,0.0,-2.4874,0.0,-2.4477,-2.4273,0.0,0.0,0.0,-2.5531,-2.6348,-2.6927,-2.7492,-2.8132,0.0,0.0,-2.8967,-2.856,-2.877,-3.0161,-2.9808,-2.944,-2.9723,-2.9654,-2.9551,-2.9319,-2.8464,-2.7444,-2.6423,-2.5015,-2.2974,-2.0012,-1.8663,-1.8025,-1.7133,-1.7244,-1.7161,-1.629,-1.6089,-1.5821,-1.5216,-1.4844,-1.4412,-1.3694,-1.3592,-1.3444,-1.2571,-1.2662,-1.2905,-3.2213,-3.1504,-2.9565,-2.8952,-2.914,-2.8406,-2.7998,-2.7755,-2.6576,-2.5394,-2.4253,-2.3089,-2.1901,-2.0724,-2.0491,-1.9877,-1.9028,-1.9133,-1.904,-1.8798,-1.8851,-1.8721,-1.8471,-1.8007,-1.8018,-1.8441,-1.856,-1.8934,-1.9565,-1.972,-1.9736,-1.9712,-1.9548,-1.9155,-1.8512,-1.8276,-1.84,-1.8896,-1.923,-1.949,-1.9656,-1.9811,-1.9811,-1.9577,-1.95,-1.9186,-1.8602,-1.8278,-1.8007,-1.7689,-1.6725,-1.6336,-1.6592,-1.5644,0.0,0.0,0.0,0.0,0.0,0.0,0.0,0.0,0.0,-2.0151,-2.1185,0.0,-2.3377,0.0,-2.4874,-2.531,-2.5483,-2.5073,0.0,0.0,-2.566,-2.5986,-2.6671,-2.7257,-2.7653,-2.7961,-2.8085,-2.8231,-2.8481,-2.7921,-2.7785,-2.8382,-2.8677,-2.8918,-2.9234,-2.8832,-2.8562,-2.866,-2.7182,-2.5775,-2.565,-2.3842,-2.2123,-2.1028,-2.0255,-1.9529,-1.8532,-1.8562,-1.8189,-1.6545,-1.6338,-1.6125,-1.5346,-1.4685,-1.4149,-1.3729,-1.3614,-1.3328,-1.232,-1.2435,-1.2538,-3.1052,-3.03,-2.9595,-2.9078,-2.8671,-2.8071,-2.7373,-2.6566,-2.5608,-2.4839,-2.4146,-2.2791,-2.1512,-2.0311,-2.0261,-1.9879,-1.9316,-1.9251,-1.8999,-1.8625,-1.8744,-1.8518,-1.805,-1.7909,-1.7904,-1.7901,-1.8166,-1.8414,-1.8707,-1.8733,-1.8821,-1.8983,-1.8827,-1.8554,-1.8314,-1.8643,-1.8745,-1.8633,-1.8919,-1.9052,-1.9004,-1.9162,-1.9056,-1.875,-1.875,-1.8417,-1.7831,-1.7655,-1.7446,-1.7088,-1.6492,-1.6255,-1.6373,-1.6083,-1.6104,0.0,0.0,0.0,0.0,0.0,0.0,0.0,0.0,0.0,0.0,0.0,-2.3777,-2.4365,-2.4801,-2.5084,-2.528,-2.5081,-2.5084,-2.5466,-2.5982,-2.6443,-2.6782,-2.7583,-2.8085,-2.8021,-2.8061,-2.8066,-2.7908,-2.751,-2.7237,-2.7271,-2.7582,-2.7921,-2.8299,-2.8051,-2.7742,-2.7775,-2.6692,-2.5716,-2.5628,-2.3798,-2.2211,-2.1794,-2.0957,-2.0106,-1.9487,-1.9235,-1.8616,-1.7187,-1.6975,-1.6621,-1.5566,-1.4889,-1.4394,-1.3884,-1.3684,-1.3293,-1.2438,-1.2586,-1.279,-2.9841,-2.8623,-2.8439,-2.7708,-2.6687,-2.6393,-2.5675,-2.4741,-2.4282,-2.3978,-2.365,-2.2475,-2.1343,-2.0242,-1.9964,-1.9655,-1.9368,-1.9223,-1.8786,-1.8224,-1.8518,-1.8213,-1.749,-1.7763,-1.7718,-1.7289,-1.7524,-1.7707,-1.7798,-1.7557,-1.7642,-1.8005,-1.7725,-1.7687,-1.7977,-1.8653,-1.8762,-1.8278,-1.8572,-1.8548,-1.8232,-1.8352,-1.8255,-1.7852,-1.7875,-1.7699,-1.7146,-1.7045,-1.6832,-1.6431,-1.6239,-1.6218,-1.6415,-1.6492,-1.6673,0.0,-1.7401,0.0,0.0,0.0,0.0,0.0,0.0,0.0,0.0,-2.3281,-2.3936,-2.4249,-2.4486,-2.4543,-2.4346,-2.4543,-2.4724,-2.5084,-2.6072,-2.6776,-2.6898,-2.7796,-2.8327,-2.8079,-2.7947,-2.7736,-2.7456,-2.7108,-2.6769,-2.6571,-2.6586,-2.6746,-2.703,-2.7115,-2.6989,-2.6737,-2.6689,-2.6071,-2.5257,-2.3971,-2.2844,-2.2222,-2.1383,-2.0452,-1.9899,-1.9487,-1.8837,-1.7795,-1.7355,-1.6876,-1.5682,-1.5196,-1.4772,-1.4101,-1.386,-1.3446,-1.2792,-1.2929,-1.3308,-2.9468,-2.8552,-2.8297,-2.7065,-2.5308,-2.5013,-2.5023,-2.5183,-2.4071,-2.2975,-2.1833,-2.1369,-2.0949,-2.0489,-2.0225,-1.9858,-1.9396,-1.9052,-1.8464,-1.781,-1.7877,-1.7607,-1.7118,-1.7064,-1.6901,-1.6621,-1.685,-1.7189,-1.7521,-1.7533,-1.7763,-1.815,-1.7622,-1.7406,-1.7575,0.0,0.0,0.0,-1.817,-1.8104,-1.7831,-1.7918,-1.7809,-1.7346,-1.7168,0.0,-1.6729,-1.6353,-1.6181,-1.6296,-1.5768,0.0,0.0,0.0,0.0,0.0,0.0,0.0,0.0,0.0,0.0,0.0,-2.1144,-2.1731,-2.2056,-2.3315,-2.3817,-2.3205,-2.328,-2.345,-2.3675,-2.3745,-2.423,-2.5455,-2.6182,-2.6727,-2.7211,-2.7561,-2.7736,-2.7855,-2.7162,-2.6824,-2.6989,-2.6508,-2.6013,-2.5824,-2.5832,-2.5658,-2.5337,-2.5791,-2.6196,-2.6554,-2.5906,-2.5036,-2.3999,-2.3262,-2.2797,-2.2595,-2.2263,-2.1313,-2.0116,-1.9805,-1.8825,-1.6945,-1.6698,-1.6755,-1.5782,-1.5243,-1.4895,-1.456,-1.4182,-1.3815,-1.3124,-1.3105,-1.3149,-2.8614,0.0,-2.7397,-2.6343,0.0,-2.4465,-2.4376,-2.4363,-2.3428,-2.2463,-2.1581,-2.1326,-2.1062,-2.0643,-1.992,-1.9691,-1.9693,-1.9052,-1.8506,-1.817,-1.7875,-1.7463,-1.7002,-1.6621,-1.6243,-1.5874,-1.6196,-1.6336,-1.6279,-1.6478,-1.6883,-1.746,-1.6903,-1.6785,-1.7138,-1.6483,-1.6494,-1.7119,-1.7002,-1.6738,-1.6299,-1.6503,-1.6461,-1.6046,0.0,0.0,0.0,0.0,0.0,0.0,0.0,0.0,0.0,0.0,0.0,-1.7301,-1.7634,-1.7972,-1.8328,-1.9171,-1.9805,-2.0208,-2.1022,-2.1829,-2.2483,-2.3282,-2.3431,-2.2719,-2.284,-2.2894,-2.2802,-2.2929,-2.3493,-2.4469,-2.5258,-2.5834,-2.6302,-2.6575,-2.6674,-2.6531,-2.6008,-2.5611,-2.5624,-2.5289,-2.4976,-2.4772,-2.4623,-2.4372,-2.3956,-2.4612,-2.5429,-2.5569,-2.4804,-2.4089,-2.3593,-2.2811,-2.2387,-2.2453,-2.1793,-2.1064,-2.0532,-1.993,-1.9051,-1.7692,-1.7401,-1.7042,-1.6171,-1.566,-1.5246,-1.4904,-1.4688,-1.4363,-1.3994,-1.3739,-1.3572,-2.7837,-2.6849,-2.663,-2.5959,-2.4908,-2.4448,-2.3865,-2.3212,0.0,0.0,0.0,-2.1328,-2.1017,-2.057,-1.9552,-1.938,-1.9731,-1.9011,-1.8614,-1.8578,-1.7926,-1.7376,-1.692,-1.6333,-1.5802,-1.5344,-1.5645,-1.5568,-1.5176,-1.5472,-1.5913,-1.6444,-1.609,-1.6031,-1.6375,-1.5647,-1.5461,-1.5875,-1.5676,-1.5299,-1.4777,-1.5091,-1.5088,-1.4831,-1.5064,-1.5263,-1.5342,-1.5546,-1.5498,-1.5215,-1.5371,-1.571,-1.6239,-1.6228,-1.6513,-1.719,-1.7468,-1.7765,-1.8178,-1.8951,-1.9562,-1.9997,-2.0722,-2.1705,-2.2859,-2.309,-2.2971,-2.2405,-2.254,-2.2477,-2.2074,-2.2408,-2.2811,-2.331,-2.4089,-2.4762,-2.4992,-2.5315,-2.5344,-2.5129,-2.4833,-2.4471,-2.4337,-2.414,-2.3881,-2.3706,-2.3645,-2.3293,-2.2981,-2.3607,-2.4259,-2.4176,-2.3663,-2.327,-2.3271,-2.2502,-2.1878,-2.2173,-2.1141,-2.0489,-2.0694,-2.0086,-1.9209,-1.8567,-1.8065,-1.7273,-1.6533,-1.6123,-1.5732,-1.5381,-1.5146,-1.5024,-1.4885,-1.4571,-1.4175,-2.8097,-2.7425,-2.7041,-2.6453,-2.5833,-2.511,-2.3854,-2.2268,-2.1562,-2.1041,-2.0604,-2.022,-2.0066,-2.0054,-1.9681,-1.9239,-1.8762,-1.8721,-1.8583,0.0,-1.7588,-1.7128,-1.6603,-1.6075,-1.5669,-1.5314,-1.5371,-1.5336,-1.5313,-1.5835,-1.6045,-1.5971,-1.5853,-1.5524,-1.5049,-1.4821,-1.4604,-1.4361,-1.4746,-1.4829,-1.4609,-1.4586,-1.469,-1.4933,-1.4887,-1.499,-1.5186,-1.5371,-1.5362,-1.5205,-1.5498,-1.5836,-1.6296,-1.6524,-1.692,-1.7412,-1.7689,-1.7875,-1.785,-1.8552,-1.9448,-2.0462,-2.0696,-2.1244,-2.2249,-2.2482,-2.2311,-2.1797,-2.203,-2.2251,-2.2254,-2.2559,-2.2729,-2.2884,-2.3444,-2.3819,-2.3744,-2.374,-2.3926,-2.431,-2.3869,-2.3634,-2.3706,-2.3532,-2.3333,-2.3246,-2.3117,-2.3112,-2.2752,-2.272,-2.2823,-2.2891,-2.2559,-2.2389,-2.2396,-2.1912,-2.1565,-2.1742,-2.1183,-2.0523,-2.0296,-1.9754,-1.9049,-1.8066,-1.7636,-1.7166,-1.6664,-1.6403,-1.6158,-1.5899,-1.576,-1.5539,-1.5185,-1.492,-1.4673,-2.7752,-2.6991,-2.6273,-2.5473,-2.4566,-2.3798,-2.2668,-2.1281,-2.081,-2.0528,-2.0283,-1.9862,-1.9708,-1.9747,-1.9226,-1.8794,-1.8478,-1.8242,-1.8012,-1.7885,-1.7237,-1.6797,-1.6538,-1.5986,-1.5452,-1.5051,-1.53,-1.5289,-1.5154,-1.5812,-1.615,-1.6173,-1.589,-1.5329,-1.4443,-1.3882,-1.3541,-1.3326,-1.3739,-1.3842,-1.3549,-1.364,-1.3694,-1.3859,-1.3981,-1.4259,-1.462,-1.4896,-1.501,-1.4902,-1.5205,-1.5556,-1.6046,-1.6046,-1.6332,-1.6965,-1.7088,-1.7134,-1.7246,-1.8137,-1.9056,-1.9987,-2.0104,-2.0366,-2.0912,-2.1616,-2.1834,-2.15,-2.1606,-2.1602,-2.1519,-2.1743,-2.197,-2.2168,-2.2535,-2.2845,-2.2942,-2.2776,-2.2819,-2.305,-2.2714,-2.2468,-2.265,-2.2445,-2.2238,-2.2227,-2.212,-2.1935,-2.1727,-2.1606,-2.1744,-2.2456,-2.2162,-2.1857,-2.195,-2.1327,-2.0952,-2.0852,-2.0631,-2.026,-1.9783,-1.9489,-1.91,-1.8484,-1.7949,-1.752,-1.7097,-1.6612,-1.6342,-1.614,-1.5938,-1.5726,-1.5426,-1.5015,-1.4665,-2.7201,-2.6452,-2.571,-2.4648,-2.3512,-2.2691,-2.1753,-2.0785,-2.0334,-2.0131,-2.0029,-1.9708,-1.9552,-1.9448,-1.891,-1.8524,-1.8259,-1.7819,-1.7677,-1.7739,-1.7046,-1.6767,-1.6797,-1.6151,-1.5623,-1.5289,-1.5513,-1.5412,-1.5142,-1.5765,-1.6114,-1.6209,-1.5909,-1.5224,-1.4078,-1.3283,-1.2832,-1.2686,-1.2842,-1.2793,-1.2627,-1.2745,-1.284,-1.2861,-1.309,-1.3396,-1.3848,-1.4211,-1.4445,-1.4464,-1.4571,-1.4917,-1.5479,-1.5251,-1.5472,-1.6177,-1.6352,-1.6528,-1.6874,-1.772,-1.8518,-1.9163,-1.9363,-1.9503,-1.9746,-2.0572,-2.1178,-2.1116,-2.1188,-2.1129,-2.1138,-2.1262,-2.1394,-2.1522,-2.1653,-2.1918,-2.2165,-2.1969,-2.1942,-2.1951,-2.1749,-2.1584,-2.1561,-2.1474,-2.1371,-2.1331,-2.1094,-2.0869,-2.0703,-2.0553,-2.1031,-2.1513,-2.1484,-2.1218,-2.147,-2.0861,-2.0249,-1.9977,-1.9823,-1.9626,-1.9264,-1.9187,-1.9085,-1.859,-1.8163,-1.7735,-1.7382,-1.6821,-1.6412,-1.6272,-1.607,-1.5788,-1.5363,-1.4856,-1.4496,-2.6603,-2.6289,-2.5925,-2.5133,-2.3876,-2.2972,-2.2101,-2.1242,-2.0385,-1.9875,-1.9708,-1.9604,-1.9436,-1.9239,-1.9121,-1.8584,-1.7836,-1.7891,-1.7879,-1.7778,-1.7276,-1.7255,-1.7574,-1.6934,-1.6637,-1.6497,-1.6175,-1.586,-1.5617,-1.5916,-1.5877,-1.5527,-1.577,-1.5159,-1.3807,-1.3372,-1.3063,-1.2618,-1.2215,-1.2126,-1.2332,-1.2372,-1.246,-1.2706,-1.2491,-1.2645,-1.3186,-1.3424,-1.3589,-1.3745,-1.3672,-1.3844,-1.4361,-1.4326,-1.4602,-1.5381,-1.6032,-1.6543,-1.6922,-1.7233,-1.7676,-1.8278,-1.8518,-1.8686,-1.8959,-1.9246,-1.9818,-2.0433,-2.0694,-2.1005,-2.1699,-2.1737,-2.1522,-2.1188,-2.1152,-2.1188,-2.1126,-2.0885,-2.0938,-2.1404,-2.129,-2.1233,-2.1239,-2.1198,-2.1146,-2.0951,-2.0801,-2.0602,-2.0126,-2.0008,-1.9935,-2.003,-2.0013,-2.0302,-2.0497,-2.0096,-1.9639,-1.9441,-1.9158,-1.89,-1.8704,-1.8395,-1.8154,-1.8163,-1.7881,-1.7529,-1.7245,-1.6821,-1.6542,-1.6333,-1.6132,-1.5788,-1.5141,-1.4497,-1.426,-2.5994,-2.5496,-2.4791,-2.3894,-2.2847,-2.2502,-2.1932,-2.1202,-2.0257,-1.9862,-1.9709,-1.8922,-1.8698,-1.8946,-1.8494,-1.8105,-1.7868,-1.7345,-1.7414,-1.7788,-1.7572,-1.7505,-1.7479,-1.767,-1.7312,-1.6584,-1.6879,-1.6898,-1.6499,-1.6464,-1.6397,-1.621,-1.5646,-1.484,-1.4078,-1.3389,-1.2801,-1.2421,-1.2026,-1.1778,-1.1719,-1.1977,-1.2059,-1.201,-1.1974,-1.2218,-1.263,-1.2619,-1.2844,-1.3298,-1.2981,-1.2958,-1.3459,-1.3423,-1.3755,-1.4579,-1.5399,-1.5914,-1.6161,-1.6503,-1.6825,-1.7048,-1.7437,-1.7538,-1.7243,-1.7571,-1.817,-1.8966,-1.9613,-2.0243,-2.0804,-2.0885,-2.0908,-2.0864,-2.0785,-2.07,-2.0785,-2.0597,-2.0545,-2.0705,-2.0659,-2.0608,-2.0666,-2.0808,-2.0692,-2.0425,-2.0324,-2.007,-1.9521,-1.9432,-1.9403,-1.9269,-1.9293,-1.9614,-1.9902,-1.9749,-1.9333,-1.9065,-1.8983,-1.8859,-1.8309,-1.8212,-1.8076,-1.7764,-1.7617,-1.7332,-1.7116,-1.6691,-1.6412,-1.6202,-1.563,-1.4991,-1.4418,-1.3992,-1.3866,-2.5363,-2.4661,-2.3731,-2.2844,-2.2044,-2.1935,-2.1541,-2.0939,-1.996,-1.9568,-1.9471,-1.828,-1.7899,-1.8201,-1.7761,-1.7625,-1.7606,-1.6779,-1.6837,-1.7556,-1.7393,-1.7295,-1.7537,-1.7778,-1.7476,-1.6815,-1.7439,-1.7594,-1.7111,-1.6914,-1.6753,-1.6432,-1.5427,-1.4689,-1.4312,-1.3278,-1.2588,-1.2264,-1.1781,-1.1377,-1.1276,-1.1427,-1.1528,-1.1411,-1.1531,-1.1701,-1.1952,-1.1894,-1.201,-1.2394,-1.2047,-1.1965,-1.2225,-1.2234,-1.2787,-1.3905,-1.4831,-1.5352,-1.5468,-1.5864,-1.6093,-1.6134,-1.6503,-1.6472,-1.6079,-1.6358,-1.6889,-1.7438,-1.8214,-1.8929,-1.9787,-1.9817,-1.9935,-2.0158,-2.0076,-2.0098,-2.0288,-2.0172,-1.9972,-2.0014,-1.9996,-1.9991,-2.0076,-2.0284,-2.0288,-1.9883,-1.9722,-1.9454,-1.897,-1.8788,-1.8696,-1.8515,-1.8452,-1.8763,-1.939,-1.9244,-1.8934,-1.8721,-1.8617,-1.8414,-1.794,-1.8008,-1.793,-1.7411,-1.7401,-1.7116,-1.6621,-1.6272,-1.5895,-1.5559,-1.4974,-1.425,-1.3912,-1.3557,-1.3278,-2.4677,-2.404,-2.3143,-2.2526,-2.2123,-2.1444,-2.0894,-2.0555,-1.9382,-1.8809,-1.8585,-1.7811,-1.7337,-1.717,-1.7165,-1.7158,-1.7029,-1.6429,-1.6416,-1.6879,-1.6423,-1.6804,-1.7983,-1.7342,-1.7083,-1.7235,-1.7657,-1.7721,-1.7388,-1.717,-1.6551,-1.5712,-1.5368,-1.4958,-1.4275,-1.3184,-1.2523,-1.2223,-1.137,-1.0922,-1.0871,-1.082,-1.0871,-1.1006,-1.106,-1.104,-1.1066,-1.1273,-1.1241,-1.067,-1.0794,-1.0714,-1.0659,-1.0675,-1.1582,-1.3223,-1.4401,-1.5088,-1.5235,-1.5468,-1.5642,-1.569,-1.5864,-1.5874,-1.5748,-1.5999,-1.6259,-1.6222,-1.6707,-1.755,-1.8822,-1.8868,-1.8874,-1.9083,-1.9022,-1.9171,-1.9598,-1.9299,-1.9253,-1.9373,-1.9329,-1.9358,-1.9599,-1.9856,-1.9709,-1.943,-1.9166,-1.8903,-1.8469,-1.8104,-1.7893,-1.7685,-1.7608,-1.7638,-1.8564,-1.8553,-1.8253,-1.8009,-1.7782,-1.7716,-1.7647,-1.747,-1.7235,-1.7116,-1.7047,-1.6691,-1.6053,-1.5534,-1.5147,-1.4704,-1.426,-1.3685,-1.3208,-1.3077,-1.2753,-2.4589,-2.3824,-2.3054,-2.2572,-2.2278,-2.1636,-2.0952,-2.0118,-1.9032,-1.8311,-1.78,-1.6786,-1.6569,-1.7006,-1.6216,-1.6114,-1.6474,-1.5753,-1.5797,-1.6436,-1.6456,-1.679,-1.73,-1.739,-1.7269,-1.7161,-1.7601,-1.7798,-1.757,-1.7192,-1.6539,-1.5695,-1.5103,-1.4588,-1.3924,-1.3095,-1.237,-1.1846,-1.0947,-1.0438,-1.0285,-0.9925,-0.9836,-1.0043,-1.021,-1.0547,-1.0956,-1.0414,-1.0438,-1.1114,-1.0424,-1.0105,-1.034,-1.0966,-1.1693,-1.2581,-1.3508,-1.4231,-1.4706,-1.4942,-1.5118,-1.5303,-1.5468,-1.5594,-1.5662,-1.5672,-1.572,-1.5999,-1.6104,-1.6607,-1.7127,-1.7573,-1.8002,-1.8369,-1.8384,-1.8394,-1.8581,-1.8477,-1.8419,-1.8526,-1.8544,-1.8633,-1.8784,-1.8994,-1.9,-1.8714,-1.8515,-1.8322,-1.8047,-1.7846,-1.7723,-1.7668,-1.7623,-1.7647,-1.7609,-1.7719,-1.746,-1.7154,-1.6983,-1.7025,-1.7007,-1.69,-1.6756,-1.6711,-1.6697,-1.6306,-1.572,-1.492,-1.4418,-1.379,-1.3356,-1.2956,-1.2384,-1.2254,-1.1959,-2.4246,-2.3396,-2.2747,-2.2286,-2.1847,-2.1296,-2.0577,-1.9751,-1.8567,-1.7738,-1.7086,-1.5973,-1.582,-1.6155,-1.5345,-1.5207,-1.563,-1.5148,-1.5356,-1.6045,-1.6185,-1.645,-1.6858,-1.7117,-1.7017,-1.6802,-1.7264,-1.7551,-1.7476,-1.6973,-1.6349,-1.5625,-1.4842,-1.432,-1.3882,-1.2939,-1.2175,-1.1641,-1.0589,-0.9917,-0.9769,-0.9361,-0.9211,-0.9309,-0.9524,-0.9877,-1.0404,-0.9831,-0.9857,-1.0472,-0.9915,-0.9633,-1.0023,-1.0956,-1.1607,-1.1985,-1.2855,-1.3621,-1.4222,-1.4529,-1.4784,-1.5029,-1.5137,-1.5254,-1.5381,-1.5205,-1.5313,-1.5594,-1.571,-1.5768,-1.606,-1.6458,-1.6933,-1.7381,-1.7395,-1.7345,-1.7465,-1.7384,-1.7406,-1.7546,-1.7796,-1.7919,-1.7952,-1.8094,-1.8105,-1.7999,-1.7868,-1.7709,-1.7679,-1.7534,-1.7523,-1.7479,-1.7312,-1.7059,-1.6857,-1.6668,-1.6822,-1.6573,-1.6395,-1.64,-1.6365,-1.6328,-1.623,-1.6278,-1.6104,-1.58,-1.5233,-1.4361,-1.37,-1.2994,-1.2564,-1.2235,-1.1814,-1.1539,-1.1307,-2.3682,-2.2694,-2.2203,-2.1583,-2.0903,-2.0251,-1.9739,-1.9313,-1.7974,-1.7057,-1.6431,-1.5498,-1.5131,-1.4959,-1.4782,-1.4554,-1.4559,-1.465,-1.5006,-1.5547,-1.5279,-1.5671,-1.6464,-1.6337,-1.6262,-1.62,-1.6638,-1.6904,-1.6913,-1.6383,-1.5892,-1.5336,-1.4534,-1.4121,-1.4291,-1.2761,-1.1953,-1.1524,-1.0314,-0.951,-0.9361,-0.9054,-0.8949,-0.9054,-0.8903,-0.8938,-0.9176,-0.9502,-0.9538,-0.9272,-0.9212,-0.9296,-0.9649,-1.0386,-1.102,-1.1551,-1.2446,-1.3158,-1.3802,-1.4314,-1.465,-1.4834,-1.4834,-1.4843,-1.4883,-1.4824,-1.4824,-1.5079,-1.5147,-1.5323,-1.5614,-1.5644,-1.5732,-1.6029,-1.6229,-1.6191,-1.6141,-1.6128,-1.6249,-1.6618,-1.7074,-1.729,-1.7311,-1.7419,-1.7456,-1.7488,-1.7299,-1.7175,-1.7501,-1.7312,-1.7022,-1.6955,-1.6899,-1.6701,-1.6175,-1.5751,-1.5945,-1.6023,-1.5902,-1.5806,-1.5698,-1.5587,-1.5435,-1.5437,-1.5036,-1.4684,-1.4335,-1.3569,-1.3085,-1.2457,-1.2068,-1.173,-1.1431,-1.1159,-1.0873,-2.3132,-2.2004,-2.1658,-2.1178,-2.0567,-1.9816,-1.915,-1.8481,-1.7393,-1.6584,-1.5921,-1.5268,-1.4869,-1.4731,-1.4466,-1.4186,-1.401,-1.4005,-1.4259,-1.4606,-1.4567,-1.4948,-1.5588,-1.5763,-1.578,-1.5748,-1.5507,-1.5315,-1.5176,-1.5037,-1.4669,-1.414,-1.3684,-1.3375,-1.3283,-1.2122,-1.1437,-1.12,-0.9821,-0.904,-0.8935,-0.8415,-0.815,-0.815,-0.8162,-0.8211,-0.8172,-0.8578,-0.8844,-0.8873,-0.8815,-0.8931,-0.9334,-0.9868,-1.0414,-1.1036,-1.1783,-1.2666,-1.3531,-1.4026,-1.4552,-1.4925,-1.4893,-1.4834,-1.4942,-1.4529,-1.4419,-1.4715,-1.4784,-1.4843,-1.5147,-1.5147,-1.5381,-1.5904,-1.5914,-1.5856,-1.5856,-1.5961,-1.6114,-1.6239,-1.6592,-1.6791,-1.6859,-1.6916,-1.712,-1.7302,-1.7242,-1.7312,-1.7468,-1.7324,-1.7267,-1.7078,-1.6797,-1.6317,-1.5793,-1.5303,-1.5193,-1.5196,-1.5124,-1.5095,-1.5007,-1.488,-1.4676,-1.441,-1.4014,-1.3723,-1.3317,-1.2907,-1.2477,-1.219,-1.1908,-1.1567,-1.1201,-1.0898,-1.0583,-2.2858,-2.1832,-2.1595,-2.1152,-2.0478,-1.9575,-1.876,-1.8023,-1.7024,-1.6123,-1.5268,-1.4743,-1.4512,-1.4337,-1.4093,-1.3905,-1.3726,-1.3467,-1.3552,-1.3931,-1.4107,-1.4479,-1.4937,-1.5277,-1.5322,-1.513,-1.4823,-1.449,-1.4118,-1.4212,-1.3978,-1.3467,-1.316,-1.288,-1.2501,-1.166,-1.1074,-1.071,-0.9465,-0.8732,-0.8691,-0.8039,-0.7663,-0.7858,-0.7936,-0.7991,-0.7979,-0.8202,-0.8335,-0.8427,-0.8451,-0.8738,-0.9225,-0.95,-0.9926,-1.0725,-1.1412,-1.2167,-1.3261,-1.391,-1.4468,-1.4974,-1.4893,-1.4715,-1.4715,-1.424,-1.4181,-1.4359,-1.4478,-1.4597,-1.4852,-1.497,-1.5215,-1.5576,-1.5566,-1.5566,-1.5556,-1.5662,-1.572,-1.5778,-1.5972,-1.6124,-1.64,-1.6503,-1.6729,-1.6976,-1.7032,-1.6948,-1.7004,-1.6907,-1.6752,-1.6456,-1.6035,-1.5624,-1.5365,-1.4984,-1.4513,-1.4359,-1.424,-1.4317,-1.4285,-1.4073,-1.3902,-1.3664,-1.3275,-1.3171,-1.284,-1.2358,-1.1947,-1.1791,-1.1653,-1.1162,-1.0788,-1.0597,-1.0324,-2.2772,-2.203,-2.1787,-2.1203,-2.0402,-1.9317,-1.8467,-1.7834,-1.6656,-1.5487,-1.4567,-1.4186,-1.3952,-1.3763,-1.361,-1.3467,-1.342,-1.3132,-1.3025,-1.3304,-1.3653,-1.4018,-1.4455,-1.4731,-1.4674,-1.4536,-1.443,-1.4222,-1.3789,-1.3894,-1.3789,-1.3122,-1.2832,-1.2637,-1.209,-1.131,-1.0724,-1.0423,-0.9155,-0.8594,-0.8822,-0.8003,-0.7706,-0.8037,-0.8099,-0.8223,-0.8427,-0.8371,-0.8072,-0.7884,-0.83,-0.8858,-0.9246,-0.9187,-0.9703,-1.0818,-1.1188,-1.2011,-1.3059,-1.3743,-1.4307,-1.465,-1.4545,-1.4569,-1.42,-1.3895,-1.3716,-1.3912,-1.4204,-1.4469,-1.4597,-1.4784,-1.4921,-1.5088,-1.5088,-1.5029,-1.497,-1.5029,-1.5088,-1.5205,-1.5215,-1.5381,-1.5989,-1.5948,-1.6058,-1.6285,-1.6311,-1.604,-1.5787,-1.5717,-1.5608,-1.5331,-1.4972,-1.4696,-1.4382,-1.411,-1.3741,-1.3579,-1.349,-1.3519,-1.3527,-1.3333,-1.3096,-1.2845,-1.2626,-1.2476,-1.2276,-1.1855,-1.1595,-1.1445,-1.12,-1.0712,-1.036,-1.0136,-0.9807,-2.1724,-2.1139,-2.085,-2.0261,-1.9356,-1.8345,-1.7513,-1.6783,-1.5545,-1.4807,-1.4337,-1.3905,-1.3621,-1.3467,-1.317,-1.289,-1.2657,-1.2559,-1.2363,-1.2344,-1.2493,-1.3243,-1.3884,-1.3836,-1.3826,-1.3884,-1.3678,-1.3296,-1.29,-1.2997,-1.2696,-1.2224,-1.1882,-1.1722,-1.1618,-1.0727,-1.0386,-1.0333,-0.9146,-0.8421,-0.8323,-0.7822,-0.7717,-0.8099,-0.8191,-0.8512,-0.8959,-0.8868,-0.8577,-0.8271,-0.8687,-0.9228,-0.971,-0.9825,-1.0221,-1.1012,-1.1519,-1.2033,-1.2774,-1.328,-1.3677,-1.4155,-1.3687,-1.334,-1.3714,-1.3108,-1.2999,-1.3286,-1.3628,-1.3872,-1.4061,-1.4189,-1.4309,-1.4369,-1.4538,-1.4725,-1.4725,-1.4725,-1.4725,-1.497,-1.5039,-1.5196,-1.539,-1.5375,-1.5355,-1.5528,-1.5345,-1.4982,-1.4723,-1.46,-1.4546,-1.416,-1.3812,-1.356,-1.3323,-1.3121,-1.2919,-1.2813,-1.273,-1.2788,-1.2753,-1.2677,-1.2429,-1.2085,-1.1865,-1.1704,-1.1618,-1.1361,-1.1219,-1.1039,-1.0699,-1.0171,-0.9844,-0.9548,-0.9151,-2.0833,-2.0571,-2.0111,-1.9462,-1.8583,-1.7672,-1.675,-1.581,-1.4814,-1.4111,-1.3757,-1.3344,-1.3084,-1.2987,-1.2589,-1.2295,-1.2076,-1.2126,-1.2085,-1.2067,-1.2159,-1.2619,-1.3185,-1.3263,-1.3447,-1.317,-1.3045,-1.2715,-1.2314,-1.2166,-1.1909,-1.1436,-1.1044,-1.089,-1.0701,-1.0158,-0.9792,-0.9664,-0.8821,-0.8276,-0.8342,-0.7757,-0.792,-0.8369,-0.8556,-0.8822,-0.9426,-0.9614,-0.9421,-0.8952,-0.9045,-0.9469,-0.9974,-1.0142,-1.0513,-1.1201,-1.1623,-1.2035,-1.2572,-1.2908,-1.3253,-1.3397,-1.2819,-1.272,-1.2811,-1.2497,-1.2463,-1.2948,-1.3228,-1.3494,-1.364,-1.3821,-1.383,-1.3761,-1.3932,-1.4172,-1.4359,-1.435,-1.4369,-1.4547,-1.4606,-1.4641,-1.484,-1.4723,-1.4642,-1.4631,-1.4444,-1.4048,-1.3633,-1.3552,-1.3355,-1.293,-1.2583,-1.2307,-1.2126,-1.1961,-1.1738,-1.1631,-1.1577,-1.1642,-1.1836,-1.1804,-1.1524,-1.126,-1.1087,-1.0892,-1.0781,-1.06,-1.0481,-1.0199,-0.9996,-0.9688,-0.93,-0.8892,-0.8509,-2.0278,-2.0301,-1.9615,-1.8806,-1.8056,-1.7231,-1.6164,-1.5034,-1.4296,-1.3609,-1.3027,-1.2637,-1.252,-1.2421,-1.2017,-1.1719,-1.1628,-1.1728,-1.1945,-1.2094,-1.2215,-1.2297,-1.2106,-1.2966,-1.2919,-1.2403,-1.254,-1.2138,-1.1692,-1.1475,-1.1124,-1.0667,-1.0383,-1.0096,-0.988,-0.9475,-0.9201,-0.9004,-0.8396,-0.8114,-0.8224,-0.7786,-0.794,-0.886,-0.9175,-0.9315,-0.9771,-1.0086,-0.9959,-0.9204,-0.9212,-0.9648,-1.0228,-1.03,-1.06,-1.1178,-1.1632,-1.2003,-1.2338,-1.2718,-1.2908,-1.2809,-1.2504,-1.2276,-1.211,-1.1982,-1.2102,-1.2647,-1.3061,-1.3208,-1.339,-1.358,-1.3519,-1.3268,-1.3268,-1.345,-1.3769,-1.3899,-1.389,-1.3941,-1.395,-1.3933,-1.4047,-1.3979,-1.3821,-1.357,-1.331,-1.273,-1.2323,-1.2018,-1.1896,-1.1791,-1.141,-1.1052,-1.0922,-1.0747,-1.0485,-1.0298,-1.0222,-1.0324,-1.065,-1.0649,-1.0492,-1.0319,-1.0221,-1.0023,-0.9835,-0.9712,-0.9586,-0.9346,-0.9081,-0.8873,-0.8672,-0.8304,-0.7882,-2.0179,-2.0259,-1.9469,-1.8539,-1.7472,-1.649,-1.5538,-1.4648,-1.3638,-1.3076,-1.2695,-1.2382,-1.2116,-1.2026,-1.1519,-1.1124,-1.0964,-1.1175,-1.1613,-1.2245,-1.2262,-1.176,-1.1299,-1.1774,-1.185,-1.161,-1.1334,-1.1023,-1.0618,-1.0423,-1.0115,-0.9732,-0.9539,-0.9507,-0.9533,-0.9004,-0.898,-0.889,-0.8244,-0.7818,-0.7838,-0.7665,-0.7955,-0.8989,-0.965,-0.9882,-0.9768,-0.9748,-0.9527,-0.928,-0.9414,-0.9893,-1.0432,-1.0671,-1.096,-1.1499,-1.1813,-1.2083,-1.234,-1.2214,-1.2151,-1.2414,-1.1715,-1.1292,-1.1769,-1.1425,-1.1581,-1.2158,-1.2567,-1.2781,-1.285,-1.3042,-1.2956,-1.2696,-1.2749,-1.2818,-1.2903,-1.3086,-1.3338,-1.3519,-1.3511,-1.3537,-1.3714,-1.3086,-1.2849,-1.2512,-1.204,-1.1403,-1.1036,-1.0649,-1.0561,-1.0601,-1.0233,-0.9933,-0.9829,-0.9635,-0.9355,-0.9133,-0.9039,-0.8858,-0.9219,-0.9411,-0.9184,-0.9226,-0.9347,-0.916,-0.8992,-0.8866,-0.8763,-0.8476,-0.8164,-0.8012,-0.7785,-0.7486,-0.7386,-1.9337,-1.9266,-1.8435,-1.7498,-1.6582,-1.5672,-1.496,-1.427,-1.3369,-1.2813,-1.2657,-1.2314,-1.1977,-1.1769,-1.1217,-1.082,-1.0565,-1.06,-1.0972,-1.1411,-1.141,-1.099,-1.0474,-1.0277,-1.0328,-1.0694,-1.0576,-1.0218,-0.9917,-0.9555,-0.9249,-0.8988,-0.8575,-0.8371,-0.853,-0.8172,-0.7868,-0.7793,-0.7665,-0.748,-0.7384,-0.7643,-0.8351,-0.9307,-1.009,-1.0358,-0.9901,-0.9646,-0.9326,-0.9175,-0.9214,-0.9756,-1.0554,-1.08,-1.1163,-1.1696,-1.2142,-1.2087,-1.199,-1.1744,-1.1559,-1.1561,-1.088,-1.0864,-1.1007,-1.1,-1.1329,-1.1835,-1.2127,-1.2189,-1.2112,-1.205,-1.1943,-1.192,-1.1882,-1.1881,-1.2043,-1.2526,-1.2981,-1.3094,-1.3025,-1.291,-1.273,-1.2291,-1.1809,-1.1439,-1.0981,-1.0455,-1.0104,-0.9777,-0.9546,-0.9404,-0.9075,-0.8791,-0.8685,-0.8519,-0.8236,-0.8063,-0.7935,-0.7672,-0.765,-0.7779,-0.7823,-0.8022,-0.8287,-0.8274,-0.8056,-0.8027,-0.7903,-0.7626,-0.735,-0.7173,-0.6952,-0.6808,-0.672,-1.8525,-1.8161,-1.73,-1.6461,-1.5623,-1.4949,-1.4419,-1.3952,-1.32,-1.2754,-1.2638,-1.2264,-1.1828,-1.1469,-1.1015,-1.0514,-1.0087,-0.9858,-1.0064,-1.0305,-1.0151,-0.9843,-0.9474,-0.9072,-0.8981,-0.9718,-0.9599,-0.9392,-0.9145,-0.8784,-0.8408,-0.8196,-0.7664,-0.7382,-0.7144,-0.6916,-0.6759,-0.6628,-0.6927,-0.7052,-0.714,-0.7665,-0.857,-0.9325,-0.9888,-0.9901,-0.9518,-0.9198,-0.9011,-0.8829,-0.8765,-0.9344,-1.011,-1.0724,-1.1091,-1.1569,-1.1941,-1.1926,-1.1552,-1.1272,-1.0984,-1.0379,-1.0398,-1.0328,-1.0501,-1.0938,-1.1353,-1.1576,-1.1809,-1.1578,-1.1176,-1.1188,-1.1052,-1.0994,-1.0833,-1.0872,-1.1133,-1.1889,-1.2205,-1.2554,-1.2263,-1.2048,-1.1858,-1.1546,-1.097,-1.0394,-0.9916,-0.9459,-0.9125,-0.8823,-0.8501,-0.829,-0.7972,-0.8043,-0.7996,-0.7783,-0.749,-0.7339,-0.7095,-0.6768,-0.6499,-0.6498,-0.6731,-0.6992,-0.716,-0.7121,-0.7042,-0.6892,-0.6773,-0.6657,-0.6619,-0.6436,-0.6249,-0.6101,-0.6073,-1.8602,-1.7907,-1.7269,-1.6293,-1.5232,-1.464,-1.4071,-1.3362,-1.2958,-1.2578,-1.2363,-1.1968,-1.1519,-1.1015,-1.0557,-0.9925,-0.9295,-0.8856,-0.879,-0.8985,-0.8835,-0.8574,-0.81,-0.8006,-0.7913,-0.7818,-0.8031,-0.8143,-0.8143,-0.7783,-0.7557,-0.723,-0.7015,-0.6745,-0.6435,-0.6188,-0.6032,-0.5962,-0.6342,-0.6621,-0.6745,-0.738,-0.8035,-0.8619,-0.9005,-0.8807,-0.8431,-0.8042,-0.7852,-0.7992,-0.8177,-0.877,-0.9548,-1.0238,-1.0643,-1.102,-1.1361,-1.1383,-1.0937,-1.0642,-1.046,-1.0271,-1.0282,-1.0309,-1.0415,-1.0924,-1.1374,-1.1468,-1.137,-1.1064,-1.0499,-1.0356,-1.0334,-1.0251,-1.0147,-1.0221,-1.0121,-1.03,-1.085,-1.1382,-1.1226,-1.1127,-1.0873,-1.0569,-0.9926,-0.94,-0.8947,-0.8293,-0.7678,-0.7473,-0.7219,-0.7058,-0.6902,-0.7133,-0.7365,-0.7144,-0.6939,-0.6771,-0.6564,-0.6178,-0.5905,-0.5622,-0.5716,-0.5855,-0.5864,-0.5793,-0.5734,-0.5743,-0.5648,-0.5553,-0.5624,-0.5704,-0.5475,-0.5308,-0.5427,-1.8101,-1.7517,-1.6842,-1.6061,-1.5244,-1.4501,-1.4025,-1.3647,-1.3104,-1.2618,-1.2255,-1.1868,-1.1377,-1.0769,-1.0241,-0.934,-0.8336,-0.7753,-0.7528,-0.7463,-0.725,-0.709,-0.672,-0.6891,-0.6843,-0.6853,-0.7025,-0.7348,-0.761,-0.7074,-0.681,-0.6588,-0.6312,-0.5977,-0.5742,-0.5604,-0.5366,-0.5385,-0.5872,-0.6154,-0.6109,-0.6839,-0.7497,-0.7972,-0.8096,-0.7967,-0.7647,-0.7591,-0.7526,-0.7596,-0.7917,-0.8376,-0.8958,-0.9524,-1.0103,-1.0471,-1.0739,-1.0601,-1.0187,-0.9904,-0.972,-0.9319,-0.9658,-0.9938,-1.0168,-1.0601,-1.1059,-1.0868,-1.0609,-1.0071,-0.9191,-0.9219,-0.9023,-0.8895,-0.9055,-0.8978,-0.8745,-0.8756,-0.9266,-0.9978,-0.9993,-0.9926,-0.992,-0.9515,-0.8878,-0.8385,-0.7963,-0.7224,-0.6387,-0.6311,-0.6199,-0.6145,-0.6036,-0.6263,-0.649,-0.6327,-0.6201,-0.6146,-0.5922,-0.5589,-0.525,-0.493,-0.4601,-0.4487,-0.4497,-0.4694,-0.4787,-0.4876,-0.4704,-0.4545,-0.467,-0.4748,-0.4581,-0.4532,-0.4693,-1.7437,-1.7034,-1.6298,-1.5664,-1.5108,-1.4258,-1.3847,-1.3763,-1.29,-1.2295,-1.1972,-1.1493,-1.0905,-1.019,-0.928,-0.8271,-0.7117,-0.6632,-0.619,-0.5919,-0.5764,-0.5601,-0.5601,-0.566,-0.5668,-0.5828,-0.5991,-0.6647,-0.7015,-0.6637,-0.6268,-0.5937,-0.5445,-0.5116,-0.505,-0.493,-0.4707,-0.4879,-0.5446,-0.5786,-0.6025,-0.6429,-0.7055,-0.7642,-0.7702,-0.7377,-0.6789,-0.6933,-0.7007,-0.7077,-0.74,-0.7847,-0.8231,-0.8683,-0.9204,-0.9716,-1.0053,-0.9693,-0.9108,-0.9017,-0.8846,-0.852,-0.8775,-0.9157,-0.9668,-1.0047,-1.0314,-0.9903,-0.9417,-0.8939,-0.8063,-0.7773,-0.7654,-0.7553,-0.7589,-0.7655,-0.7449,-0.7458,-0.7712,-0.8231,-0.8519,-0.8695,-0.877,-0.8479,-0.792,-0.7308,-0.6851,-0.6288,-0.5613,-0.5487,-0.5445,-0.5332,-0.5332,-0.5445,-0.55,-0.5445,-0.5389,-0.5394,-0.5117,-0.4784,-0.4485,-0.4194,-0.3852,-0.3645,-0.3653,-0.3845,-0.3984,-0.4032,-0.3893,-0.3789,-0.3881,-0.3857,-0.384,-0.3799,-0.3875,-1.6886,-1.6343,-1.5732,-1.5017,-1.4258,-1.3542,-1.3132,-1.2861,-1.1882,-1.1425,-1.1166,-1.0458,-0.9747,-0.8751,-0.7261,-0.6411,-0.5819,-0.5273,-0.4835,-0.4728,-0.4677,-0.4515,-0.4349,-0.4401,-0.4736,-0.4956,-0.4956,-0.5391,-0.6095,-0.6154,-0.5841,-0.5411,-0.5132,-0.4768,-0.4422,-0.4405,-0.4154,-0.4198,-0.5034,-0.5948,-0.6526,-0.6437,-0.6531,-0.6671,-0.6605,-0.6207,-0.5675,-0.5881,-0.6086,-0.63,-0.6683,-0.6999,-0.7256,-0.7647,-0.7842,-0.8238,-0.8628,-0.8813,-0.795,-0.7865,-0.7943,-0.7762,-0.7813,-0.8244,-0.8856,-0.936,-0.9444,-0.9132,-0.844,-0.7667,-0.7072,-0.6845,-0.6609,-0.6462,-0.6394,-0.6489,-0.6455,-0.6284,-0.6559,-0.6747,-0.7088,-0.7442,-0.7592,-0.7293,-0.6904,-0.6303,-0.5731,-0.525,-0.4844,-0.4782,-0.468,-0.4567,-0.4563,-0.4732,-0.4736,-0.4625,-0.4712,-0.4685,-0.4412,-0.4137,-0.3942,-0.3688,-0.3241,-0.3076,-0.3033,-0.2941,-0.2928,-0.293,-0.3013,-0.3088,-0.3126,-0.3153,-0.314,-0.3141,-0.3128,-1.4529,-1.4665,-1.3964,-1.3355,-1.287,-1.1984,-1.1607,-1.1434,-1.0704,-1.0195,-0.9931,-0.9193,-0.8146,-0.6983,-0.5914,-0.5206,-0.4608,-0.4064,-0.379,-0.3683,-0.3685,-0.3683,-0.3962,-0.4128,-0.4346,-0.4519,-0.4739,-0.4956,-0.534,-0.5411,-0.527,-0.5414,-0.4912,-0.4572,-0.4073,-0.4051,-0.3801,-0.3732,-0.4033,-0.4671,-0.5124,-0.5213,-0.508,-0.5209,-0.5352,-0.502,-0.4752,-0.4752,-0.5219,-0.5624,-0.6079,-0.6478,-0.6675,-0.6868,-0.6868,-0.6588,-0.7058,-0.7335,-0.732,-0.6953,-0.6817,-0.6763,-0.6844,-0.7453,-0.8085,-0.8425,-0.8303,-0.7559,-0.7183,-0.662,-0.5958,-0.5733,-0.5575,-0.5462,-0.5324,-0.5433,-0.5487,-0.5374,-0.5382,-0.555,-0.5732,-0.6052,-0.6301,-0.612,-0.586,-0.5467,-0.507,-0.4758,-0.4355,-0.4079,-0.399,-0.391,-0.3907,-0.3959,-0.3962,-0.391,-0.4079,-0.4126,-0.4011,-0.3739,-0.3575,-0.3286,-0.2843,-0.2437,-0.2249,-0.211,-0.1933,-0.211,-0.2397,-0.2378,-0.2364,-0.2419,-0.2476,-0.2339,-0.232,-1.1831,-1.2377,-1.1938,-1.1702,-1.1522,-1.0426,-1.0179,-1.0305,-0.9467,-0.9006,-0.8521,-0.7664,-0.6489,-0.5584,-0.4988,-0.4275,-0.3674,-0.3121,-0.2903,-0.285,-0.2965,-0.3188,-0.3408,-0.3683,-0.3904,-0.4356,-0.4187,-0.4405,-0.4519,-0.448,-0.4706,-0.5312,-0.43,-0.4086,-0.3949,-0.3674,-0.3276,-0.3242,-0.3367,-0.376,-0.4201,-0.3855,-0.3862,-0.3934,-0.4069,-0.4132,-0.3882,-0.4087,-0.4553,-0.4683,-0.5147,-0.5484,-0.5885,-0.5818,-0.5815,-0.5599,-0.5758,-0.5903,-0.6092,-0.6001,-0.5693,-0.584,-0.6192,-0.6962,-0.7051,-0.733,-0.7225,-0.636,-0.5853,-0.5365,-0.4882,-0.4743,-0.4629,-0.4515,-0.4395,-0.4453,-0.4563,-0.4615,-0.4721,-0.4999,-0.5058,-0.4791,-0.499,-0.4925,-0.4784,-0.4505,-0.434,-0.418,-0.386,-0.3475,-0.3342,-0.3263,-0.3363,-0.3471,-0.3527,-0.3474,-0.3588,-0.349,-0.3375,-0.3224,-0.2969,-0.2797,-0.2453,-0.2043,-0.1633,-0.1412,-0.1319,-0.1534,-0.1807,-0.1732,-0.1763,-0.176,-0.1769,-0.1625,-0.1534,-0.9141,-0.9555,-1.0046,-1.0343,-1.0426,-0.929,-0.9252,-0.9673,-0.8423,-0.7794,-0.7357,-0.6122,-0.5496,-0.5014,-0.3895,-0.3342,-0.3413,-0.2181,-0.2069,-0.2352,-0.2695,-0.2749,-0.2745,-0.2685,-0.2852,-0.3355,-0.3355,-0.3522,-0.3802,-0.3747,-0.3937,-0.4128,-0.3688,-0.3328,-0.3202,-0.3138,-0.292,-0.287,-0.2858,-0.3263,-0.3456,-0.3228,-0.2816,-0.3317,-0.3477,-0.3392,-0.3082,-0.3558,-0.3758,-0.3623,-0.4087,-0.442,-0.4824,-0.4821,-0.4818,-0.4942,-0.4734,-0.4847,-0.5011,-0.5123,-0.543,-0.5964,-0.6307,-0.6303,-0.6026,-0.5902,-0.5697,-0.5427,-0.4911,-0.4396,-0.4082,-0.3852,-0.3849,-0.3738,-0.3683,-0.3741,-0.3907,-0.4015,-0.4177,-0.4505,-0.4346,-0.3858,-0.3474,-0.3408,-0.3741,-0.3581,-0.3686,-0.3527,-0.3175,-0.2862,-0.2795,-0.2723,-0.2878,-0.3037,-0.3256,-0.3314,-0.3431,-0.3015,-0.2636,-0.2483,-0.2216,-0.2032,-0.2072,-0.1652,-0.1244,-0.0957,-0.0729,-0.0842,-0.0957,-0.1076,-0.114,-0.1205,-0.1273,-0.1235,-0.0958,-0.8019,-0.7972,-0.8159,-0.8685,-0.9228,-0.8606,-0.8508,-0.8666,-0.8131,-0.7052,-0.5964,-0.4937,-0.4122,-0.3516,-0.2961,-0.2068,-0.1623,-0.14,-0.1511,-0.1736,-0.185,-0.1626,-0.1511,-0.1621,-0.1846,-0.235,-0.2408,-0.2691,-0.3363,-0.3137,-0.332,-0.3405,-0.318,-0.361,-0.3542,-0.2818,-0.2458,-0.2055,-0.1813,-0.1745,-0.1801,-0.1833,-0.15,-0.1535,-0.2483,-0.2225,-0.1938,-0.3023,-0.3159,-0.3222,-0.3482,-0.3749,-0.4023,-0.402,-0.4223,-0.4492,-0.4295,-0.44,-0.4148,-0.4102,-0.4109,-0.4578,-0.4901,-0.5026,-0.4852,-0.4736,-0.4549,-0.4219,-0.3966,-0.3613,-0.3411,-0.3352,-0.3297,-0.313,-0.3077,-0.3135,-0.3132,-0.3294,-0.3181,-0.3287,-0.297,-0.248,-0.2146,-0.187,-0.2308,-0.2633,-0.2843,-0.2883,-0.249,-0.2266,-0.215,-0.2203,-0.2308,-0.2352,-0.2577,-0.2902,-0.3163,-0.2571,-0.1914,-0.1686,-0.1515,-0.1819,-0.1745,-0.1265,-0.0794,-0.045,-0.0168,-0.0112,-0.0168,-0.0282,-0.0508,-0.0736,-0.08,-0.075,-0.0467,-0.772,-0.7606,-0.7062,-0.7182,-0.7717,-0.7664,-0.7729,-0.7836,-0.7563,-0.6465,-0.4728,-0.4009,-0.3181,-0.2406,-0.1734,-0.0671,0.0056,0.0056,-0.0503,-0.0503,-0.0224,-0.0168,-0.0223,-0.0167,-0.0112,-0.1061,-0.1284,-0.1451,-0.2066,-0.2238,-0.2286,-0.2366,-0.2577,-0.26,-0.2795,-0.2378,-0.1635,-0.1068,-0.0875,-0.0336,-0.0402,-0.0262,-0.0588,-0.0466,-0.1373,-0.1755,-0.1646,-0.2446,-0.2847,-0.2845,-0.3045,-0.3257,-0.3407,-0.3556,-0.3687,-0.4025,-0.4231,-0.4298,-0.3796,-0.3591,-0.3316,-0.3823,-0.3914,-0.3982,-0.3903,-0.3917,-0.3785,-0.3348,-0.3242,-0.3099,-0.2795,-0.2736,-0.2709,-0.2593,-0.2802,-0.2856,-0.2519,-0.246,-0.2179,-0.2012,-0.163,-0.1465,-0.1023,-0.0799,-0.098,-0.131,-0.1413,-0.1564,-0.1549,-0.1434,-0.1436,-0.155,-0.1721,-0.1828,-0.1876,-0.1954,-0.203,-0.1744,-0.114,-0.086,-0.0806,-0.1045,-0.1045,-0.0513,-0.0056,0.0168,0.0448,0.0672,0.0616,0.0449,0.0056,-0.0338,-0.0338,-0.0284,-0.0,-0.8249,-0.8769,-0.6997,-0.6104,-0.59,-0.6421,-0.6864,-0.7139,-0.6647,-0.5605,-0.4184,-0.3347,-0.2683,-0.1958,-0.095,0.0503,0.1681,0.1511,0.1173,0.1283,0.1509,0.1228,0.1339,0.1616,0.1671,0.0612,0.05,0.039,-0.0278,-0.0446,-0.0626,-0.0519,-0.04,-0.0405,-0.1046,-0.07,-0.0262,-0.0134,-0.0671,-0.027,0.0268,0.0656,0.0394,-0.0,-0.0458,-0.0907,-0.1178,-0.1498,-0.1957,-0.2361,-0.2291,-0.264,-0.3218,-0.3021,-0.3155,-0.3689,-0.3629,-0.336,-0.2815,-0.3199,-0.3228,-0.3219,-0.3372,-0.3502,-0.3755,-0.3645,-0.3093,-0.2596,-0.2424,-0.2284,-0.22,-0.2112,-0.2139,-0.2123,-0.2288,-0.2158,-0.1763,-0.1585,-0.1305,-0.0898,-0.0727,-0.056,-0.0114,0.023,0.0235,0.0058,-0.0057,-0.0232,-0.0425,-0.062,-0.0686,-0.0744,-0.0988,-0.1208,-0.1193,-0.0979,-0.0847,-0.0618,-0.0281,0.017,0.0342,0.0287,0.0343,0.0509,0.0844,0.1289,0.14,0.1568,0.1418,0.1205,0.0507,0.0112,0.0112,0.0168,0.045,-0.8714,-0.7596,-0.6217,-0.4838,-0.39,-0.5572,-0.6627,-0.6972,-0.6041,-0.5054,-0.4061,-0.2788,-0.1846,-0.1119,0.0223,0.1562,0.2235,0.3188,0.3012,0.2615,0.3123,0.3347,0.3289,0.3174,0.334,0.306,0.2839,0.2336,0.1724,0.1336,0.1344,0.1528,0.1433,0.1462,0.0904,0.0499,-0.0195,0.0262,0.0332,0.0607,0.0873,0.1182,0.1307,0.1005,0.0524,0.0065,-0.0197,-0.0519,-0.1033,-0.1569,-0.1505,-0.2178,-0.2676,-0.2549,-0.282,-0.3088,-0.3025,-0.2691,-0.2083,-0.1993,-0.2189,-0.2517,-0.2706,-0.287,-0.3077,-0.3075,-0.247,-0.1871,-0.1741,-0.1661,-0.1763,-0.1516,-0.1444,-0.1324,-0.1318,-0.1004,-0.0706,-0.0641,-0.0463,0.0057,0.0336,0.0572,0.0988,0.0893,0.0911,0.0805,0.0672,0.0612,0.0443,0.0195,0.0066,0.0065,-0.0129,-0.0438,-0.0486,-0.0293,0.0115,0.0457,0.1023,0.1704,0.171,0.1492,0.1549,0.1606,0.1985,0.2411,0.2315,0.2281,0.2281,0.2002,0.133,0.0796,0.068,0.0677,0.073,-0.8901,-0.6957,-0.4862,-0.3786,-0.3603,-0.5322,-0.6311,-0.6436,-0.566,-0.4721,-0.3392,-0.1952,-0.0782,0.0167,0.1281,0.2783,0.3287,0.3953,0.4288,0.3831,0.4401,0.4512,0.4563,0.467,0.4721,0.4728,0.445,0.3889,0.3498,0.289,0.2845,0.3039,0.2858,0.264,0.2242,0.1536,0.0768,0.1093,0.1169,0.1258,0.1384,0.1635,0.2027,0.186,0.1458,0.1051,0.0852,0.0454,-0.0064,-0.0521,-0.0981,-0.1575,-0.1917,-0.2274,-0.248,-0.2554,-0.242,-0.2085,-0.1545,-0.1276,-0.154,-0.1676,-0.1748,-0.1934,-0.2104,-0.2166,-0.1562,-0.1092,-0.1016,-0.1135,-0.1256,-0.1003,-0.0873,-0.0748,-0.0431,-0.0182,0.006,0.012,0.0536,0.1047,0.133,0.1649,0.1801,0.1663,0.1514,0.1414,0.1305,0.1242,0.124,0.0992,0.0806,0.0801,0.0659,0.032,0.0247,0.0474,0.0933,0.151,0.1918,0.2329,0.2553,0.2224,0.2452,0.2611,0.2677,0.2765,0.2919,0.2967,0.2854,0.2701,0.2266,0.1818,0.1383,0.1206,0.1148,-0.8373,-0.6646,-0.2828,-0.2479,-0.4505,-0.4823,-0.5166,-0.5175,-0.5478,-0.4141,-0.1681,-0.1016,0.0226,0.1842,0.2454,0.3622,0.5011,0.5222,0.5273,0.5214,0.5441,0.5496,0.566,0.5878,0.5878,0.571,0.5437,0.5105,0.4992,0.4326,0.4226,0.4181,0.3646,0.3492,0.3244,0.2771,0.2116,0.1931,0.1785,0.1743,0.1736,0.2196,0.2405,0.2364,0.2102,0.1501,0.1162,0.076,0.0565,0.0314,0.0125,-0.0571,-0.1227,-0.1924,-0.2074,-0.2014,-0.1814,-0.1344,-0.1008,-0.0806,-0.0605,-0.0538,-0.047,-0.0806,-0.1072,-0.1134,-0.0862,-0.0398,-0.0198,-0.0524,-0.0715,-0.0581,-0.0448,-0.0127,0.0251,0.0498,0.0682,0.1049,0.1539,0.1893,0.2128,0.2276,0.2256,0.218,0.1933,0.1772,0.166,0.1794,0.1722,0.164,0.1529,0.1544,0.1324,0.0975,0.0943,0.0734,0.09,0.12,0.1756,0.2185,0.2472,0.2922,0.2968,0.2993,0.2969,0.3145,0.3438,0.3485,0.338,0.3162,0.3034,0.2509,0.2054,0.1685,0.1508,-0.2174,-0.1539,0.071,0.1576,0.1372,-0.0056,-0.1364,-0.2534,-0.2968,-0.1963,-0.0178,0.0538,0.1697,0.2987,0.3903,0.4916,0.569,0.6312,0.6583,0.6583,0.6529,0.6696,0.681,0.6864,0.681,0.6647,0.6372,0.6091,0.5819,0.5374,0.4941,0.4673,0.447,0.4353,0.4094,0.3759,0.3209,0.2722,0.2499,0.2262,0.2142,0.2535,0.2743,0.2743,0.2677,0.2098,0.1655,0.1314,0.1129,0.0971,-0.0,-0.0645,-0.0331,-0.1003,-0.1209,-0.0336,-0.0201,-0.0067,0.0067,0.0336,0.0538,0.0605,0.0672,0.0672,0.0336,-0.0134,-0.0202,0.0135,0.0404,0.02,0.0132,0.0263,0.0328,0.0521,0.0904,0.1222,0.1472,0.1591,0.2093,0.2262,0.2443,0.2528,0.2516,0.2462,0.2216,0.1995,0.2017,0.2151,0.2213,0.2124,0.2251,0.2274,0.1806,0.1383,0.0788,0.0514,0.063,0.087,0.1575,0.2271,0.2845,0.3243,0.3389,0.3468,0.3592,0.3795,0.4066,0.4015,0.3912,0.4046,0.3921,0.3277,0.2722,0.2328,0.2004,0.315,0.358,0.4567,0.4967,0.4362,0.2486,0.1215,0.0661,-0.0301,-0.0121,0.0855,0.2054,0.3155,0.4119,0.5088,0.6064,0.7154,0.7343,0.7563,0.7658,0.7557,0.7616,0.7676,0.7729,0.7729,0.7568,0.7408,0.7235,0.6907,0.647,0.6036,0.5937,0.5597,0.5369,0.5204,0.5109,0.4674,0.403,0.3498,0.3047,0.2942,0.3079,0.3193,0.3202,0.3249,0.2795,0.2265,0.1981,0.1643,0.1691,0.0767,0.0648,0.0925,0.0532,0.0402,0.1141,0.1073,0.1141,0.1276,0.1477,0.1612,0.1612,0.1613,0.1479,0.1211,0.0807,0.0673,0.0674,0.0876,0.0942,0.1076,0.1142,0.1141,0.1141,0.1604,0.2064,0.2117,0.2166,0.2275,0.2441,0.2506,0.2589,0.2606,0.2548,0.2499,0.2336,0.2287,0.2487,0.2621,0.2611,0.2869,0.3084,0.2351,0.1673,0.1069,0.0737,0.093,0.1317,0.1934,0.2584,0.3275,0.3641,0.3797,0.4011,0.4221,0.4382,0.4411,0.4486,0.4423,0.4489,0.4561,0.4159,0.3582,0.3057,0.2788,0.8062,0.8601,0.8748,0.7729,0.5638,0.3691,0.3435,0.4291,0.2248,0.1434,0.1836,0.3287,0.4422,0.5251,0.6155,0.7344,0.8137,0.8415,0.8421,0.862,0.8196,0.8203,0.8362,0.8421,0.8368,0.8533,0.8527,0.8143,0.8196,0.7818,0.7391,0.7354,0.7001,0.6629,0.6412,0.6549,0.624,0.5739,0.5009,0.4474,0.3984,0.3995,0.4036,0.3745,0.3578,0.3411,0.2875,0.2451,0.197,0.2435,0.2596,0.2319,0.229,0.2381,0.2474,0.2414,0.2277,0.2345,0.2414,0.2549,0.2549,0.2484,0.2284,0.2284,0.2083,0.1279,0.101,0.1009,0.1144,0.1346,0.148,0.1681,0.1748,0.1882,0.2278,0.2477,0.2538,0.2526,0.2517,0.2561,0.263,0.2711,0.2583,0.2591,0.2652,0.2549,0.2624,0.2822,0.2889,0.2956,0.3157,0.3493,0.2753,0.2022,0.1839,0.1506,0.1599,0.1954,0.2372,0.2971,0.3542,0.3916,0.4284,0.4457,0.4637,0.4643,0.4635,0.473,0.4838,0.4966,0.4957,0.4957,0.4538,0.3987,0.3517,1.4801,1.3992,1.2935,1.1434,0.97,0.8313,0.6913,0.5871,0.4419,0.3313,0.3013,0.3686,0.4925,0.6272,0.7332,0.8489,0.9152,0.9361,0.9256,0.9204,0.889,0.883,0.9001,0.8949,0.8903,0.8837,0.883,0.8981,0.9026,0.8823,0.8514,0.8156,0.8019,0.796,0.7478,0.7695,0.7794,0.7438,0.6902,0.5923,0.5005,0.4495,0.4271,0.4279,0.4301,0.3961,0.3582,0.3209,0.2879,0.2908,0.2744,0.2857,0.3111,0.3668,0.3816,0.3616,0.3609,0.3613,0.3485,0.3551,0.3616,0.3551,0.3418,0.3286,0.282,0.1749,0.1212,0.1278,0.1412,0.1614,0.1883,0.2153,0.2423,0.2688,0.2885,0.2889,0.2891,0.2824,0.2757,0.2755,0.2755,0.2755,0.2622,0.269,0.2755,0.2889,0.2958,0.3092,0.3159,0.3159,0.3159,0.3293,0.282,0.2296,0.2261,0.2148,0.217,0.2106,0.2377,0.3057,0.3863,0.4364,0.477,0.4872,0.495,0.4987,0.5045,0.516,0.5272,0.5355,0.5422,0.5418,0.5355,0.4869,0.4414,1.9632,1.7814,1.5802,1.4027,1.2483,1.0906,0.9499,0.8093,0.593,0.4713,0.4291,0.4619,0.5483,0.6947,0.8159,0.9479,1.0138,1.019,1.019,1.0087,0.9777,0.9666,0.9621,0.9577,0.9577,0.951,0.971,0.9858,0.9946,0.9799,0.9599,0.9344,0.9377,0.9279,0.8871,0.9259,0.936,0.9229,0.8763,0.7756,0.6303,0.5789,0.5233,0.5242,0.503,0.4745,0.4276,0.4004,0.3795,0.3836,0.3985,0.4705,0.5101,0.5453,0.546,0.546,0.5397,0.5206,0.4815,0.4619,0.4683,0.4616,0.4082,0.3818,0.3551,0.2551,0.1884,0.1883,0.1681,0.1816,0.2353,0.2622,0.3025,0.3291,0.3422,0.3491,0.336,0.3228,0.3092,0.2958,0.2956,0.2889,0.2824,0.2824,0.2889,0.2956,0.3092,0.3159,0.3226,0.3429,0.3362,0.3293,0.3021,0.3055,0.3178,0.2922,0.2518,0.2521,0.2589,0.3522,0.4439,0.4928,0.5345,0.547,0.547,0.547,0.5547,0.5557,0.5557,0.5624,0.5752,0.5815,0.5818,0.5756,0.5355,2.2438,2.0194,1.765,1.5849,1.444,1.2426,1.1208,1.0298,0.7511,0.6013,0.6006,0.6147,0.6638,0.7339,0.8758,1.0162,1.0956,1.0905,1.1015,1.0913,1.0694,1.0438,1.0336,1.0387,1.049,1.0584,1.0779,1.1023,1.1166,1.0973,1.0769,1.0772,1.0817,1.0899,1.0905,1.0968,1.0926,1.073,1.0249,0.9547,0.8484,0.7367,0.6574,0.6159,0.5937,0.5609,0.5108,0.4851,0.4776,0.515,0.562,0.6475,0.6945,0.7158,0.7028,0.6967,0.6785,0.6396,0.5943,0.5617,0.5679,0.5477,0.468,0.4281,0.4148,0.3618,0.2954,0.2554,0.2353,0.2218,0.2755,0.3157,0.3491,0.3761,0.3894,0.3894,0.3763,0.3565,0.3429,0.3293,0.3159,0.309,0.309,0.3092,0.309,0.3159,0.3157,0.3157,0.3224,0.3493,0.3627,0.3761,0.3758,0.3816,0.3873,0.3554,0.307,0.3287,0.3487,0.4256,0.4944,0.5372,0.5745,0.6075,0.6079,0.6017,0.5951,0.602,0.602,0.5888,0.602,0.6083,0.6148,0.6152,0.6218,2.2092,1.9958,1.8308,1.7096,1.6103,1.4646,1.2989,1.1217,0.996,0.8832,0.8287,0.878,0.8825,0.7566,1.0023,1.1377,1.151,1.156,1.1469,1.136,1.1401,1.1108,1.0998,1.1283,1.1584,1.1783,1.1922,1.1972,1.2159,1.194,1.1651,1.1469,1.1879,1.1936,1.1793,1.1982,1.2353,1.2119,1.1565,1.0781,0.9841,0.8686,0.7484,0.7009,0.6632,0.6367,0.6114,0.6014,0.588,0.6227,0.7111,0.8091,0.8478,0.8592,0.8334,0.8016,0.7902,0.7316,0.6863,0.6535,0.647,0.6408,0.5807,0.5679,0.5411,0.4882,0.4284,0.3754,0.342,0.282,0.3088,0.3422,0.3689,0.3959,0.4159,0.4095,0.403,0.3897,0.3763,0.3627,0.356,0.3493,0.3426,0.3493,0.3558,0.3558,0.3625,0.3625,0.3558,0.3758,0.3894,0.4095,0.4295,0.4095,0.3922,0.4003,0.3749,0.3971,0.4242,0.4787,0.5269,0.5701,0.6079,0.6474,0.6601,0.6605,0.6539,0.6478,0.6214,0.6152,0.6284,0.6354,0.6416,0.6548,0.6548]},{"header":{"parameterUnit":"m.s-1","parameterCategory":1,"la1":31.0,"la2":29.5877,"lo1":-88.7671,"lo2":-86.6584,"dy":0.0162,"dx":0.0185,"nx":115,"ny":88,"refTime":"2023-09-15T06:00:00:Z","depth":0,"parameterNumber":3,"parameterNumberName":"V-component_of_WINDS"},"data":[0.0,0.0,0.0,0.0,0.0,0.0,0.0,0.0,0.0,0.0,0.0,0.0,0.0,0.0,0.0,0.0,0.0,0.0,0.0,0.0,0.0,0.0,0.0,0.0,0.0,0.0,0.0,0.0,0.0,0.0,0.0,0.0,0.0,0.0,0.0,0.0,0.0,0.0,0.0,0.0,0.0,0.0,0.0,0.0,0.0,0.0,0.0,0.0,0.0,0.0,0.0,0.0,0.0,0.0,0.0,0.0,0.0,0.0,0.0,0.0,0.0,0.0,0.0,0.0,0.0,0.0,0.0,0.0,0.0,0.0,0.0,0.0,0.0,0.0,0.0,0.0,0.0,0.0,0.0,0.0,0.0,0.0,0.0,0.0,0.0,0.0,0.0,0.0,0.0,0.0,0.0,0.0,0.0,0.0,0.0,0.0,0.0,0.0,0.0,0.0,0.0,0.0,0.0,0.0,0.0,0.0,0.0,0.0,0.0,0.0,0.0,0.0,0.0,0.0,0.0,0.0,0.0,0.0,0.0,0.0,0.0,0.0,0.0,0.0,0.0,0.0,0.0,0.0,0.0,0.0,0.0,0.0,0.0,0.0,0.0,0.0,0.0,0.0,0.0,0.0,0.0,0.0,0.0,0.0,0.0,0.0,0.0,0.0,0.0,0.0,0.0,0.0,0.0,0.0,0.0,0.0,0.0,0.0,0.0,0.0,0.0,0.0,0.0,0.0,0.0,0.0,0.0,0.0,0.0,0.0,0.0,0.0,0.0,0.0,0.0,0.0,0.0,0.0,0.0,0.0,0.0,0.0,0.0,0.0,0.0,0.0,0.0,0.0,0.0,0.0,0.0,0.0,0.0,0.0,0.0,0.0,0.0,0.0,0.0,0.0,0.0,0.0,0.0,0.0,0.0,0.0,0.0,0.0,0.0,0.0,0.0,0.0,0.0,0.0,0.0,0.0,0.0,0.0,0.0,0.0,0.0,0.0,0.0,0.0,0.0,0.0,0.0,0.0,0.0,0.0,0.0,0.0,0.0,0.0,0.0,0.0,0.0,0.0,0.0,0.0,0.0,0.0,0.0,0.0,0.0,0.0,0.0,0.0,0.0,0.0,0.0,0.0,0.0,0.0,0.0,0.0,0.0,0.0,0.0,0.0,0.0,0.0,0.0,0.0,0.0,0.0,0.0,0.0,0.0,0.0,0.0,0.0,0.0,0.0,0.0,0.0,0.0,0.0,0.0,0.0,0.0,0.0,0.0,0.0,0.0,0.0,0.0,0.0,0.0,0.0,0.0,0.0,0.0,0.0,0.0,0.0,0.0,0.0,0.0,0.0,0.0,0.0,0.0,0.0,0.0,0.0,0.0,0.0,0.0,0.0,0.0,0.0,0.0,0.0,0.0,0.0,0.0,0.0,0.0,0.0,0.0,0.0,0.0,0.0,0.0,0.0,0.0,0.0,0.0,0.0,0.0,0.0,0.0,0.0,0.0,0.0,0.0,0.0,0.0,0.0,0.0,0.0,0.0,0.0,0.0,0.0,0.0,0.0,0.0,0.0,0.0,0.0,0.0,0.0,0.0,0.0,0.0,0.0,0.0,0.0,0.0,0.0,0.0,0.0,0.0,0.0,0.0,0.0,0.0,0.0,0.0,0.0,0.0,0.0,0.0,0.0,0.0,0.0,0.0,0.0,0.0,0.0,0.0,0.0,0.0,0.0,0.0,0.0,0.0,0.0,0.0,0.0,0.0,0.0,0.0,0.0,0.0,0.0,0.0,0.0,0.0,0.0,0.0,0.0,0.0,0.0,0.0,0.0,0.0,0.0,0.0,0.0,0.0,0.0,0.0,0.0,0.0,0.0,0.0,0.0,0.0,0.0,0.0,0.0,0.0,0.0,0.0,0.0,0.0,0.0,0.0,0.0,0.0,0.0,0.0,0.0,0.0,0.0,0.0,0.0,0.0,0.0,0.0,0.0,0.0,0.0,0.0,0.0,0.0,0.0,0.0,0.0,0.0,0.0,0.0,0.0,0.0,0.0,0.0,0.0,0.0,0.0,0.0,0.0,0.0,0.0,0.0,0.0,0.0,0.0,0.0,0.0,0.0,0.0,0.0,0.0,0.0,0.0,0.0,0.0,0.0,0.0,0.0,0.0,0.0,0.0,0.0,0.0,0.0,0.0,0.0,0.0,0.0,0.0,0.0,0.0,0.0,0.0,0.0,0.0,0.0,0.0,0.0,0.0,0.0,0.0,0.0,0.0,0.0,0.0,0.0,0.0,0.0,0.0,0.0,0.0,0.0,0.0,0.0,0.0,0.0,0.0,0.0,0.0,0.0,0.0,0.0,0.0,0.0,0.0,0.0,0.0,0.0,0.0,0.0,0.0,0.0,0.0,0.0,0.0,0.0,0.0,0.0,0.0,0.0,0.0,0.0,0.0,0.0,0.0,0.0,0.0,0.0,0.0,0.0,0.0,0.0,0.0,0.0,0.0,0.0,0.0,0.0,0.0,0.0,0.0,0.0,0.0,0.0,0.0,0.0,0.0,0.0,0.0,0.0,0.0,0.0,0.0,0.0,0.0,0.0,0.0,0.0,0.0,0.0,0.0,0.0,0.0,0.0,0.0,0.0,0.0,0.0,0.0,0.0,0.0,0.0,0.0,0.0,0.0,0.0,0.0,0.0,0.0,0.0,0.0,0.0,0.0,0.0,0.0,0.0,0.0,0.0,0.0,0.0,0.0,0.0,0.0,0.0,0.0,0.0,0.0,0.0,0.0,0.0,0.0,0.0,0.0,0.0,0.0,0.0,0.0,0.0,0.0,0.0,0.0,0.0,0.0,0.0,0.0,0.0,0.0,0.0,0.0,0.0,0.0,0.0,0.0,0.0,0.0,0.0,0.0,0.0,0.0,0.0,0.0,0.0,0.0,0.0,0.0,0.0,0.0,0.0,0.0,0.0,0.0,0.0,0.0,0.0,0.0,0.0,0.0,0.0,0.0,0.0,0.0,0.0,0.0,0.0,0.0,0.0,0.0,0.0,0.0,0.0,0.0,0.0,0.0,0.0,0.0,0.0,0.0,0.0,0.0,0.0,0.0,0.0,0.0,0.0,0.0,0.0,0.0,0.0,0.0,0.0,0.0,0.0,0.0,0.0,0.0,0.0,0.0,0.0,0.0,0.0,0.0,0.0,0.0,0.0,0.0,0.0,0.0,0.0,0.0,0.0,0.0,0.0,0.0,0.0,0.0,0.0,0.0,0.0,0.0,0.0,0.0,0.0,0.0,0.0,0.0,0.0,0.0,0.0,0.0,0.0,0.0,0.0,0.0,0.0,0.0,0.0,0.0,0.0,0.0,0.0,0.0,0.0,0.0,0.0,0.0,0.0,0.0,0.0,0.0,0.0,0.0,0.0,0.0,0.0,0.0,0.0,0.0,0.0,0.0,0.0,0.0,0.0,0.0,0.0,0.0,0.0,0.0,0.0,0.0,0.0,0.0,0.0,0.0,0.0,0.0,0.0,0.0,0.0,0.0,0.0,0.0,0.0,0.0,0.0,0.0,0.0,0.0,0.0,0.0,0.0,0.0,0.0,0.0,0.0,0.0,0.0,0.0,0.0,0.0,0.0,0.0,0.0,0.0,0.0,0.0,0.0,0.0,0.0,0.0,0.0,0.0,0.0,0.0,0.0,0.0,0.0,0.0,0.0,0.0,0.0,0.0,0.0,0.0,0.0,0.0,0.0,0.0,0.0,0.0,0.0,0.0,0.0,0.0,0.0,0.0,0.0,0.0,0.0,0.0,0.0,0.0,0.0,0.0,0.0,0.0,0.0,0.0,0.0,0.0,0.0,0.0,0.0,0.0,0.0,0.0,0.0,0.0,0.0,0.0,0.0,0.0,0.0,0.0,0.0,0.0,0.0,0.0,0.0,0.0,0.0,0.0,0.0,0.0,0.0,0.0,0.0,0.0,0.0,0.0,0.0,0.0,0.0,0.0,0.0,0.0,0.0,0.0,0.0,0.0,0.0,0.0,0.0,0.0,0.0,0.0,0.0,0.0,0.0,0.0,0.0,0.0,0.0,0.0,0.0,0.0,0.0,0.0,0.0,0.0,0.0,0.0,0.0,0.0,0.0,0.0,0.0,0.0,0.0,0.0,0.0,0.0,0.0,0.0,0.0,0.0,0.0,0.0,0.0,0.0,0.0,0.0,0.0,0.0,0.0,0.0,0.0,0.0,0.0,0.0,0.0,0.0,0.0,0.0,0.0,0.0,0.0,0.0,0.0,0.0,0.0,0.0,-1.197,0.0,0.0,0.0,0.0,0.0,0.0,0.0,0.0,0.0,0.0,0.0,0.0,0.0,0.0,0.0,0.0,0.0,0.0,0.0,0.0,0.0,0.0,0.0,0.0,0.0,0.0,0.0,0.0,0.0,0.0,0.0,0.0,0.0,0.0,0.0,0.0,0.0,0.0,0.0,0.0,0.0,0.0,0.0,0.0,0.0,0.0,0.0,0.0,0.0,0.0,0.0,0.0,0.0,0.0,0.0,0.0,0.0,0.0,0.0,0.0,0.0,0.0,0.0,0.0,0.0,0.0,0.0,0.0,0.0,0.0,0.0,0.0,0.0,0.0,0.0,0.0,0.0,0.0,0.0,0.0,0.0,0.0,0.0,0.0,0.0,0.0,0.0,0.0,0.0,0.0,0.0,0.0,0.0,0.0,0.0,0.0,0.0,0.0,0.0,0.0,0.0,0.0,0.0,0.0,0.0,0.0,0.0,0.0,0.0,0.0,-1.4634,-1.4355,-1.403,-1.3511,-1.282,0.0,0.0,0.0,0.0,0.0,0.0,0.0,0.0,0.0,0.0,0.0,0.0,0.0,0.0,0.0,0.0,0.0,0.0,0.0,0.0,0.0,0.0,0.0,0.0,0.0,0.0,0.0,0.0,0.0,0.0,0.0,0.0,0.0,0.0,0.0,0.0,0.0,0.0,0.0,0.0,0.0,0.0,0.0,0.0,0.0,0.0,0.0,0.0,0.0,0.0,0.0,0.0,0.0,0.0,0.0,0.0,0.0,0.0,0.0,0.0,0.0,0.0,0.0,0.0,0.0,0.0,0.0,0.0,0.0,0.0,0.0,0.0,0.0,0.0,0.0,0.0,0.0,0.0,0.0,0.0,0.0,0.0,0.0,0.0,0.0,0.0,0.0,0.0,0.0,0.0,0.0,0.0,0.0,0.0,0.0,0.0,0.0,0.0,0.0,0.0,0.0,0.0,0.0,0.0,0.0,0.0,0.0,0.0,0.0,0.0,0.0,0.0,-1.5168,-1.4533,-1.3539,0.0,0.0,0.0,0.0,0.0,0.0,0.0,0.0,0.0,0.0,0.0,0.0,0.0,0.0,0.0,0.0,0.0,0.0,0.0,0.0,0.0,0.0,0.0,0.0,0.0,0.0,0.0,0.0,0.0,0.0,0.0,0.0,0.0,0.0,0.0,0.0,0.0,0.0,0.0,0.0,0.0,0.0,0.0,0.0,0.0,0.0,0.0,0.0,0.0,0.0,0.0,0.0,0.0,0.0,0.0,0.0,0.0,0.0,0.0,0.0,0.0,0.0,0.0,0.0,0.0,0.0,0.0,0.0,0.0,0.0,0.0,0.0,0.0,0.0,0.0,0.0,0.0,0.0,0.0,0.0,0.0,0.0,0.0,0.0,0.0,0.0,0.0,0.0,0.0,0.0,0.0,0.0,0.0,0.0,0.0,0.0,0.0,0.0,0.0,0.0,0.0,0.0,0.0,0.0,0.0,0.0,0.0,0.0,0.0,0.0,-1.6517,-1.6548,-1.6285,0.0,-1.4253,0.0,0.0,0.0,0.0,0.0,0.0,0.0,0.0,0.0,0.0,0.0,0.0,0.0,0.0,0.0,0.0,0.0,0.0,0.0,0.0,0.0,0.0,0.0,0.0,0.0,0.0,0.0,0.0,0.0,0.0,0.0,0.0,0.0,0.0,0.0,0.0,0.0,0.0,0.0,0.0,0.0,0.0,0.0,0.0,0.0,0.0,0.0,0.0,0.0,0.0,0.0,0.0,0.0,0.0,0.0,0.0,0.0,0.0,0.0,0.0,0.0,0.0,0.0,0.0,0.0,0.0,0.0,0.0,0.0,0.0,0.0,0.0,0.0,0.0,0.0,0.0,0.0,0.0,0.0,0.0,0.0,0.0,0.0,0.0,0.0,0.0,0.0,0.0,0.0,0.0,0.0,0.0,0.0,0.0,0.0,0.0,0.0,0.0,0.0,0.0,0.0,0.0,0.0,0.0,0.0,0.0,0.0,0.0,0.0,0.0,-1.7422,-1.7535,-1.7098,-1.646,0.0,0.0,0.0,0.0,0.0,0.0,0.0,0.0,0.0,0.0,0.0,0.0,0.0,0.0,0.0,0.0,0.0,0.0,0.0,0.0,0.0,0.0,0.0,0.0,0.0,0.0,0.0,0.0,0.0,0.0,0.0,0.0,0.0,0.0,0.0,0.0,0.0,0.0,0.0,0.0,0.0,0.0,0.0,0.0,0.0,0.0,0.0,0.0,0.0,0.0,0.0,0.0,0.0,0.0,0.0,0.0,0.0,0.0,0.0,0.0,0.0,0.0,0.0,0.0,0.0,0.0,0.0,0.0,0.0,0.0,0.0,0.0,0.0,0.0,0.0,0.0,0.0,0.0,0.0,0.0,0.0,0.0,0.0,0.0,0.0,0.0,0.0,0.0,0.0,0.0,0.0,0.0,0.0,0.0,0.0,0.0,0.0,0.0,0.0,0.0,0.0,0.0,0.0,0.0,0.0,0.0,0.0,0.0,0.0,0.0,-1.8072,-1.8257,-1.8373,-1.7977,-1.748,-1.6888,0.0,0.0,0.0,0.0,0.0,0.0,0.0,0.0,0.0,0.0,0.0,0.0,0.0,0.0,0.0,0.0,0.0,0.0,0.0,0.0,0.0,0.0,0.0,0.0,0.0,0.0,0.0,0.0,0.0,0.0,0.0,0.0,0.0,0.0,0.0,0.0,0.0,0.0,0.0,0.0,0.0,0.0,0.0,0.0,0.0,0.0,0.0,0.0,0.0,0.0,0.0,0.0,0.0,0.0,0.0,0.0,0.0,0.0,0.0,0.0,0.0,0.0,0.0,0.0,0.0,0.0,0.0,0.0,0.0,0.0,0.0,0.0,0.0,0.0,0.0,0.0,0.0,0.0,0.0,0.0,0.0,0.0,0.0,0.0,0.0,0.0,0.0,0.0,0.0,0.0,0.0,0.0,0.0,0.0,0.0,0.0,0.0,0.0,0.0,0.0,0.0,0.0,0.0,0.0,0.0,0.0,0.0,0.0,-1.8497,-1.8786,-1.8992,-1.9202,-1.8947,-1.867,0.0,0.0,0.0,0.0,0.0,0.0,0.0,0.0,0.0,0.0,0.0,0.0,0.0,0.0,0.0,0.0,0.0,0.0,0.0,0.0,0.0,0.0,0.0,0.0,0.0,0.0,0.0,0.0,0.0,0.0,0.0,0.0,0.0,0.0,0.0,0.0,0.0,0.0,0.0,0.0,0.0,0.0,0.0,0.0,0.0,0.0,0.0,0.0,0.0,0.0,0.0,0.0,0.0,0.0,0.0,0.0,0.0,0.0,0.0,0.0,0.0,0.0,0.0,0.0,0.0,0.0,0.0,0.0,0.0,0.0,0.0,0.0,0.0,0.0,0.0,0.0,0.0,0.0,0.0,0.0,0.0,0.0,0.0,0.0,0.0,0.0,0.0,0.0,0.0,0.0,0.0,0.0,0.0,0.0,0.0,0.0,0.0,0.0,0.0,0.0,0.0,0.0,0.0,0.0,0.0,0.0,0.0,0.0,0.0,-2.1464,-2.2412,-2.2662,-2.2207,-2.1531,-2.0777,0.0,0.0,0.0,0.0,0.0,0.0,0.0,0.0,0.0,0.0,0.0,0.0,0.0,0.0,0.0,0.0,0.0,0.0,0.0,0.0,0.0,0.0,0.0,0.0,0.0,0.0,0.0,0.0,0.0,0.0,0.0,0.0,0.0,0.0,0.0,0.0,0.0,0.0,0.0,0.0,0.0,0.0,0.0,0.0,0.0,0.0,0.0,0.0,0.0,0.0,0.0,0.0,0.0,0.0,0.0,0.0,0.0,0.0,0.0,0.0,0.0,0.0,0.0,0.0,0.0,0.0,0.0,0.0,0.0,0.0,0.0,0.0,0.0,0.0,0.0,0.0,0.0,0.0,0.0,0.0,0.0,0.0,0.0,0.0,0.0,0.0,0.0,0.0,0.0,0.0,0.0,0.0,0.0,0.0,0.0,0.0,0.0,0.0,0.0,0.0,0.0,0.0,0.0,0.0,0.0,0.0,0.0,0.0,0.0,-2.3362,0.0,-2.4417,-2.3868,-2.2942,-2.2105,0.0,0.0,0.0,0.0,0.0,0.0,0.0,0.0,0.0,0.0,0.0,0.0,0.0,0.0,0.0,0.0,0.0,0.0,0.0,0.0,0.0,0.0,0.0,0.0,0.0,0.0,0.0,0.0,0.0,0.0,0.0,0.0,0.0,0.0,0.0,0.0,0.0,0.0,0.0,0.0,0.0,0.0,0.0,0.0,0.0,0.0,0.0,0.0,0.0,0.0,0.0,0.0,0.0,0.0,0.0,0.0,0.0,0.0,0.0,0.0,0.0,0.0,0.0,0.0,0.0,0.0,0.0,0.0,0.0,0.0,0.0,0.0,0.0,0.0,0.0,0.0,0.0,0.0,0.0,0.0,0.0,0.0,0.0,0.0,0.0,0.0,0.0,0.0,0.0,0.0,0.0,0.0,0.0,0.0,0.0,0.0,0.0,0.0,0.0,0.0,0.0,0.0,0.0,0.0,0.0,0.0,0.0,0.0,-2.3385,-2.3943,-2.401,-2.4117,-2.3828,-2.3119,-2.2611,0.0,0.0,0.0,0.0,0.0,0.0,0.0,0.0,0.0,0.0,0.0,0.0,0.0,0.0,0.0,0.0,0.0,0.0,0.0,0.0,0.0,0.0,0.0,0.0,0.0,0.0,0.0,0.0,0.0,0.0,0.0,0.0,0.0,0.0,0.0,0.0,0.0,0.0,0.0,0.0,0.0,0.0,0.0,0.0,0.0,0.0,0.0,0.0,0.0,0.0,0.0,0.0,0.0,0.0,0.0,0.0,0.0,0.0,0.0,0.0,0.0,0.0,0.0,0.0,0.0,0.0,0.0,0.0,0.0,0.0,0.0,0.0,0.0,0.0,0.0,0.0,0.0,0.0,0.0,0.0,0.0,0.0,0.0,0.0,0.0,0.0,0.0,0.0,0.0,0.0,0.0,0.0,0.0,0.0,0.0,0.0,0.0,0.0,0.0,0.0,0.0,0.0,0.0,0.0,0.0,0.0,0.0,0.0,0.0,-2.6485,-2.7788,-2.767,-2.6048,-2.5811,-2.4629,0.0,0.0,0.0,0.0,0.0,0.0,0.0,0.0,0.0,0.0,0.0,0.0,0.0,0.0,0.0,0.0,0.0,0.0,0.0,0.0,0.0,0.0,0.0,0.0,0.0,0.0,0.0,0.0,0.0,0.0,0.0,0.0,0.0,0.0,0.0,0.0,0.0,0.0,0.0,0.0,0.0,0.0,0.0,0.0,0.0,0.0,0.0,0.0,0.0,0.0,0.0,0.0,0.0,0.0,0.0,0.0,0.0,0.0,0.0,0.0,0.0,0.0,0.0,0.0,0.0,0.0,0.0,0.0,0.0,0.0,0.0,0.0,0.0,0.0,0.0,0.0,0.0,0.0,0.0,0.0,0.0,0.0,0.0,0.0,0.0,0.0,0.0,0.0,0.0,0.0,0.0,0.0,0.0,0.0,0.0,0.0,0.0,0.0,0.0,0.0,0.0,0.0,0.0,0.0,0.0,0.0,0.0,0.0,0.0,-2.6322,-2.7561,-2.7449,-2.5739,-2.5438,-2.4574,-2.3146,0.0,0.0,0.0,0.0,0.0,0.0,0.0,0.0,0.0,0.0,0.0,0.0,0.0,0.0,0.0,0.0,0.0,0.0,0.0,0.0,0.0,0.0,0.0,0.0,0.0,0.0,0.0,0.0,0.0,0.0,0.0,0.0,0.0,0.0,0.0,0.0,0.0,0.0,0.0,0.0,0.0,0.0,0.0,0.0,0.0,0.0,0.0,0.0,0.0,0.0,0.0,0.0,0.0,0.0,0.0,0.0,0.0,0.0,0.0,0.0,0.0,0.0,0.0,0.0,0.0,0.0,0.0,0.0,0.0,0.0,0.0,0.0,0.0,0.0,0.0,0.0,0.0,0.0,0.0,0.0,0.0,0.0,0.0,0.0,0.0,0.0,0.0,0.0,0.0,0.0,0.0,0.0,0.0,0.0,0.0,0.0,0.0,0.0,0.0,0.0,0.0,0.0,0.0,0.0,0.0,0.0,0.0,0.0,-2.3759,-2.3875,-2.3821,-2.3526,-2.2663,-2.2922,0.0,0.0,0.0,0.0,0.0,0.0,0.0,0.0,0.0,0.0,0.0,0.0,0.0,0.0,0.0,0.0,0.0,0.0,0.0,0.0,0.0,0.0,0.0,0.0,0.0,0.0,0.0,0.0,0.0,0.0,0.0,0.0,0.0,0.0,0.0,0.0,0.0,0.0,0.0,0.0,0.0,0.0,0.0,0.0,0.0,0.0,0.0,0.0,0.0,0.0,0.0,0.0,0.0,0.0,0.0,0.0,0.0,0.0,0.0,0.0,0.0,0.0,0.0,0.0,0.0,0.0,0.0,0.0,0.0,0.0,0.0,0.0,0.0,0.0,0.0,0.0,0.0,0.0,0.0,0.0,0.0,0.0,0.0,0.0,0.0,0.0,0.0,0.0,0.0,0.0,0.0,0.0,0.0,0.0,0.0,0.0,0.0,0.0,0.0,0.0,0.0,0.0,0.0,0.0,0.0,0.0,0.0,0.0,0.0,-2.2128,-2.051,-2.0124,-2.11,-2.2595,-2.3065,0.0,0.0,0.0,0.0,0.0,0.0,0.0,0.0,0.0,0.0,0.0,0.0,0.0,0.0,0.0,0.0,0.0,0.0,0.0,0.0,0.0,0.0,0.0,0.0,0.0,0.0,0.0,0.0,0.0,0.0,0.0,0.0,0.0,0.0,0.0,0.0,0.0,0.0,0.0,0.0,0.0,0.0,0.0,0.0,0.0,0.0,0.0,0.0,0.0,0.0,0.0,0.0,0.0,0.0,0.0,0.0,0.0,0.0,0.0,0.0,0.0,0.0,0.0,0.0,0.0,0.0,0.0,0.0,0.0,0.0,0.0,0.0,0.0,0.0,0.0,0.0,0.0,0.0,0.0,0.0,0.0,0.0,0.0,0.0,0.0,0.0,0.0,0.0,0.0,0.0,0.0,0.0,0.0,0.0,0.0,0.0,0.0,0.0,0.0,0.0,0.0,0.0,0.0,0.0,0.0,0.0,0.0,0.0,-2.1995,-2.0557,-1.8137,-1.7287,-1.8325,-2.064,-2.1971,0.0,0.0,0.0,0.0,0.0,0.0,0.0,0.0,0.0,0.0,0.0,0.0,0.0,0.0,0.0,0.0,0.0,0.0,0.0,0.0,0.0,0.0,0.0,0.0,0.0,0.0,0.0,0.0,0.0,0.0,0.0,0.0,0.0,0.0,0.0,0.0,0.0,0.0,0.0,0.0,0.0,0.0,0.0,0.0,0.0,0.0,0.0,0.0,0.0,0.0,0.0,0.0,0.0,0.0,0.0,0.0,0.0,0.0,0.0,0.0,0.0,0.0,0.0,0.0,0.0,0.0,0.0,0.0,0.0,0.0,0.0,0.0,0.0,0.0,0.0,0.0,0.0,0.0,0.0,0.0,0.0,0.0,0.0,0.0,0.0,0.0,0.0,0.0,0.0,0.0,0.0,0.0,0.0,0.0,0.0,0.0,0.0,0.0,0.0,0.0,0.0,0.0,0.0,0.0,0.0,0.0,0.0,0.0,-2.0076,-1.917,-1.6558,-1.5431,-1.5897,-1.7985,-2.0299,0.0,0.0,0.0,0.0,0.0,0.0,0.0,0.0,0.0,0.0,0.0,0.0,0.0,0.0,0.0,0.0,0.0,0.0,0.0,0.0,0.0,0.0,0.0,0.0,0.0,0.0,0.0,0.0,0.0,0.0,0.0,0.0,0.0,0.0,0.0,0.0,0.0,0.0,0.0,0.0,0.0,0.0,0.0,0.0,0.0,0.0,0.0,0.0,0.0,0.0,0.0,0.0,0.0,0.0,0.0,0.0,0.0,0.0,0.0,0.0,0.0,0.0,0.0,0.0,0.0,0.0,0.0,0.0,0.0,0.0,0.0,0.0,0.0,0.0,0.0,0.0,0.0,0.0,0.0,0.0,0.0,0.0,0.0,0.0,0.0,0.0,0.0,0.0,0.0,0.0,0.0,0.0,0.0,0.0,0.0,0.0,0.0,0.0,0.0,0.0,0.0,0.0,0.0,0.0,0.0,0.0,0.0,0.0,-1.9368,-1.8517,-1.6429,-1.5657,-1.619,-1.8021,-1.9984,0.0,0.0,0.0,0.0,0.0,0.0,0.0,0.0,0.0,0.0,0.0,0.0,0.0,0.0,0.0,0.0,0.0,0.0,0.0,0.0,0.0,0.0,0.0,0.0,0.0,0.0,0.0,0.0,0.0,0.0,0.0,0.0,0.0,0.0,0.0,0.0,0.0,0.0,0.0,0.0,0.0,0.0,0.0,0.0,0.0,0.0,0.0,0.0,-2.5743,0.0,0.0,0.0,0.0,0.0,0.0,0.0,0.0,0.0,0.0,0.0,0.0,0.0,0.0,0.0,0.0,0.0,0.0,0.0,0.0,0.0,0.0,0.0,0.0,0.0,0.0,0.0,0.0,0.0,0.0,0.0,0.0,0.0,0.0,0.0,0.0,0.0,0.0,0.0,0.0,0.0,0.0,0.0,0.0,0.0,0.0,0.0,0.0,0.0,0.0,0.0,0.0,0.0,0.0,0.0,0.0,0.0,0.0,0.0,-1.8315,-1.7573,-1.5945,-1.5499,-1.6525,-1.792,-1.9637,0.0,0.0,0.0,0.0,0.0,0.0,0.0,0.0,0.0,0.0,0.0,0.0,0.0,0.0,0.0,0.0,0.0,0.0,0.0,0.0,0.0,0.0,0.0,0.0,0.0,0.0,0.0,0.0,0.0,0.0,0.0,0.0,0.0,0.0,0.0,0.0,0.0,0.0,0.0,0.0,0.0,0.0,0.0,0.0,0.0,0.0,0.0,0.0,0.0,0.0,0.0,0.0,0.0,0.0,0.0,0.0,0.0,0.0,0.0,0.0,0.0,0.0,0.0,0.0,0.0,0.0,0.0,0.0,0.0,0.0,0.0,0.0,0.0,0.0,0.0,0.0,0.0,0.0,0.0,0.0,0.0,0.0,0.0,0.0,0.0,0.0,0.0,0.0,0.0,0.0,0.0,0.0,0.0,0.0,0.0,0.0,0.0,0.0,0.0,0.0,0.0,0.0,0.0,0.0,0.0,0.0,0.0,-1.8918,-1.7331,-1.6727,-1.5675,-1.565,-1.6848,-1.7853,-1.9447,-2.1579,0.0,0.0,0.0,0.0,0.0,0.0,0.0,0.0,0.0,0.0,0.0,0.0,0.0,0.0,0.0,0.0,0.0,0.0,0.0,0.0,0.0,0.0,0.0,0.0,0.0,0.0,0.0,0.0,0.0,0.0,0.0,0.0,0.0,0.0,0.0,0.0,0.0,0.0,-2.1468,-2.2875,0.0,0.0,0.0,0.0,0.0,0.0,0.0,0.0,-2.5315,0.0,0.0,0.0,0.0,0.0,0.0,0.0,0.0,0.0,0.0,0.0,0.0,0.0,0.0,0.0,0.0,0.0,0.0,0.0,0.0,0.0,0.0,0.0,0.0,0.0,0.0,0.0,0.0,0.0,0.0,0.0,0.0,0.0,0.0,0.0,0.0,0.0,0.0,0.0,0.0,0.0,0.0,0.0,0.0,0.0,0.0,0.0,0.0,0.0,0.0,0.0,0.0,0.0,0.0,0.0,0.0,-2.0827,-1.9135,-1.7697,-1.6689,-1.6783,-1.6937,-1.7026,-1.8134,-1.982,-2.1994,0.0,0.0,0.0,0.0,0.0,0.0,0.0,0.0,0.0,0.0,0.0,0.0,0.0,0.0,0.0,0.0,0.0,0.0,0.0,0.0,0.0,0.0,0.0,0.0,0.0,0.0,0.0,0.0,0.0,0.0,0.0,0.0,0.0,0.0,0.0,0.0,0.0,0.0,0.0,-2.2978,-2.3703,0.0,0.0,0.0,0.0,0.0,0.0,0.0,0.0,-2.4694,0.0,0.0,0.0,0.0,0.0,0.0,0.0,0.0,0.0,0.0,0.0,0.0,0.0,0.0,0.0,0.0,0.0,0.0,0.0,0.0,0.0,0.0,0.0,0.0,0.0,0.0,0.0,0.0,0.0,0.0,0.0,0.0,0.0,0.0,0.0,0.0,0.0,0.0,0.0,0.0,0.0,0.0,0.0,0.0,0.0,0.0,0.0,0.0,0.0,0.0,0.0,0.0,0.0,0.0,0.0,-1.9983,-1.8574,-1.7552,-1.6982,-1.672,-1.6902,-1.7628,-1.8241,-1.9699,0.0,0.0,0.0,0.0,0.0,0.0,0.0,0.0,0.0,0.0,0.0,0.0,0.0,0.0,0.0,0.0,0.0,0.0,0.0,0.0,0.0,0.0,0.0,0.0,0.0,0.0,0.0,0.0,0.0,0.0,0.0,0.0,0.0,0.0,0.0,0.0,0.0,0.0,0.0,0.0,-2.2992,-2.3838,-2.4531,0.0,0.0,0.0,0.0,0.0,0.0,-2.457,-2.4997,0.0,0.0,0.0,0.0,0.0,0.0,0.0,0.0,0.0,0.0,0.0,0.0,0.0,0.0,0.0,0.0,0.0,0.0,0.0,0.0,0.0,0.0,0.0,0.0,0.0,0.0,0.0,0.0,0.0,0.0,0.0,0.0,0.0,0.0,0.0,0.0,0.0,0.0,0.0,0.0,0.0,0.0,0.0,0.0,0.0,0.0,0.0,0.0,0.0,0.0,0.0,0.0,0.0,0.0,0.0,-1.9263,-1.7968,-1.7246,-1.712,-1.6528,-1.68,-1.7962,-1.8364,-1.969,0.0,0.0,0.0,0.0,0.0,0.0,0.0,0.0,0.0,0.0,0.0,0.0,0.0,0.0,0.0,0.0,0.0,0.0,0.0,0.0,0.0,0.0,0.0,0.0,0.0,0.0,0.0,0.0,0.0,0.0,0.0,0.0,0.0,0.0,0.0,0.0,0.0,0.0,0.0,0.0,0.0,-2.4307,-2.5052,-2.5652,0.0,0.0,0.0,0.0,-2.4386,-2.5084,0.0,0.0,0.0,0.0,0.0,0.0,0.0,0.0,0.0,0.0,0.0,0.0,0.0,0.0,0.0,0.0,0.0,0.0,0.0,0.0,0.0,0.0,0.0,0.0,0.0,0.0,0.0,0.0,0.0,0.0,0.0,0.0,0.0,0.0,0.0,0.0,0.0,0.0,0.0,0.0,0.0,0.0,0.0,0.0,0.0,0.0,0.0,0.0,0.0,0.0,0.0,0.0,0.0,0.0,0.0,0.0,-1.8782,-1.8006,-1.7195,-1.6341,-1.7143,-1.751,-1.7166,-1.8625,-2.0261,0.0,0.0,0.0,0.0,0.0,0.0,0.0,0.0,0.0,0.0,0.0,0.0,0.0,0.0,0.0,0.0,0.0,0.0,0.0,0.0,0.0,0.0,0.0,0.0,0.0,0.0,0.0,0.0,0.0,0.0,0.0,0.0,0.0,0.0,0.0,0.0,0.0,0.0,0.0,0.0,0.0,-2.4936,-2.5711,-2.5972,-2.5871,0.0,0.0,-2.509,-2.4687,-2.532,0.0,0.0,0.0,0.0,0.0,0.0,0.0,0.0,0.0,0.0,0.0,0.0,0.0,0.0,0.0,0.0,0.0,0.0,0.0,0.0,0.0,0.0,0.0,0.0,0.0,0.0,0.0,0.0,0.0,0.0,0.0,0.0,0.0,0.0,0.0,0.0,0.0,0.0,0.0,0.0,0.0,0.0,0.0,0.0,0.0,0.0,0.0,0.0,0.0,0.0,0.0,0.0,0.0,0.0,0.0,-1.8507,-1.8414,-1.8596,-1.8265,-1.7326,-1.8017,-1.8251,-1.7975,-1.8849,-2.0082,0.0,0.0,0.0,0.0,0.0,0.0,0.0,0.0,0.0,0.0,0.0,0.0,0.0,0.0,0.0,0.0,0.0,0.0,0.0,0.0,0.0,0.0,0.0,0.0,0.0,0.0,0.0,0.0,0.0,0.0,0.0,0.0,0.0,0.0,0.0,0.0,0.0,0.0,0.0,0.0,0.0,0.0,-2.693,-2.7314,0.0,0.0,0.0,-2.5678,-2.538,0.0,0.0,0.0,0.0,0.0,0.0,0.0,0.0,0.0,0.0,0.0,0.0,0.0,0.0,0.0,0.0,0.0,0.0,0.0,0.0,0.0,0.0,0.0,0.0,0.0,0.0,0.0,0.0,0.0,0.0,0.0,0.0,0.0,0.0,0.0,0.0,0.0,0.0,0.0,0.0,0.0,0.0,0.0,0.0,0.0,0.0,0.0,0.0,0.0,0.0,0.0,0.0,0.0,0.0,0.0,0.0,0.0,-1.8212,-1.8778,-1.8698,-1.8072,-1.8397,-1.8515,-1.8434,-1.8869,0.0,0.0,0.0,0.0,0.0,0.0,0.0,0.0,0.0,0.0,0.0,0.0,0.0,0.0,0.0,0.0,0.0,0.0,0.0,0.0,0.0,0.0,0.0,0.0,0.0,0.0,0.0,-2.0114,0.0,0.0,0.0,0.0,0.0,0.0,0.0,0.0,0.0,0.0,0.0,0.0,0.0,0.0,-2.6997,-2.7911,-2.8389,-2.8401,0.0,0.0,-2.6151,-2.5787,-2.6123,-2.6791,0.0,0.0,0.0,0.0,0.0,0.0,0.0,0.0,0.0,0.0,0.0,0.0,0.0,0.0,0.0,0.0,0.0,0.0,0.0,0.0,0.0,0.0,0.0,0.0,0.0,0.0,0.0,0.0,0.0,0.0,0.0,0.0,0.0,0.0,0.0,0.0,0.0,0.0,0.0,0.0,0.0,0.0,0.0,0.0,0.0,0.0,0.0,0.0,0.0,0.0,0.0,0.0,0.0,0.0,0.0,-1.8115,-1.8151,-1.8024,-1.7567,-1.7912,-1.8022,-1.7801,-1.8541,-1.9619,0.0,0.0,0.0,0.0,0.0,0.0,0.0,0.0,0.0,0.0,0.0,0.0,0.0,0.0,0.0,0.0,0.0,0.0,0.0,0.0,0.0,0.0,0.0,0.0,0.0,0.0,0.0,0.0,0.0,0.0,0.0,0.0,0.0,0.0,0.0,0.0,0.0,0.0,0.0,0.0,0.0,-2.7343,-2.8226,-2.8544,-2.8375,0.0,0.0,-2.6109,-2.5491,-2.6884,-2.8009,-2.8072,0.0,0.0,0.0,0.0,0.0,0.0,0.0,0.0,0.0,0.0,0.0,0.0,0.0,0.0,0.0,0.0,0.0,0.0,0.0,0.0,0.0,0.0,0.0,0.0,0.0,0.0,0.0,0.0,0.0,0.0,0.0,0.0,0.0,0.0,0.0,0.0,0.0,0.0,0.0,0.0,0.0,0.0,0.0,0.0,0.0,0.0,0.0,0.0,0.0,0.0,0.0,0.0,0.0,-1.8418,-1.7885,-1.8867,-1.8833,-1.7732,-1.849,-1.8713,-1.8199,-1.846,-1.9464,0.0,0.0,0.0,0.0,0.0,0.0,0.0,0.0,0.0,0.0,0.0,0.0,0.0,0.0,0.0,0.0,0.0,0.0,0.0,0.0,0.0,0.0,0.0,0.0,0.0,0.0,0.0,0.0,-2.438,-2.499,-2.4844,0.0,0.0,0.0,0.0,0.0,0.0,0.0,0.0,0.0,0.0,-2.8605,-2.9526,-3.0086,0.0,0.0,-2.8293,-2.7443,-2.7113,-2.7566,-2.8389,-2.9504,-3.0947,0.0,0.0,0.0,0.0,0.0,0.0,0.0,0.0,0.0,0.0,0.0,0.0,0.0,0.0,0.0,0.0,0.0,0.0,0.0,0.0,0.0,0.0,0.0,0.0,0.0,0.0,0.0,0.0,0.0,0.0,0.0,0.0,0.0,0.0,0.0,0.0,0.0,0.0,0.0,0.0,0.0,0.0,0.0,0.0,0.0,0.0,0.0,0.0,0.0,0.0,0.0,0.0,-1.8791,-1.8225,-1.9265,-1.9235,-1.8071,-1.8937,-1.9193,-1.8731,-1.8868,-1.9747,0.0,0.0,0.0,0.0,0.0,0.0,0.0,0.0,0.0,0.0,0.0,0.0,0.0,0.0,0.0,0.0,0.0,0.0,0.0,0.0,0.0,0.0,0.0,0.0,0.0,0.0,0.0,0.0,-2.5199,-2.5796,-2.5392,0.0,0.0,0.0,0.0,0.0,0.0,0.0,0.0,0.0,0.0,-2.9635,-3.0344,-3.1149,-3.1408,-3.062,-2.9589,-2.886,-2.8583,-2.9031,-2.9944,-3.1518,0.0,0.0,0.0,0.0,0.0,0.0,0.0,0.0,0.0,0.0,0.0,0.0,0.0,0.0,0.0,0.0,0.0,0.0,0.0,0.0,0.0,0.0,0.0,0.0,0.0,0.0,0.0,0.0,0.0,0.0,-2.3278,0.0,0.0,0.0,0.0,0.0,0.0,0.0,0.0,0.0,0.0,0.0,0.0,0.0,0.0,0.0,0.0,0.0,0.0,0.0,0.0,0.0,0.0,-1.9265,-1.9361,-1.9045,-1.8841,-1.878,-1.907,-1.9246,-1.9206,-1.9927,-2.068,-2.139,0.0,0.0,0.0,0.0,0.0,0.0,0.0,0.0,0.0,0.0,0.0,0.0,0.0,0.0,0.0,0.0,0.0,0.0,0.0,0.0,0.0,0.0,0.0,0.0,0.0,0.0,-2.4212,-2.5488,-2.6201,0.0,0.0,0.0,0.0,0.0,0.0,0.0,0.0,0.0,0.0,-2.894,-3.041,-3.0404,-3.1168,-3.1576,-3.1044,-3.053,-3.0062,-2.977,-3.1405,-3.3151,0.0,0.0,0.0,0.0,0.0,0.0,0.0,0.0,0.0,0.0,0.0,0.0,0.0,0.0,0.0,0.0,0.0,0.0,0.0,0.0,0.0,0.0,0.0,0.0,0.0,0.0,0.0,-2.1323,-2.1835,0.0,0.0,0.0,0.0,0.0,0.0,0.0,0.0,0.0,0.0,0.0,-2.439,-2.4128,0.0,0.0,0.0,0.0,0.0,0.0,0.0,0.0,0.0,0.0,0.0,0.0,-1.9517,-1.9251,-1.9615,-1.9786,-1.9607,-1.9659,-1.9839,-2.0263,-1.9966,-2.03,-2.1314,0.0,0.0,0.0,0.0,0.0,0.0,0.0,0.0,0.0,0.0,0.0,0.0,0.0,0.0,0.0,0.0,0.0,0.0,0.0,0.0,0.0,0.0,0.0,0.0,0.0,-2.4202,0.0,0.0,0.0,0.0,0.0,0.0,0.0,0.0,0.0,0.0,0.0,-2.6817,-2.7446,-2.8839,-2.9915,-3.0255,-3.1308,-3.2093,0.0,0.0,0.0,0.0,0.0,0.0,0.0,0.0,0.0,0.0,0.0,0.0,0.0,0.0,-3.7747,-3.4215,-3.3826,-3.378,-3.2773,0.0,0.0,0.0,0.0,0.0,0.0,0.0,0.0,0.0,0.0,0.0,0.0,0.0,0.0,0.0,0.0,-2.3564,0.0,0.0,0.0,0.0,0.0,0.0,0.0,0.0,-2.442,-2.4276,-2.4399,-2.428,-2.3989,0.0,-2.3504,-2.2937,0.0,0.0,0.0,0.0,0.0,0.0,0.0,0.0,-1.9639,-1.9763,-2.0,-2.0227,-2.0454,-2.0409,-2.0595,-2.106,-2.069,-2.0921,-2.1839,-2.281,-2.3286,0.0,0.0,0.0,0.0,0.0,0.0,0.0,0.0,0.0,0.0,0.0,0.0,0.0,0.0,0.0,0.0,0.0,0.0,0.0,0.0,0.0,0.0,0.0,-2.4526,0.0,0.0,0.0,0.0,0.0,0.0,0.0,0.0,0.0,-2.5598,-2.645,-2.7367,-2.8266,-2.9201,-2.9997,-3.0583,0.0,0.0,0.0,0.0,0.0,0.0,0.0,-3.5909,-3.7518,-3.8922,-4.0041,-4.0781,-4.0953,-4.095,-4.074,0.0,0.0,-3.6486,-3.6158,-3.6076,-3.5107,-3.5257,-3.534,-3.4724,-3.4513,-3.4705,0.0,0.0,0.0,0.0,0.0,0.0,0.0,0.0,-2.2742,-2.3666,0.0,-2.5022,0.0,0.0,0.0,0.0,0.0,-2.4752,0.0,0.0,-2.4,-2.3855,-2.4055,-2.44,-2.4385,-2.4024,-2.4302,-2.3856,-2.2694,-2.1341,0.0,0.0,0.0,0.0,0.0,0.0,-1.9708,-2.0893,-2.022,-2.0313,-2.1322,-2.1356,-2.1401,-2.1623,-2.2123,-2.2526,-2.2934,-2.3752,-2.406,-2.3655,-2.3205,0.0,0.0,0.0,0.0,0.0,0.0,0.0,0.0,0.0,0.0,0.0,0.0,0.0,0.0,0.0,0.0,0.0,0.0,0.0,0.0,-2.3942,0.0,0.0,0.0,0.0,0.0,0.0,0.0,0.0,0.0,0.0,-2.6673,-2.7354,-2.8186,-2.9267,0.0,0.0,0.0,0.0,-3.3015,-3.3984,-3.412,-3.4397,-3.5232,-3.6279,-3.7531,-3.9227,0.0,0.0,-4.2362,-4.1894,-4.1175,-4.0265,-4.0283,-4.0226,-4.0001,-3.9245,-3.8527,-3.7687,-3.6996,-3.6517,-3.65,-3.6141,-3.5929,-2.3025,0.0,0.0,0.0,0.0,-2.3214,-2.3324,-2.3415,-2.3768,-2.4201,-2.4742,-2.5593,0.0,0.0,0.0,0.0,0.0,0.0,-2.4239,-2.4152,-2.3814,-2.3806,-2.4066,-2.4184,-2.4245,-2.4234,-2.4067,-2.3791,-2.331,-2.2155,-2.1204,-2.0425,0.0,0.0,0.0,0.0,-2.0472,-2.0611,-2.1226,-2.1823,-2.23,-2.2066,-2.2034,-2.2324,-2.2572,-2.2889,-2.3098,-2.3537,-2.3987,-2.4413,-2.4063,0.0,0.0,0.0,0.0,0.0,0.0,0.0,0.0,0.0,0.0,0.0,0.0,0.0,0.0,0.0,0.0,0.0,0.0,0.0,-2.5007,-2.5105,-2.5188,0.0,0.0,0.0,0.0,0.0,0.0,0.0,0.0,0.0,-2.7771,-2.7984,-2.845,0.0,0.0,-3.0807,-3.1556,-3.2046,-3.3071,-3.4809,-3.4457,0.0,0.0,-3.6853,-3.7268,-3.8459,-4.0264,-4.1821,-4.2614,-4.2631,-4.2318,-4.1614,-4.1603,-4.1553,-4.0941,-4.0295,-3.9483,-3.8633,-3.877,-3.8933,-3.847,-3.8229,-3.8209,-2.3935,-2.4525,-2.3813,-2.3792,-2.4242,-2.4393,-2.4606,-2.4816,-2.505,-2.523,-2.5364,-2.585,-2.6075,-2.6103,-2.5808,0.0,0.0,0.0,-2.4223,-2.4189,-2.3955,-2.4017,-2.4312,-2.443,-2.441,-2.4302,-2.4162,-2.3909,-2.3465,-2.2964,-2.217,-2.1167,0.0,0.0,-1.9835,-2.0611,-2.1123,-2.1325,-2.199,-2.257,-2.3054,-2.2754,-2.2737,-2.2873,-2.2949,-2.3157,-2.3508,-2.3767,-2.4204,-2.4878,-2.4575,-2.4349,0.0,0.0,0.0,0.0,0.0,0.0,0.0,0.0,0.0,0.0,0.0,-2.2946,-2.3197,0.0,0.0,0.0,-2.4546,-2.5227,-2.5298,-2.5326,0.0,0.0,0.0,0.0,0.0,0.0,0.0,-2.6818,-2.7536,-2.8132,-2.8542,-2.8803,-2.9169,-3.0019,-3.0397,-3.1005,-3.2313,0.0,-3.3533,-3.5295,-3.4923,-3.4894,-3.6178,-3.6506,-3.7003,-3.8456,-4.0088,-4.1351,-4.1794,-4.2449,-4.2432,-4.1376,-4.1334,-4.1272,-4.0221,-3.9724,-3.9503,-3.9338,-3.9483,-3.9526,-3.9175,-3.9184,-3.9268,-2.4696,-2.6269,-2.5017,-2.4689,-2.5003,-2.5447,-2.5848,-2.6068,-2.645,-2.6525,-2.6433,-2.5965,-2.6184,-2.6775,-2.5964,0.0,-2.4726,-2.4287,-2.4245,-2.4498,-2.4343,-2.4426,-2.4623,-2.4974,-2.4871,-2.4343,-2.4508,-2.4177,-2.3407,-2.3653,-2.331,-2.2418,-2.1551,-2.1216,-2.137,-2.1321,-2.1753,-2.2652,-2.2609,-2.2876,-2.358,-2.3436,-2.3334,-2.3363,-2.3275,-2.348,-2.4067,-2.4313,-2.467,-2.5076,-2.4857,-2.4794,-2.4933,0.0,0.0,0.0,0.0,0.0,0.0,0.0,0.0,0.0,0.0,0.0,0.0,0.0,0.0,0.0,-2.5312,0.0,-2.5017,-2.5026,0.0,0.0,0.0,-2.5981,-2.6464,-2.7045,-2.7612,-2.8132,0.0,0.0,-2.9093,-2.9574,-3.0185,-3.1096,-3.0867,-3.1433,-3.3448,-3.3665,-3.4144,-3.5567,-3.5307,-3.497,-3.5065,-3.5559,-3.6588,-3.8443,-4.0023,-4.0485,-4.0362,-4.1375,-4.143,-3.9571,-3.9822,-3.9908,-3.8383,-3.8172,-3.8546,-3.949,-3.9195,-3.877,-3.898,-3.8971,-3.885,-2.4495,-2.6202,-2.6855,-2.7117,-2.7173,-2.6956,-2.7155,-2.7514,-2.6926,-2.7113,-2.7777,-2.6796,-2.5986,-2.5364,-2.5877,-2.5441,-2.4245,-2.4162,-2.4261,-2.4498,-2.4457,-2.4508,-2.4623,-2.5013,-2.5029,-2.4695,-2.463,-2.4343,-2.3839,-2.3711,-2.352,-2.3284,-2.3193,-2.2527,-2.1484,-2.2269,-2.2722,-2.272,-2.3432,-2.3749,-2.3739,-2.361,-2.361,-2.3855,-2.3867,-2.412,-2.4574,-2.4815,-2.5013,-2.5262,-2.5631,-2.5766,-2.5671,-2.5781,0.0,0.0,0.0,0.0,0.0,0.0,0.0,0.0,0.0,-2.4445,-2.4051,0.0,-2.5069,0.0,-2.5312,-2.5869,-2.6273,-2.5964,0.0,0.0,-2.6456,-2.6792,-2.7379,-2.798,-2.8386,-2.833,-2.9083,-2.9619,-2.9623,-3.0205,-3.0858,-3.166,-3.213,-3.283,-3.3928,-3.3758,-3.419,-3.555,-3.448,-3.3743,-3.4983,-3.5182,-3.5577,-3.6978,-3.7696,-3.8121,-3.842,-3.9358,-3.9682,-3.851,-3.8259,-3.7989,-3.7277,-3.6808,-3.6619,-3.6966,-3.7404,-3.79,-3.8199,-3.771,-3.7202,-2.437,-2.5993,-2.6764,-2.7354,-2.7808,-2.8194,-2.8222,-2.7995,-2.7582,-2.7465,-2.7533,-2.6922,-2.598,-2.497,-2.5586,-2.5216,-2.4067,-2.4094,-2.4317,-2.4605,-2.4539,-2.4686,-2.4958,-2.5107,-2.487,-2.4414,-2.4217,-2.3782,-2.3102,-2.3031,-2.2934,-2.2825,-2.3457,-2.3325,-2.2415,-2.3229,-2.3672,-2.3636,-2.4107,-2.4276,-2.4214,-2.409,-2.4173,-2.4436,-2.4436,-2.4664,-2.5114,-2.5214,-2.5384,-2.5696,-2.6013,-2.6139,-2.595,-2.6245,-2.6279,0.0,0.0,0.0,0.0,0.0,0.0,0.0,0.0,0.0,0.0,0.0,-2.5497,-2.5452,-2.5683,-2.6089,-2.6523,-2.62,-2.6089,-2.6371,-2.6905,-2.7383,-2.7734,-2.8563,-2.9083,-2.9144,-2.97,-3.0097,-3.019,-3.0553,-3.1057,-3.1649,-3.2437,-3.3275,-3.3875,-3.3878,-3.4258,-3.5232,-3.4318,-3.3665,-3.4635,-3.4146,-3.4202,-3.539,-3.5756,-3.6085,-3.6843,-3.7547,-3.7749,-3.7069,-3.6822,-3.6684,-3.6231,-3.5945,-3.5851,-3.6407,-3.6358,-3.6523,-3.7173,-3.6814,-3.6371,-2.4165,-2.5772,-2.5946,-2.664,-2.7636,-2.8929,-2.8893,-2.7842,-2.7933,-2.7342,-2.6381,-2.6549,-2.5892,-2.4774,-2.5098,-2.482,-2.4024,-2.4166,-2.4482,-2.4855,-2.4686,-2.4839,-2.5211,-2.5019,-2.4499,-2.3796,-2.3575,-2.2972,-2.1979,-2.2171,-2.2179,-2.2037,-2.3204,-2.3795,-2.3748,-2.4091,-2.4451,-2.4815,-2.4645,-2.4614,-2.4752,-2.4688,-2.4784,-2.5028,-2.5059,-2.516,-2.554,-2.5631,-2.5795,-2.6168,-2.6241,-2.6208,-2.6016,-2.6013,-2.5921,0.0,-2.5438,0.0,0.0,0.0,0.0,0.0,0.0,0.0,0.0,-2.5185,-2.5669,-2.6232,-2.6144,-2.609,-2.6222,-2.609,-2.6054,-2.6089,-2.7116,-2.7849,-2.7975,-2.9036,-2.9851,-3.0111,-3.0233,-3.0401,-3.0628,-3.0911,-3.1204,-3.1526,-3.2251,-3.3029,-3.3678,-3.3935,-3.4235,-3.4531,-3.4469,-3.4131,-3.367,-3.2993,-3.293,-3.4055,-3.422,-3.4376,-3.5351,-3.5891,-3.5994,-3.5496,-3.5387,-3.5381,-3.5221,-3.5157,-3.5443,-3.6261,-3.5412,-3.5027,-3.6122,-3.6011,-3.5831,-2.3756,-2.5821,-2.6043,-2.6713,-2.7619,-2.8148,-2.8035,-2.7363,-2.65,-2.5517,-2.4677,-2.5693,-2.5077,-2.3466,-2.4535,-2.4633,-2.3952,-2.4276,-2.4726,-2.5201,-2.5178,-2.4914,-2.4447,-2.4484,-2.4026,-2.3195,-2.298,-2.2605,-2.2126,-2.2141,-2.2432,-2.3023,-2.3599,-2.429,-2.4984,0.0,0.0,0.0,-2.4895,-2.4918,-2.5114,-2.5005,-2.5082,-2.5476,-2.5572,0.0,-2.5885,-2.617,-2.6277,-2.6206,-2.6504,0.0,0.0,0.0,0.0,0.0,0.0,0.0,0.0,0.0,0.0,0.0,-2.5879,-2.6129,-2.5261,-2.5894,-2.6335,-2.6228,-2.6083,-2.593,-2.5724,-2.5687,-2.5983,-2.6707,-2.747,-2.8165,-2.8675,-2.9686,-3.0401,-3.0266,-3.0837,-3.1131,-3.0911,-3.1452,-3.1838,-3.189,-3.2185,-3.2548,-3.302,-3.346,-3.3986,-3.445,-3.4379,-3.3834,-3.273,-3.2612,-3.2558,-3.303,-3.3161,-3.3294,-3.3644,-3.4303,-3.4672,-3.4174,-3.386,-3.3789,-3.4039,-3.3641,-3.3455,-3.3687,-3.3615,-3.3979,-3.5816,-3.5052,-3.4032,-2.2761,0.0,-2.4885,-2.5551,0.0,-2.6351,-2.6486,-2.6472,-2.6134,-2.5502,-2.4717,-2.486,-2.4443,-2.3747,-2.4381,-2.4316,-2.3784,-2.4276,-2.467,-2.4895,-2.4602,-2.4369,-2.4169,-2.3959,-2.3414,-2.2671,-2.2394,-2.1976,-2.1506,-2.1378,-2.1609,-2.2248,-2.3159,-2.375,-2.4026,-2.3983,-2.3999,-2.4111,-2.4169,-2.4354,-2.4626,-2.4466,-2.4753,-2.5556,0.0,0.0,0.0,0.0,0.0,0.0,0.0,0.0,0.0,0.0,0.0,-2.553,-2.5301,-2.4965,-2.4657,-2.5098,-2.5349,-2.5179,-2.6428,-2.6957,-2.644,-2.6783,-2.6835,-2.6367,-2.6159,-2.5877,-2.5436,-2.5243,-2.5414,-2.624,-2.6732,-2.7343,-2.8083,-2.9001,-2.9624,-2.9726,-3.0184,-3.0522,-3.0537,-3.0815,-3.1119,-3.1282,-3.1374,-3.1619,-3.2081,-3.281,-3.3441,-3.3777,-3.352,-3.3003,-3.2325,-3.1686,-3.1677,-3.1917,-3.1709,-3.1824,-3.2541,-3.2523,-3.2504,-3.2754,-3.2555,-3.2392,-3.2792,-3.2649,-3.2694,-3.328,-3.3184,-3.3432,-3.4854,-3.422,-3.3382,-2.2043,-2.233,-2.3664,-2.4313,-2.4477,-2.4662,-2.493,-2.5221,0.0,0.0,0.0,-2.4107,-2.3965,-2.4298,-2.4253,-2.404,-2.3829,-2.4333,-2.4589,-2.4542,-2.4006,-2.3806,-2.3941,-2.3327,-2.2673,-2.2016,-2.1732,-2.1329,-2.0793,-2.072,-2.0926,-2.143,-2.2662,-2.3109,-2.2746,-2.3418,-2.347,-2.2884,-2.3351,-2.3786,-2.4114,-2.3918,-2.4381,-2.5559,-2.5446,-2.5782,-2.6708,-2.6657,-2.6708,-2.6893,-2.6759,-2.6538,-2.6241,-2.6225,-2.6046,-2.5605,-2.5416,-2.5137,-2.4792,-2.5264,-2.561,-2.5595,-2.6763,-2.7532,-2.773,-2.764,-2.7255,-2.6583,-2.6391,-2.6086,-2.5505,-2.5107,-2.5112,-2.5662,-2.606,-2.6554,-2.7273,-2.8115,-2.8899,-2.9163,-2.9594,-2.9818,-3.0054,-3.0212,-3.0293,-3.0479,-3.0675,-3.0772,-3.12,-3.2049,-3.2635,-3.2672,-3.242,-3.2029,-3.1593,-3.1114,-3.0672,-3.1086,-3.0475,-3.0376,-3.1414,-3.1227,-3.1041,-3.1837,-3.1608,-3.1648,-3.193,-3.2161,-3.2615,-3.3557,-3.3235,-3.2968,-3.363,-3.3512,-3.3194,-2.225,-2.3012,-2.361,-2.4239,-2.473,-2.4354,-2.3958,-2.3672,-2.4265,-2.4099,-2.3391,-2.357,-2.3599,-2.3584,-2.3769,-2.4078,-2.4451,-2.4508,-2.4661,0.0,-2.4207,-2.3575,-2.3063,-2.2433,-2.1666,-2.0982,-2.0868,-2.0821,-2.0789,-2.1205,-2.1584,-2.1881,-2.2852,-2.3124,-2.2736,-2.3604,-2.3371,-2.1903,-2.3258,-2.4081,-2.4193,-2.4275,-2.4691,-2.5478,-2.5527,-2.5964,-2.6842,-2.6759,-2.6742,-2.6876,-2.6708,-2.6486,-2.6206,-2.6063,-2.5807,-2.5454,-2.5262,-2.5059,-2.4909,-2.5535,-2.6403,-2.7402,-2.7715,-2.7938,-2.8222,-2.8137,-2.7799,-2.7159,-2.6844,-2.6636,-2.6404,-2.6066,-2.5918,-2.6094,-2.6616,-2.7041,-2.7314,-2.8293,-2.9154,-2.9622,-3.0278,-3.0387,-3.0207,-3.0392,-3.0545,-3.0709,-3.0538,-3.081,-3.1029,-3.1415,-3.1557,-3.1507,-3.1626,-3.1244,-3.0684,-3.072,-3.0655,-3.0482,-3.0112,-3.0141,-3.1254,-3.1461,-3.1391,-3.145,-3.1492,-3.1617,-3.1841,-3.202,-3.2231,-3.2599,-3.2493,-3.2578,-3.2938,-3.293,-3.2955,-2.1295,-2.1663,-2.2439,-2.2936,-2.3313,-2.3489,-2.3371,-2.3123,-2.3522,-2.351,-2.3231,-2.3566,-2.3696,-2.3638,-2.4063,-2.4056,-2.3758,-2.3989,-2.3795,-2.3204,-2.2667,-2.229,-2.1947,-2.1311,-2.0978,-2.0907,-2.0677,-2.0662,-2.0857,-2.1368,-2.1628,-2.1659,-2.2277,-2.2619,-2.278,-2.2989,-2.2761,-2.207,-2.2642,-2.3036,-2.3232,-2.3156,-2.36,-2.4496,-2.4965,-2.5593,-2.6375,-2.6736,-2.694,-2.7023,-2.6876,-2.6674,-2.6314,-2.6314,-2.6137,-2.5754,-2.5696,-2.5642,-2.5449,-2.5902,-2.6592,-2.751,-2.7545,-2.7523,-2.7626,-2.817,-2.8199,-2.7395,-2.7162,-2.6915,-2.6455,-2.6144,-2.6183,-2.6654,-2.6856,-2.7106,-2.7585,-2.8252,-2.8817,-2.9108,-2.9469,-2.9681,-2.9518,-2.965,-2.9781,-2.9765,-2.9893,-3.0053,-3.018,-3.0291,-3.0624,-3.1051,-3.107,-3.0784,-3.0212,-3.0177,-3.0202,-3.0057,-2.9878,-3.0036,-3.0609,-3.0889,-3.1016,-3.1069,-3.1247,-3.1445,-3.1654,-3.1912,-3.2073,-3.2196,-3.2319,-3.2422,-3.2523,-3.2758,-3.2938,-2.0405,-2.0389,-2.1288,-2.1807,-2.1925,-2.2691,-2.2923,-2.2783,-2.3187,-2.3363,-2.3451,-2.3696,-2.3824,-2.3909,-2.4313,-2.4141,-2.3582,-2.3647,-2.3142,-2.2102,-2.143,-2.1078,-2.0929,-2.0395,-2.0361,-2.0662,-2.0494,-2.0545,-2.0842,-2.1403,-2.1678,-2.1608,-2.1998,-2.236,-2.264,-2.255,-2.2451,-2.2422,-2.2243,-2.2271,-2.2432,-2.2298,-2.2694,-2.3687,-2.4362,-2.5062,-2.5773,-2.631,-2.6605,-2.6639,-2.6559,-2.6366,-2.6017,-2.6151,-2.6135,-2.5889,-2.5917,-2.5944,-2.586,-2.6025,-2.6446,-2.7115,-2.7021,-2.6968,-2.7178,-2.7929,-2.8232,-2.7643,-2.7489,-2.7288,-2.6934,-2.6611,-2.6656,-2.7178,-2.7099,-2.7187,-2.774,-2.8119,-2.8338,-2.8479,-2.8732,-2.8905,-2.8873,-2.8889,-2.9014,-2.9092,-2.9167,-2.9257,-2.9159,-2.9217,-2.9621,-3.0021,-3.0258,-3.0302,-3.01,-2.9932,-2.9879,-2.9897,-3.0092,-3.0222,-3.0384,-3.041,-3.0543,-3.0938,-3.1145,-3.1346,-3.1521,-3.1802,-3.2037,-3.2108,-3.2232,-3.2371,-3.2574,-3.2787,-3.314,-2.0321,-2.0632,-2.0994,-2.1277,-2.1498,-2.2378,-2.2588,-2.2385,-2.3142,-2.3581,-2.3696,-2.3782,-2.3894,-2.4078,-2.4147,-2.444,-2.4775,-2.3959,-2.3406,-2.3065,-2.1622,-2.0655,-2.0306,-1.9827,-1.9566,-1.966,-1.9975,-2.03,-2.0537,-2.1315,-2.1853,-2.2175,-2.2838,-2.2687,-2.2096,-2.2815,-2.2971,-2.2415,-2.2615,-2.2685,-2.2596,-2.2552,-2.2949,-2.377,-2.3994,-2.442,-2.5196,-2.5114,-2.5158,-2.5185,-2.518,-2.4974,-2.4749,-2.4814,-2.5038,-2.5347,-2.5287,-2.5353,-2.5689,-2.567,-2.596,-2.6471,-2.6446,-2.6686,-2.7329,-2.7486,-2.7656,-2.774,-2.7839,-2.7874,-2.8279,-2.82,-2.7922,-2.7612,-2.7566,-2.7489,-2.7782,-2.7842,-2.8168,-2.8795,-2.8904,-2.9091,-2.8966,-2.9044,-2.9106,-2.9102,-2.9162,-2.9016,-2.861,-2.8574,-2.8339,-2.8081,-2.8714,-2.9677,-2.9685,-2.9935,-3.0097,-3.0225,-3.0659,-3.0842,-3.0824,-3.0918,-3.1128,-3.1145,-3.1286,-3.1462,-3.1596,-3.1802,-3.1948,-3.2055,-3.2179,-3.2371,-3.2657,-3.2948,-3.3391,-1.9767,-2.028,-2.0345,-2.0771,-2.1492,-2.1825,-2.2124,-2.2342,-2.2497,-2.295,-2.3593,-2.3682,-2.3933,-2.4359,-2.4655,-2.4579,-2.4147,-2.3441,-2.2901,-2.2462,-2.1128,-2.0495,-2.0466,-1.9885,-1.9654,-1.9765,-2.0027,-2.0317,-2.0742,-2.1168,-2.176,-2.2311,-2.2139,-2.1795,-2.1575,-2.2283,-2.2626,-2.2525,-2.2738,-2.2868,-2.2876,-2.2764,-2.292,-2.3319,-2.3885,-2.4506,-2.5195,-2.531,-2.5481,-2.582,-2.5477,-2.516,-2.4918,-2.4981,-2.5202,-2.5637,-2.5883,-2.6097,-2.6243,-2.603,-2.6032,-2.6377,-2.6097,-2.6124,-2.6552,-2.6547,-2.6687,-2.7086,-2.737,-2.7734,-2.8243,-2.8353,-2.8385,-2.8586,-2.874,-2.8754,-2.874,-2.8876,-2.8936,-2.8629,-2.8566,-2.8627,-2.8706,-2.9037,-2.9143,-2.8901,-2.8758,-2.8531,-2.8009,-2.7881,-2.771,-2.7518,-2.8072,-2.8539,-2.8957,-2.9697,-3.0201,-3.051,-3.0676,-3.0775,-3.1083,-3.1072,-3.1151,-3.1397,-3.1457,-3.1593,-3.1688,-3.1893,-3.2037,-3.2144,-3.2404,-3.2705,-3.2961,-3.3165,-3.3683,-1.9112,-1.9792,-2.0001,-2.066,-2.1568,-2.165,-2.2016,-2.2455,-2.2265,-2.261,-2.3308,-2.3293,-2.3538,-2.4044,-2.49,-2.471,-2.3685,-2.3201,-2.265,-2.1973,-2.082,-2.034,-2.0442,-1.9919,-1.9666,-1.9775,-2.0062,-2.0419,-2.085,-2.136,-2.1734,-2.1905,-2.1528,-2.1472,-2.1725,-2.2099,-2.2477,-2.2944,-2.2998,-2.307,-2.3119,-2.3045,-2.2995,-2.314,-2.3907,-2.467,-2.52,-2.5508,-2.5755,-2.5985,-2.5544,-2.5085,-2.4655,-2.4672,-2.4962,-2.5609,-2.6347,-2.6725,-2.6657,-2.6401,-2.6262,-2.6329,-2.603,-2.598,-2.611,-2.6052,-2.6131,-2.6472,-2.6751,-2.716,-2.7869,-2.804,-2.8339,-2.8922,-2.9074,-2.9106,-2.8974,-2.9079,-2.879,-2.8188,-2.8033,-2.8156,-2.8407,-2.8834,-2.8974,-2.8661,-2.8297,-2.7913,-2.7345,-2.721,-2.7203,-2.7066,-2.7227,-2.7818,-2.8479,-2.9352,-3.0154,-3.0699,-3.0831,-3.0952,-3.123,-3.119,-3.1213,-3.1572,-3.1555,-3.1688,-3.1929,-3.2108,-3.2231,-3.2438,-3.2669,-3.297,-3.3178,-3.3345,-3.3709,-1.8595,-1.938,-2.0295,-2.1006,-2.1458,-2.2109,-2.2603,-2.2728,-2.2693,-2.2817,-2.295,-2.2593,-2.2492,-2.2889,-2.4628,-2.4965,-2.3984,-2.3355,-2.2909,-2.2399,-2.0926,-2.0115,-1.9972,-1.9602,-1.9309,-1.9226,-1.987,-2.0386,-2.0722,-2.178,-2.1766,-2.0662,-2.1545,-2.2281,-2.2516,-2.2382,-2.2826,-2.3605,-2.3443,-2.3289,-2.3313,-2.3336,-2.3313,-2.3336,-2.4129,-2.4652,-2.4855,-2.5468,-2.5546,-2.4836,-2.4825,-2.4349,-2.3389,-2.3424,-2.4013,-2.5,-2.625,-2.6942,-2.6791,-2.6657,-2.6556,-2.6505,-2.6401,-2.6418,-2.647,-2.6365,-2.6274,-2.6343,-2.6224,-2.6515,-2.7258,-2.7582,-2.772,-2.7766,-2.7807,-2.7895,-2.786,-2.7949,-2.7624,-2.754,-2.7476,-2.7646,-2.8383,-2.849,-2.8544,-2.8404,-2.8017,-2.7249,-2.6623,-2.659,-2.6403,-2.6096,-2.6477,-2.7553,-2.8722,-2.9263,-2.9932,-3.0421,-3.0644,-3.1155,-3.1351,-3.1517,-3.1579,-3.1688,-3.1726,-3.1893,-3.2197,-3.2385,-3.2482,-3.2642,-3.2796,-3.3039,-3.3107,-3.3411,-3.3661,-1.8614,-1.9552,-2.0396,-2.0957,-2.1326,-2.1921,-2.2175,-2.2149,-2.199,-2.2114,-2.2378,-2.2175,-2.229,-2.267,-2.3929,-2.4116,-2.3419,-2.2921,-2.2772,-2.2726,-2.1445,-2.0734,-2.0617,-2.0182,-1.9692,-1.9397,-1.9894,-2.0655,-2.1409,-2.1613,-2.1554,-2.1405,-2.147,-2.1729,-2.2068,-2.2231,-2.2664,-2.325,-2.3342,-2.3445,-2.3513,-2.3667,-2.3747,-2.366,-2.3907,-2.4549,-2.55,-2.4987,-2.4892,-2.5559,-2.4707,-2.3952,-2.3638,-2.4343,-2.4933,-2.5372,-2.6655,-2.7338,-2.7085,-2.6956,-2.6858,-2.6775,-2.6657,-2.6607,-2.6589,-2.6606,-2.6555,-2.6365,-2.6279,-2.6449,-2.6627,-2.706,-2.7457,-2.7753,-2.7907,-2.7923,-2.794,-2.7916,-2.7696,-2.7082,-2.6856,-2.6985,-2.7331,-2.7637,-2.7775,-2.7356,-2.7066,-2.6535,-2.5894,-2.5725,-2.5667,-2.5468,-2.5641,-2.6286,-2.7641,-2.8495,-2.9202,-2.9563,-2.9864,-3.0245,-3.0523,-3.0805,-3.0862,-3.1595,-3.1735,-3.2003,-3.223,-3.2178,-3.2384,-3.2487,-3.2647,-3.2682,-3.2903,-3.2993,-3.3081,-1.8773,-1.9458,-2.0124,-2.0691,-2.1097,-2.1296,-2.1589,-2.1744,-2.1359,-2.1422,-2.1772,-2.1686,-2.1774,-2.2134,-2.275,-2.2866,-2.2531,-2.2458,-2.2554,-2.2598,-2.1577,-2.1055,-2.1005,-2.049,-2.0013,-1.976,-2.0213,-2.0917,-2.1485,-2.1338,-2.1306,-2.1408,-2.1295,-2.1533,-2.2002,-2.2299,-2.2659,-2.3222,-2.3506,-2.3649,-2.3732,-2.3917,-2.3996,-2.3937,-2.3873,-2.4447,-2.5751,-2.5117,-2.5023,-2.5597,-2.4853,-2.4145,-2.3902,-2.4754,-2.5468,-2.5702,-2.6651,-2.732,-2.7321,-2.7181,-2.7087,-2.6975,-2.6892,-2.6825,-2.6775,-2.6876,-2.6792,-2.6607,-2.6538,-2.6504,-2.6465,-2.6726,-2.7098,-2.7415,-2.7569,-2.7623,-2.7547,-2.7552,-2.7191,-2.6635,-2.6633,-2.6691,-2.674,-2.7208,-2.7225,-2.6685,-2.649,-2.6008,-2.5484,-2.5394,-2.5378,-2.5432,-2.5546,-2.602,-2.6846,-2.7604,-2.8558,-2.8996,-2.9276,-2.9587,-2.9829,-3.0072,-3.0524,-3.1271,-3.1777,-3.2039,-3.2117,-3.2068,-3.208,-3.2162,-3.2101,-3.2082,-3.2239,-3.236,-3.2379,-1.8922,-1.8958,-1.9471,-2.0127,-2.0722,-2.0517,-2.0983,-2.1639,-2.1045,-2.097,-2.1317,-2.1041,-2.1018,-2.1069,-2.1408,-2.1375,-2.1584,-2.2134,-2.2248,-2.1897,-2.1225,-2.0986,-2.1168,-2.0447,-2.0081,-2.0005,-2.0731,-2.0968,-2.0886,-2.1255,-2.1186,-2.0821,-2.1247,-2.1849,-2.276,-2.2671,-2.3085,-2.3759,-2.3862,-2.3837,-2.3917,-2.4056,-2.4095,-2.4056,-2.4133,-2.4557,-2.5384,-2.5931,-2.5855,-2.5474,-2.5309,-2.4862,-2.4034,-2.4469,-2.5046,-2.5643,-2.6241,-2.683,-2.7382,-2.7206,-2.6982,-2.7038,-2.7038,-2.7055,-2.6989,-2.7021,-2.7021,-2.6925,-2.6909,-2.6809,-2.664,-2.6691,-2.6707,-2.6415,-2.6614,-2.6683,-2.6599,-2.6447,-2.6258,-2.6211,-2.6545,-2.701,-2.7043,-2.6951,-2.688,-2.6673,-2.626,-2.5826,-2.5464,-2.5546,-2.5717,-2.5738,-2.5775,-2.6089,-2.6395,-2.6741,-2.7758,-2.8612,-2.8836,-2.9111,-2.9369,-2.9626,-2.997,-3.0626,-3.1173,-3.1491,-3.1823,-3.1775,-3.1787,-3.1829,-3.1644,-3.1583,-3.1838,-3.1955,-3.1579,-1.8483,-1.8382,-1.8579,-1.9153,-1.9948,-2.0342,-2.0625,-2.0706,-2.082,-2.0849,-2.0748,-2.0823,-2.0942,-2.1039,-2.1246,-2.1433,-2.1573,-2.1878,-2.1853,-2.1552,-2.1295,-2.1053,-2.078,-2.045,-2.0289,-2.0339,-2.0767,-2.1079,-2.1178,-2.1277,-2.1344,-2.1464,-2.1688,-2.2041,-2.2437,-2.2798,-2.3193,-2.3481,-2.3858,-2.4019,-2.4058,-2.4266,-2.4356,-2.4356,-2.4393,-2.4542,-2.4781,-2.4912,-2.515,-2.5409,-2.4892,-2.4372,-2.4158,-2.4577,-2.4987,-2.5082,-2.5559,-2.6114,-2.6556,-2.6519,-2.6524,-2.6787,-2.7006,-2.7038,-2.6956,-2.7181,-2.7261,-2.7103,-2.7087,-2.7055,-2.6909,-2.6909,-2.6775,-2.6468,-2.6485,-2.652,-2.652,-2.6434,-2.6295,-2.6241,-2.6297,-2.6356,-2.6336,-2.6299,-2.6237,-2.614,-2.5805,-2.5546,-2.5416,-2.5443,-2.56,-2.568,-2.5864,-2.5986,-2.6284,-2.6505,-2.7129,-2.7842,-2.8147,-2.8539,-2.8828,-2.9047,-2.9435,-3.0043,-3.0574,-3.1005,-3.1373,-3.1353,-3.1275,-3.1346,-3.1224,-3.1352,-3.163,-3.1426,-3.0956,-1.8263,-1.8646,-1.8772,-1.9298,-2.0124,-2.0628,-2.0744,-2.0641,-2.1022,-2.1011,-2.0823,-2.1055,-2.1214,-2.1356,-2.1495,-2.1617,-2.1754,-2.1869,-2.1794,-2.1554,-2.1415,-2.1166,-2.0845,-2.0646,-2.0613,-2.073,-2.0974,-2.1182,-2.1432,-2.137,-2.1524,-2.1869,-2.201,-2.2198,-2.2436,-2.2884,-2.3217,-2.3365,-2.3876,-2.432,-2.4542,-2.4558,-2.4678,-2.4923,-2.4981,-2.4963,-2.4926,-2.4874,-2.4912,-2.5005,-2.4543,-2.4172,-2.4032,-2.4429,-2.4722,-2.4813,-2.5042,-2.5509,-2.6167,-2.6161,-2.6236,-2.6737,-2.7006,-2.7103,-2.7103,-2.7355,-2.7386,-2.7293,-2.723,-2.7166,-2.7072,-2.7007,-2.6893,-2.6708,-2.6691,-2.6691,-2.6674,-2.6589,-2.6555,-2.6521,-2.645,-2.6312,-2.6118,-2.603,-2.5885,-2.577,-2.5733,-2.5484,-2.5329,-2.5183,-2.531,-2.534,-2.517,-2.5496,-2.6084,-2.635,-2.659,-2.7006,-2.7355,-2.7799,-2.8188,-2.8382,-2.8662,-2.9639,-3.0349,-3.0841,-3.1191,-3.0586,-3.0329,-3.0516,-3.0757,-3.0668,-3.0678,-3.0559,-3.0198,-1.8276,-1.949,-1.9877,-2.0386,-2.0943,-2.0897,-2.1057,-2.1443,-2.1414,-2.1316,-2.1295,-2.1433,-2.1587,-2.1708,-2.1781,-2.1869,-2.1899,-2.2073,-2.2113,-2.1924,-2.1639,-2.1381,-2.123,-2.1039,-2.1055,-2.115,-2.1294,-2.1386,-2.1645,-2.1601,-2.1645,-2.2056,-2.2338,-2.2449,-2.2859,-2.319,-2.3531,-2.3687,-2.4164,-2.4783,-2.5262,-2.5,-2.5011,-2.5686,-2.5687,-2.5689,-2.5746,-2.5764,-2.5409,-2.4628,-2.445,-2.4337,-2.4087,-2.4089,-2.4475,-2.4879,-2.4693,-2.5323,-2.605,-2.5984,-2.6213,-2.6982,-2.6928,-2.7115,-2.7134,-2.727,-2.736,-2.7304,-2.7286,-2.7213,-2.7166,-2.7087,-2.7057,-2.6942,-2.6942,-2.6975,-2.7007,-2.6975,-2.6942,-2.6876,-2.6893,-2.6775,-2.6349,-2.6282,-2.6077,-2.5936,-2.5851,-2.5421,-2.5142,-2.4909,-2.4978,-2.4896,-2.4795,-2.5073,-2.5681,-2.5853,-2.6117,-2.6795,-2.7058,-2.7414,-2.7889,-2.8111,-2.8244,-2.9193,-2.9926,-3.0496,-3.0577,-2.9904,-2.9817,-3.0209,-3.0155,-2.9834,-2.9876,-3.0076,-2.9959,-1.8801,-1.937,-2.0941,-2.135,-2.094,-2.0644,-2.0872,-2.1289,-2.1298,-2.1344,-2.1356,-2.1617,-2.1797,-2.1869,-2.2027,-2.2215,-2.2371,-2.2426,-2.2535,-2.25,-2.2194,-2.1824,-2.1584,-2.1615,-2.1598,-2.1584,-2.1784,-2.202,-2.2231,-2.2175,-2.2326,-2.2632,-2.3319,-2.3771,-2.3952,-2.4236,-2.4469,-2.4491,-2.4959,-2.4986,-2.4875,-2.5385,-2.5641,-2.5687,-2.5781,-2.6005,-2.6392,-2.6505,-2.582,-2.4542,-2.4874,-2.5012,-2.4808,-2.4784,-2.4982,-2.5327,-2.5422,-2.5658,-2.6191,-2.5785,-2.5996,-2.7047,-2.6432,-2.604,-2.6484,-2.6876,-2.6951,-2.6941,-2.7185,-2.7522,-2.7448,-2.7404,-2.7341,-2.731,-2.7198,-2.712,-2.712,-2.712,-2.712,-2.7007,-2.6992,-2.6859,-2.6522,-2.6101,-2.5682,-2.5463,-2.5163,-2.4812,-2.4625,-2.454,-2.4572,-2.4774,-2.4791,-2.4974,-2.519,-2.534,-2.5771,-2.6563,-2.6992,-2.7268,-2.7822,-2.8307,-2.8416,-2.8819,-2.9184,-2.9712,-2.9493,-2.9028,-2.9418,-2.9923,-3.0005,-2.9961,-3.0296,-3.0514,-3.0166,-1.8923,-1.9436,-2.1008,-2.1426,-2.119,-2.1248,-2.1439,-2.166,-2.1859,-2.1833,-2.1804,-2.1991,-2.2101,-2.2158,-2.2364,-2.2527,-2.2712,-2.2685,-2.2729,-2.2694,-2.2512,-2.219,-2.1836,-2.1857,-2.1836,-2.2027,-2.2147,-2.236,-2.2561,-2.2642,-2.2756,-2.3063,-2.3684,-2.4035,-2.4034,-2.4374,-2.4544,-2.4532,-2.491,-2.5096,-2.5486,-2.5772,-2.6314,-2.6544,-2.673,-2.6952,-2.7182,-2.753,-2.6977,-2.5816,-2.5721,-2.5839,-2.5648,-2.5583,-2.5538,-2.5457,-2.5504,-2.5808,-2.592,-2.5471,-2.5733,-2.658,-2.5995,-2.5935,-2.6412,-2.68,-2.688,-2.73,-2.7578,-2.7666,-2.7659,-2.7569,-2.7587,-2.76,-2.7491,-2.7369,-2.7293,-2.7276,-2.731,-2.7215,-2.7184,-2.6965,-2.6499,-2.5892,-2.5488,-2.5088,-2.4768,-2.4455,-2.422,-2.4198,-2.4218,-2.4447,-2.4431,-2.4417,-2.4725,-2.4936,-2.5171,-2.5971,-2.6785,-2.7097,-2.7715,-2.8322,-2.8522,-2.8585,-2.8694,-2.8748,-2.8644,-2.8732,-2.9191,-2.9621,-2.9876,-3.0039,-3.0182,-3.0508,-3.0171,-1.8663,-1.969,-2.0401,-2.107,-2.1614,-2.2154,-2.2248,-2.2394,-2.2549,-2.2538,-2.2338,-2.2449,-2.247,-2.2525,-2.2721,-2.2876,-2.2944,-2.2893,-2.2825,-2.2746,-2.2615,-2.2415,-2.2297,-2.2012,-2.2153,-2.249,-2.2392,-2.259,-2.2824,-2.289,-2.3063,-2.3407,-2.3598,-2.3786,-2.4151,-2.4208,-2.4125,-2.4408,-2.4912,-2.5539,-2.6282,-2.6497,-2.7022,-2.7679,-2.8029,-2.8044,-2.8178,-2.8482,-2.8319,-2.7113,-2.6945,-2.6688,-2.6472,-2.6486,-2.6072,-2.5403,-2.5671,-2.5888,-2.5578,-2.537,-2.5471,-2.6262,-2.578,-2.5738,-2.6419,-2.6756,-2.7023,-2.7591,-2.7851,-2.7847,-2.776,-2.7689,-2.7719,-2.7818,-2.7818,-2.773,-2.7617,-2.7574,-2.7557,-2.7509,-2.7526,-2.7052,-2.6419,-2.588,-2.5588,-2.5124,-2.4643,-2.4067,-2.3927,-2.3973,-2.399,-2.4042,-2.3922,-2.3702,-2.4106,-2.4569,-2.4851,-2.533,-2.6285,-2.6895,-2.7565,-2.8109,-2.8439,-2.8544,-2.8081,-2.811,-2.8363,-2.8611,-2.886,-2.8979,-2.9022,-2.925,-2.9514,-2.9944,-2.9937,-1.8249,-1.9649,-2.0161,-2.1046,-2.1965,-2.1983,-2.2191,-2.2556,-2.2475,-2.2423,-2.2439,-2.2569,-2.2668,-2.2738,-2.2977,-2.3193,-2.3247,-2.3168,-2.304,-2.2909,-2.2701,-2.2833,-2.2912,-2.2738,-2.2764,-2.291,-2.2982,-2.3111,-2.33,-2.341,-2.3544,-2.3789,-2.4372,-2.4928,-2.4835,-2.4907,-2.5185,-2.5279,-2.5948,-2.6182,-2.6461,-2.7405,-2.7973,-2.8294,-2.8632,-2.8904,-2.8984,-2.9135,-2.9105,-2.8775,-2.8135,-2.7555,-2.7356,-2.7263,-2.6959,-2.6606,-2.6532,-2.6668,-2.6313,-2.5464,-2.5191,-2.6321,-2.5268,-2.4495,-2.5824,-2.6276,-2.6634,-2.7148,-2.7735,-2.8045,-2.8035,-2.7968,-2.7943,-2.802,-2.7974,-2.7964,-2.7989,-2.7904,-2.7806,-2.7719,-2.7701,-2.7601,-2.7208,-2.6103,-2.5631,-2.5232,-2.455,-2.3774,-2.3667,-2.3779,-2.3861,-2.395,-2.3961,-2.3833,-2.4024,-2.446,-2.4693,-2.4922,-2.5703,-2.6282,-2.6964,-2.7331,-2.7449,-2.7374,-2.7147,-2.7375,-2.7883,-2.7698,-2.7792,-2.7942,-2.8238,-2.8647,-2.9053,-2.9474,-2.9902,-1.7954,-1.8933,-1.9769,-2.0578,-2.1224,-2.1374,-2.1665,-2.2079,-2.2249,-2.2304,-2.2371,-2.2561,-2.2764,-2.285,-2.3126,-2.3336,-2.3453,-2.3394,-2.3265,-2.314,-2.301,-2.317,-2.3387,-2.3495,-2.3473,-2.333,-2.3341,-2.35,-2.3649,-2.3798,-2.3939,-2.4039,-2.4727,-2.4838,-2.4949,-2.5151,-2.5145,-2.5291,-2.6085,-2.6524,-2.6855,-2.7796,-2.8651,-2.8643,-2.8894,-2.9048,-2.9166,-2.9251,-2.9355,-2.9321,-2.9001,-2.8535,-2.8228,-2.8135,-2.7804,-2.7223,-2.7433,-2.7308,-2.6774,-2.592,-2.5511,-2.643,-2.5022,-2.5135,-2.5775,-2.6393,-2.7018,-2.7546,-2.8058,-2.8371,-2.8362,-2.8388,-2.8306,-2.7913,-2.7823,-2.7653,-2.737,-2.7646,-2.7996,-2.7922,-2.7933,-2.7685,-2.7144,-2.6508,-2.5762,-2.5394,-2.5106,-2.4334,-2.3804,-2.3898,-2.3928,-2.4026,-2.411,-2.4153,-2.4191,-2.4395,-2.4616,-2.4817,-2.5165,-2.5492,-2.5824,-2.6051,-2.6201,-2.6447,-2.6897,-2.7064,-2.7415,-2.7098,-2.7114,-2.7497,-2.7916,-2.8244,-2.8681,-2.9197,-2.9698,-1.7733,-1.8161,-1.9299,-1.9969,-2.0361,-2.0861,-2.1277,-2.1587,-2.2077,-2.2315,-2.2337,-2.2588,-2.2842,-2.3003,-2.3223,-2.3476,-2.362,-2.3653,-2.3566,-2.3419,-2.3486,-2.3617,-2.3746,-2.3945,-2.402,-2.3753,-2.3759,-2.3842,-2.3979,-2.4135,-2.4248,-2.432,-2.4493,-2.4722,-2.4711,-2.4938,-2.5223,-2.5399,-2.631,-2.7025,-2.7607,-2.8357,-2.8933,-2.913,-2.9129,-2.9166,-2.9293,-2.9395,-2.9474,-2.9569,-2.9589,-2.9411,-2.9156,-2.8874,-2.8337,-2.7256,-2.7627,-2.7592,-2.7051,-2.6236,-2.5721,-2.6182,-2.5416,-2.5403,-2.6154,-2.6904,-2.7579,-2.8121,-2.851,-2.8478,-2.8555,-2.8403,-2.8058,-2.7556,-2.7326,-2.691,-2.6549,-2.7181,-2.7576,-2.7869,-2.787,-2.7709,-2.76,-2.7202,-2.6321,-2.5565,-2.5336,-2.4967,-2.4405,-2.4079,-2.4174,-2.4247,-2.4353,-2.4392,-2.4428,-2.4497,-2.469,-2.4776,-2.4948,-2.5039,-2.513,-2.5352,-2.5796,-2.6556,-2.6956,-2.7047,-2.7229,-2.7388,-2.7418,-2.7466,-2.7837,-2.8441,-2.8782,-2.9014,-2.9518,-1.7652,-1.8302,-1.9011,-1.9854,-2.0679,-2.1103,-2.1462,-2.1911,-2.222,-2.246,-2.2535,-2.2747,-2.2977,-2.3223,-2.3435,-2.3667,-2.3901,-2.4004,-2.3987,-2.3873,-2.3949,-2.4044,-2.4208,-2.428,-2.4352,-2.4424,-2.4355,-2.4338,-2.4338,-2.4497,-2.4526,-2.4604,-2.4666,-2.4741,-2.5106,-2.553,-2.5869,-2.6085,-2.72,-2.8118,-2.8369,-2.9058,-2.9471,-2.957,-2.9455,-2.9494,-2.9645,-2.9753,-2.9823,-2.9827,-2.9736,-2.9607,-2.9386,-2.9112,-2.8466,-2.7798,-2.7597,-2.7651,-2.7242,-2.6013,-2.5728,-2.5909,-2.5611,-2.5516,-2.6272,-2.7037,-2.7802,-2.8207,-2.8499,-2.8452,-2.7894,-2.7885,-2.7456,-2.6881,-2.6607,-2.6453,-2.6366,-2.6486,-2.6856,-2.7144,-2.7441,-2.7713,-2.7604,-2.7533,-2.7086,-2.6362,-2.5983,-2.5522,-2.4918,-2.4634,-2.4567,-2.4613,-2.4678,-2.4673,-2.4666,-2.4711,-2.481,-2.4836,-2.4932,-2.501,-2.5076,-2.5101,-2.552,-2.641,-2.6727,-2.6683,-2.6975,-2.7313,-2.7452,-2.7292,-2.7955,-2.8676,-2.884,-2.8991,-2.9644,-1.7944,-1.8703,-1.9546,-2.0192,-2.0695,-2.1198,-2.1493,-2.1735,-2.2135,-2.2415,-2.2571,-2.2799,-2.307,-2.336,-2.3553,-2.3862,-2.421,-2.4403,-2.4433,-2.4412,-2.4476,-2.4523,-2.4647,-2.464,-2.4674,-2.4712,-2.4704,-2.461,-2.451,-2.467,-2.4764,-2.4804,-2.4855,-2.5139,-2.5634,-2.6084,-2.6374,-2.6768,-2.7924,-2.8643,-2.8433,-2.933,-2.9794,-2.9751,-2.9697,-2.9732,-2.9836,-2.9891,-2.9907,-2.991,-2.9806,-2.9701,-2.9531,-2.9312,-2.8931,-2.8384,-2.8158,-2.7981,-2.7614,-2.649,-2.5996,-2.5956,-2.5832,-2.606,-2.6662,-2.7437,-2.8076,-2.813,-2.8187,-2.8051,-2.7468,-2.7355,-2.6968,-2.6393,-2.6111,-2.589,-2.5578,-2.5429,-2.5809,-2.6337,-2.6728,-2.7086,-2.7442,-2.744,-2.7529,-2.7214,-2.6669,-2.6048,-2.5381,-2.5077,-2.4864,-2.4877,-2.4904,-2.4888,-2.487,-2.4912,-2.5105,-2.5118,-2.5152,-2.5208,-2.5241,-2.5365,-2.5764,-2.6458,-2.6516,-2.6283,-2.6147,-2.631,-2.6678,-2.7161,-2.7536,-2.7999,-2.8521,-2.9023,-2.9631,-1.8456,-1.9169,-2.0127,-2.06,-2.0794,-2.1339,-2.1631,-2.1708,-2.2231,-2.2527,-2.2634,-2.2925,-2.3253,-2.3576,-2.3864,-2.4192,-2.4617,-2.4752,-2.4826,-2.4892,-2.4968,-2.5005,-2.5005,-2.5012,-2.505,-2.4994,-2.4955,-2.4808,-2.4666,-2.4771,-2.4907,-2.4968,-2.508,-2.5428,-2.5979,-2.6598,-2.6697,-2.7322,-2.8349,-2.876,-2.8651,-2.9303,-2.9962,-2.9817,-2.9782,-2.9864,-3.0003,-3.003,-3.0053,-3.0057,-2.9959,-2.9805,-2.9681,-2.9551,-2.9414,-2.9249,-2.899,-2.8556,-2.803,-2.6949,-2.6059,-2.5838,-2.6227,-2.6407,-2.6744,-2.7416,-2.8338,-2.7966,-2.7742,-2.751,-2.7005,-2.6887,-2.6474,-2.5914,-2.5618,-2.5435,-2.4947,-2.4781,-2.503,-2.5522,-2.6024,-2.6562,-2.699,-2.7308,-2.7394,-2.7038,-2.6492,-2.6189,-2.5583,-2.5271,-2.508,-2.5084,-2.5084,-2.508,-2.5068,-2.508,-2.5352,-2.565,-2.5726,-2.581,-2.5765,-2.5754,-2.6163,-2.6351,-2.5994,-2.573,-2.5511,-2.582,-2.6848,-2.7395,-2.7185,-2.7445,-2.8216,-2.8853,-2.9433,-1.917,-1.9737,-2.0227,-2.0764,-2.1339,-2.1777,-2.2073,-2.2276,-2.2704,-2.2915,-2.3021,-2.3351,-2.3678,-2.4043,-2.4514,-2.479,-2.4956,-2.5077,-2.5165,-2.5205,-2.5234,-2.5284,-2.5313,-2.5284,-2.5243,-2.5201,-2.5201,-2.5091,-2.491,-2.4915,-2.5051,-2.5187,-2.5225,-2.5416,-2.6073,-2.7046,-2.7797,-2.8086,-2.9297,-2.9902,-2.9742,-2.9961,-3.008,-3.009,-3.0104,-3.0169,-3.0253,-3.0254,-3.0253,-3.0289,-3.0147,-3.0015,-2.9934,-2.9836,-2.9786,-2.9456,-2.8896,-2.8165,-2.7954,-2.6983,-2.5981,-2.5791,-2.5959,-2.5948,-2.6468,-2.7184,-2.8022,-2.8104,-2.7606,-2.6958,-2.6393,-2.6231,-2.5788,-2.5442,-2.5177,-2.5092,-2.4738,-2.4742,-2.4913,-2.4964,-2.5559,-2.6169,-2.6695,-2.6981,-2.7184,-2.6768,-2.6397,-2.6098,-2.5819,-2.5493,-2.5253,-2.5254,-2.5235,-2.5224,-2.5243,-2.5264,-2.5426,-2.5908,-2.6015,-2.612,-2.5992,-2.5832,-2.5931,-2.599,-2.5622,-2.581,-2.6204,-2.6754,-2.7511,-2.764,-2.744,-2.7672,-2.8106,-2.8676,-2.9149,-2.0846,-2.0847,-2.1299,-2.1687,-2.2068,-2.2539,-2.278,-2.2933,-2.3218,-2.3446,-2.3538,-2.3794,-2.4172,-2.4554,-2.4873,-2.5031,-2.5168,-2.5301,-2.5363,-2.5398,-2.5418,-2.5398,-2.5376,-2.535,-2.5293,-2.5303,-2.5262,-2.5201,-2.5122,-2.5187,-2.5337,-2.5746,-2.5568,-2.5928,-2.6466,-2.7516,-2.7926,-2.8349,-2.9156,-2.9911,-3.0213,-3.0337,-3.0359,-3.0317,-3.0352,-3.0409,-3.0432,-3.0432,-3.0375,-3.0343,-3.0215,-3.0152,-3.0109,-3.0045,-3.0045,-3.0028,-2.9118,-2.8364,-2.7803,-2.7131,-2.6359,-2.5687,-2.5767,-2.6207,-2.6652,-2.7345,-2.7586,-2.7029,-2.6808,-2.6309,-2.5806,-2.5596,-2.5411,-2.5156,-2.5046,-2.5022,-2.501,-2.5015,-2.5053,-2.5037,-2.5076,-2.5703,-2.6246,-2.651,-2.6708,-2.6572,-2.6392,-2.6311,-2.6025,-2.5753,-2.555,-2.5404,-2.5385,-2.5357,-2.5376,-2.5404,-2.5397,-2.5686,-2.5685,-2.5785,-2.5848,-2.5827,-2.5958,-2.5901,-2.5703,-2.6087,-2.6805,-2.6812,-2.6729,-2.7181,-2.7712,-2.7648,-2.7604,-2.8145,-2.8676,-2.2488,-2.2214,-2.2453,-2.2599,-2.2735,-2.328,-2.341,-2.3419,-2.3728,-2.3928,-2.4063,-2.4309,-2.4648,-2.4929,-2.5075,-2.5206,-2.534,-2.5415,-2.548,-2.5505,-2.5531,-2.5505,-2.5456,-2.5398,-2.5365,-2.5351,-2.536,-2.5303,-2.5303,-2.5409,-2.5705,-2.6404,-2.5697,-2.6167,-2.7235,-2.7904,-2.8209,-2.9019,-2.9555,-3.0078,-3.0375,-3.0303,-3.0361,-3.0391,-3.0393,-3.0365,-3.0516,-3.0528,-3.0462,-3.0423,-3.0348,-3.0328,-3.0273,-3.0286,-3.0267,-3.0208,-2.9621,-2.9015,-2.8357,-2.7637,-2.6784,-2.6073,-2.5791,-2.6443,-2.6783,-2.7598,-2.7686,-2.6493,-2.613,-2.5795,-2.5414,-2.5282,-2.5283,-2.5284,-2.5245,-2.5255,-2.5235,-2.5206,-2.5166,-2.5133,-2.5141,-2.5233,-2.5672,-2.5943,-2.6128,-2.6217,-2.6285,-2.639,-2.6221,-2.596,-2.582,-2.5653,-2.5541,-2.5507,-2.5499,-2.5526,-2.553,-2.5642,-2.5638,-2.5795,-2.6062,-2.6061,-2.6076,-2.5955,-2.5769,-2.586,-2.6256,-2.6009,-2.5835,-2.6428,-2.6895,-2.6856,-2.6993,-2.755,-2.8103,-2.3814,-2.3798,-2.3382,-2.3231,-2.328,-2.3735,-2.3792,-2.3645,-2.4118,-2.4349,-2.4444,-2.4782,-2.5049,-2.5209,-2.5307,-2.5386,-2.5495,-2.5571,-2.558,-2.5595,-2.564,-2.5615,-2.5576,-2.5543,-2.5525,-2.5483,-2.5483,-2.5461,-2.544,-2.5448,-2.5953,-2.6437,-2.5832,-2.6156,-2.7057,-2.8087,-2.8994,-2.9803,-3.0374,-3.0411,-3.0331,-3.0081,-2.9926,-3.0288,-2.9935,-2.9768,-3.0607,-3.0634,-3.061,-3.0607,-3.0528,-3.0482,-3.046,-3.0441,-3.0422,-3.0342,-3.0316,-2.9764,-2.9162,-2.833,-2.7297,-2.6625,-2.6526,-2.6768,-2.6631,-2.6899,-2.6803,-2.6381,-2.5866,-2.5582,-2.5416,-2.5393,-2.5374,-2.539,-2.5398,-2.541,-2.5385,-2.5348,-2.5302,-2.5226,-2.5293,-2.5432,-2.5526,-2.589,-2.5804,-2.5886,-2.6227,-2.6347,-2.6333,-2.6133,-2.6042,-2.5912,-2.5758,-2.5661,-2.5594,-2.5607,-2.5631,-2.5958,-2.6176,-2.6387,-2.6666,-2.6563,-2.6325,-2.608,-2.5908,-2.5802,-2.5693,-2.5728,-2.5783,-2.5935,-2.6108,-2.6281,-2.6493,-2.6944,-2.7444,-2.4317,-2.4353,-2.4209,-2.4025,-2.3885,-2.4136,-2.4192,-2.4136,-2.4301,-2.4595,-2.4841,-2.5105,-2.5311,-2.5422,-2.5493,-2.5561,-2.5613,-2.5645,-2.5619,-2.5625,-2.5656,-2.5671,-2.5619,-2.5593,-2.5598,-2.5576,-2.559,-2.5601,-2.5541,-2.555,-2.6098,-2.6304,-2.5899,-2.6966,-2.7842,-2.8611,-2.9585,-3.0341,-3.0747,-3.0732,-3.0533,-2.9963,-2.9865,-3.0567,-2.9877,-2.9937,-3.0583,-3.0691,-3.0697,-3.0651,-3.0564,-3.0532,-3.0557,-3.0537,-3.053,-3.0511,-3.0559,-3.0347,-2.9988,-2.9186,-2.8336,-2.773,-2.7794,-2.7791,-2.683,-2.7208,-2.6824,-2.6265,-2.5771,-2.5704,-2.5476,-2.5464,-2.5471,-2.5492,-2.5518,-2.5531,-2.5511,-2.5452,-2.5446,-2.5394,-2.557,-2.576,-2.5829,-2.5929,-2.5736,-2.5587,-2.5958,-2.6327,-2.6465,-2.6564,-2.6573,-2.651,-2.6384,-2.6223,-2.6162,-2.5971,-2.5763,-2.6104,-2.6533,-2.6607,-2.6676,-2.6852,-2.6623,-2.6337,-2.6003,-2.5797,-2.5703,-2.5703,-2.5742,-2.5838,-2.5893,-2.5947,-2.6179,-2.6435,-2.6773,-2.4864,-2.4879,-2.5039,-2.4842,-2.4476,-2.4493,-2.4513,-2.4479,-2.4545,-2.4776,-2.5205,-2.5309,-2.5446,-2.5571,-2.5605,-2.5636,-2.5664,-2.5664,-2.564,-2.564,-2.5643,-2.5644,-2.5604,-2.5566,-2.5566,-2.5583,-2.5573,-2.5545,-2.5541,-2.5586,-2.6131,-2.6378,-2.6162,-2.7004,-2.8378,-2.9396,-2.9955,-3.0587,-3.0827,-3.0818,-3.072,-3.0038,-2.9936,-3.0524,-2.9949,-2.9753,-3.015,-3.0233,-3.0257,-3.0237,-3.0238,-3.0353,-3.0494,-3.0614,-3.0579,-3.0576,-3.0588,-3.0578,-3.0369,-2.9784,-2.9108,-2.8554,-2.8758,-2.8335,-2.7774,-2.7871,-2.781,-2.6784,-2.6403,-2.6184,-2.6042,-2.6028,-2.5776,-2.5749,-2.5589,-2.5564,-2.5579,-2.5546,-2.5552,-2.5565,-2.573,-2.5798,-2.6035,-2.614,-2.6408,-2.608,-2.5879,-2.6516,-2.728,-2.7365,-2.7404,-2.73,-2.7172,-2.6989,-2.6829,-2.6295,-2.5799,-2.5742,-2.6108,-2.6255,-2.6374,-2.6601,-2.6601,-2.6147,-2.5859,-2.5742,-2.568,-2.5675,-2.5676,-2.5699,-2.5762,-2.5818,-2.5857,-2.6073,-2.6055,-2.5578,-2.5466,-2.5887,-2.5671,-2.5057,-2.4828,-2.4749,-2.4692,-2.4808,-2.5024,-2.534,-2.5425,-2.5523,-2.5589,-2.5607,-2.56,-2.5648,-2.5619,-2.5579,-2.5554,-2.558,-2.5576,-2.5551,-2.5515,-2.5492,-2.5481,-2.5483,-2.5505,-2.5506,-2.5543,-2.6086,-2.6421,-2.6208,-2.652,-2.8184,-2.9152,-2.9999,-3.0683,-3.0774,-3.0897,-3.0702,-3.0051,-3.0095,-3.041,-2.9996,-2.9693,-2.9977,-2.9826,-2.9858,-3.0005,-2.9951,-3.0178,-3.0613,-3.0672,-3.0658,-3.0599,-3.0665,-3.0676,-3.0633,-2.9809,-2.9472,-2.9394,-2.9594,-2.9047,-2.8523,-2.8656,-2.8819,-2.7593,-2.7707,-2.7483,-2.7196,-2.6831,-2.6437,-2.6242,-2.615,-2.5965,-2.6034,-2.5909,-2.5983,-2.5707,-2.5615,-2.5677,-2.6035,-2.6386,-2.6933,-2.6777,-2.6152,-2.664,-2.7829,-2.8431,-2.8585,-2.8428,-2.8283,-2.7669,-2.7318,-2.6388,-2.5885,-2.5754,-2.578,-2.6015,-2.615,-2.6307,-2.6189,-2.5913,-2.5767,-2.5671,-2.5645,-2.5636,-2.5977,-2.6281,-2.5796,-2.5722,-2.5722,-2.5742,-2.5797,-2.5671,-2.6491,-2.6928,-2.6754,-2.6097,-2.5132,-2.4733,-2.4719,-2.4923,-2.5122,-2.5281,-2.5453,-2.5598,-2.564,-2.5565,-2.5538,-2.5547,-2.5505,-2.5447,-2.5413,-2.5434,-2.5425,-2.5413,-2.5388,-2.5367,-2.5383,-2.5408,-2.542,-2.5449,-2.5492,-2.5648,-2.5912,-2.625,-2.6776,-2.7622,-2.8609,-2.9745,-3.0018,-3.0467,-3.0892,-3.0769,-3.0094,-2.9932,-3.0706,-2.9995,-2.9805,-3.0077,-2.9722,-2.9591,-2.9939,-2.9962,-3.0195,-3.0586,-3.0675,-3.0691,-3.0665,-3.0711,-3.0761,-3.075,-3.0403,-3.0351,-3.0286,-3.0172,-2.9803,-2.9272,-2.9253,-2.8957,-2.8552,-2.8462,-2.8174,-2.7835,-2.7771,-2.756,-2.7566,-2.7429,-2.7071,-2.6944,-2.6691,-2.6519,-2.5957,-2.5662,-2.6205,-2.6622,-2.729,-2.7837,-2.8367,-2.798,-2.804,-2.9,-2.9726,-3.0098,-2.9844,-2.9531,-2.8668,-2.7847,-2.6815,-2.625,-2.6168,-2.6035,-2.5999,-2.6096,-2.6266,-2.6263,-2.6259,-2.594,-2.5629,-2.5814,-2.6072,-2.6739,-2.6937,-2.649,-2.6042,-2.5968,-2.587,-2.5732,-2.5668,-2.7392,-2.7225,-2.6942,-2.6475,-2.5585,-2.5077,-2.4884,-2.5012,-2.5166,-2.534,-2.5511,-2.5593,-2.5585,-2.5515,-2.5414,-2.5394,-2.5318,-2.5283,-2.5258,-2.5284,-2.5264,-2.5235,-2.5196,-2.5166,-2.5205,-2.5236,-2.5269,-2.5287,-2.5363,-2.5466,-2.568,-2.6094,-2.6215,-2.6977,-2.8142,-2.9326,-2.9452,-2.9762,-3.0325,-3.0183,-2.9955,-2.9931,-3.0412,-3.0356,-3.0099,-3.0027,-2.9743,-2.9355,-2.982,-2.9964,-3.0056,-3.0252,-3.0599,-3.0661,-3.0734,-3.0745,-3.0789,-3.0762,-3.0755,-3.0664,-3.0696,-3.079,-3.0525,-3.0083,-3.0039,-2.9803,-2.9433,-2.9084,-2.8884,-2.8762,-2.8732,-2.858,-2.8584,-2.8239,-2.787,-2.7695,-2.7461,-2.7299,-2.6659,-2.649,-2.6961,-2.748,-2.8193,-2.8886,-2.9439,-2.9893,-2.9955,-2.9896,-3.0296,-3.0771,-3.0595,-3.0208,-2.9334,-2.8261,-2.7144,-2.6722,-2.6598,-2.6591,-2.6617,-2.6518,-2.6763,-2.6684,-2.6512,-2.6015,-2.577,-2.6126,-2.6553,-2.7155,-2.7426,-2.7269,-2.6833,-2.639,-2.63,-2.6303,-2.5579,-2.7951,-2.6903,-2.6348,-2.6217,-2.6022,-2.5677,-2.5157,-2.5232,-2.5427,-2.5648,-2.5859,-2.5858,-2.5539,-2.5488,-2.5368,-2.519,-2.5107,-2.5077,-2.5069,-2.5061,-2.5049,-2.5012,-2.4962,-2.4962,-2.4981,-2.5041,-2.5091,-2.5094,-2.5178,-2.5254,-2.5321,-2.5542,-2.5662,-2.6423,-2.7517,-2.8476,-2.8509,-2.9184,-2.9558,-2.9441,-2.9547,-2.9727,-3.0044,-3.0063,-2.9884,-2.9586,-2.9013,-2.8764,-2.8768,-2.8672,-2.9057,-2.9584,-3.0369,-3.0613,-3.0735,-3.0767,-3.0791,-3.0784,-3.079,-3.0795,-3.0796,-3.0797,-3.0771,-3.0704,-3.0565,-3.0398,-3.0407,-3.0292,-3.0015,-2.9796,-2.9565,-2.9352,-2.9082,-2.8729,-2.8511,-2.841,-2.8262,-2.8181,-2.7944,-2.7809,-2.8131,-2.8661,-2.9333,-2.9487,-3.0045,-3.0404,-3.0416,-3.0322,-3.0033,-3.045,-3.0742,-3.0323,-2.9789,-2.8813,-2.8018,-2.7505,-2.7493,-2.7718,-2.7766,-2.7565,-2.7226,-2.7104,-2.6786,-2.6062,-2.6081,-2.7028,-2.7396,-2.7528,-2.775,-2.8275,-2.7974,-2.7639,-2.7546,-2.7615,-2.4239,-2.7105,-2.71,-2.6731,-2.6175,-2.5683,-2.6019,-2.6932,-2.7104,-2.7214,-2.7226,-2.7377,-2.6782,-2.6217,-2.6116,-2.5587,-2.5145,-2.4855,-2.4785,-2.4785,-2.4799,-2.4775,-2.4764,-2.4749,-2.4764,-2.4808,-2.4861,-2.4891,-2.4956,-2.5015,-2.5124,-2.5215,-2.5351,-2.5332,-2.585,-2.6749,-2.7115,-2.764,-2.8563,-2.8739,-2.8827,-2.8971,-2.9149,-2.9149,-2.9135,-2.9085,-2.9152,-2.8661,-2.8728,-2.9652,-2.9336,-2.9563,-3.0311,-3.0648,-3.0777,-3.0779,-3.0781,-3.0801,-3.0801,-3.0799,-3.0796,-3.0795,-3.0793,-3.0793,-3.0799,-3.08,-3.082,-3.0879,-3.0896,-3.0527,-3.0351,-3.0194,-3.0057,-2.9859,-2.9576,-2.9467,-2.9318,-2.9136,-2.9026,-2.8739,-2.8646,-2.8893,-2.9502,-2.9624,-2.982,-3.0442,-3.0774,-3.0765,-3.0682,-3.0375,-3.0288,-3.0599,-3.063,-3.0164,-3.0087,-2.9449,-2.886,-2.8463,-2.8844,-2.8856,-2.8255,-2.7918,-2.7605,-2.7261,-2.6831,-2.7434,-2.8481,-2.8567,-2.8285,-2.9253,-2.9782,-2.9329,-2.8935,-2.8773,-2.866,-2.2416,-2.5078,-2.5572,-2.5855,-2.6063,-2.5818,-2.6496,-2.7551,-2.7596,-2.7656,-2.7975,-2.7639,-2.7161,-2.6379,-2.5872,-2.5259,-2.4545,-2.4591,-2.4545,-2.4474,-2.4526,-2.4528,-2.453,-2.4513,-2.4513,-2.4564,-2.4613,-2.4623,-2.4697,-2.4795,-2.4904,-2.4968,-2.5246,-2.5535,-2.5868,-2.6285,-2.6505,-2.6966,-2.7493,-2.7822,-2.799,-2.8113,-2.8022,-2.8099,-2.7976,-2.8378,-2.8778,-2.8329,-2.8938,-2.9776,-2.9306,-2.968,-3.0279,-3.0464,-3.0739,-3.074,-3.0723,-3.074,-3.0755,-3.0746,-3.0758,-3.0758,-3.0778,-3.0785,-3.0816,-3.0829,-3.0832,-3.0871,-3.0866,-3.0825,-3.0801,-3.078,-3.076,-3.074,-3.0602,-3.0477,-3.0278,-3.0039,-2.9737,-2.9371,-2.9385,-2.9594,-2.9788,-2.9872,-3.0072,-3.0536,-3.0774,-3.0739,-3.0728,-3.0611,-3.049,-3.0626,-3.073,-3.0638,-3.0626,-3.0714,-3.0435,-3.0167,-3.0525,-3.03,-2.931,-2.8617,-2.836,-2.8094,-2.7826,-2.8473,-2.9081,-2.9149,-2.9159,-3.0037,-3.052,-3.0065,-2.9707,-2.9706,-2.9635,-2.0335,-2.2703,-2.2939,-2.4145,-2.5697,-2.5851,-2.6536,-2.7479,-2.7055,-2.7365,-2.8006,-2.7263,-2.6786,-2.6397,-2.5639,-2.4794,-2.4319,-2.4266,-2.4284,-2.4173,-2.432,-2.4338,-2.4284,-2.4284,-2.4303,-2.4266,-2.4247,-2.4338,-2.432,-2.4424,-2.4556,-2.4629,-2.5461,-2.5863,-2.5958,-2.6266,-2.6502,-2.6715,-2.6702,-2.6738,-2.6657,-2.6734,-2.7005,-2.752,-2.764,-2.778,-2.7938,-2.8018,-2.8173,-2.8549,-2.8946,-2.946,-2.9932,-3.0258,-3.0584,-3.0667,-3.0638,-3.0653,-3.0667,-3.0675,-3.0675,-3.07,-3.0735,-3.0735,-3.075,-3.0833,-3.0862,-3.0823,-3.0819,-3.083,-3.0804,-3.0794,-3.079,-3.0763,-3.0658,-3.0623,-3.0539,-3.0403,-3.0286,-3.0028,-3.0061,-3.023,-3.0281,-3.0378,-3.0314,-3.0675,-3.0767,-3.071,-3.0704,-3.0698,-3.0678,-3.0661,-3.0697,-3.0852,-3.1176,-3.1351,-3.1835,-3.1952,-3.1924,-3.1579,-3.0498,-2.9743,-2.91,-2.8956,-2.8868,-2.8907,-2.9264,-2.9447,-2.9706,-3.0081,-3.0439,-3.0439,-3.0366,-3.0285,-3.0285,-1.8524,-2.0647,-2.1211,-2.2561,-2.4161,-2.3805,-2.5141,-2.7326,-2.6766,-2.7477,-2.867,-2.8001,-2.7234,-2.6635,-2.5571,-2.4654,-2.3998,-2.3917,-2.3958,-2.3978,-2.4096,-2.4097,-2.4075,-2.4095,-2.4133,-2.4115,-2.4097,-2.402,-2.3983,-2.4079,-2.4211,-2.4375,-2.5241,-2.5833,-2.6078,-2.6401,-2.6739,-2.682,-2.6216,-2.5914,-2.5748,-2.616,-2.6593,-2.6275,-2.6053,-2.6502,-2.6753,-2.7115,-2.7977,-2.8877,-2.9168,-2.9667,-3.0231,-3.0424,-3.0524,-3.0548,-3.049,-3.0529,-3.0583,-3.0576,-3.0548,-3.0576,-3.0591,-3.0625,-3.0691,-3.081,-3.0855,-3.0813,-3.0788,-3.0798,-3.0782,-3.0784,-3.0784,-3.0722,-3.0665,-3.0704,-3.0724,-3.073,-3.0736,-3.0716,-3.0716,-3.0716,-3.0748,-3.0742,-3.0716,-3.0704,-3.0717,-3.0704,-3.0697,-3.0697,-3.0697,-3.0683,-3.0691,-3.0891,-3.1344,-3.1705,-3.2036,-3.2138,-3.1982,-3.1748,-3.1463,-3.0569,-2.9697,-2.9918,-2.9985,-2.98,-2.9751,-3.0029,-3.0287,-3.0371,-3.0359,-3.034,-3.0371,-3.0314,-3.0443,-1.604,-1.6979,-1.8584,-2.0505,-2.2289,-2.2864,-2.4114,-2.5668,-2.6473,-2.743,-2.829,-2.7604,-2.6948,-2.6386,-2.5299,-2.4374,-2.3598,-2.3576,-2.3576,-2.362,-2.375,-2.3774,-2.3813,-2.3852,-2.3852,-2.3837,-2.3735,-2.3653,-2.3574,-2.3656,-2.3759,-2.4028,-2.4915,-2.5846,-2.6133,-2.6702,-2.7184,-2.7187,-2.619,-2.5568,-2.5281,-2.5584,-2.5723,-2.5203,-2.5286,-2.5599,-2.5899,-2.6397,-2.7434,-2.8651,-2.9281,-2.9708,-3.0078,-3.0155,-3.0194,-3.0194,-3.0225,-3.0298,-3.0402,-3.0452,-3.0423,-3.0433,-3.049,-3.0543,-3.0576,-3.0695,-3.0802,-3.0782,-3.0794,-3.0786,-3.075,-3.0748,-3.0711,-3.0664,-3.063,-3.0642,-3.0676,-3.071,-3.0704,-3.0717,-3.0698,-3.0704,-3.073,-3.073,-3.0704,-3.0698,-3.0704,-3.0697,-3.069,-3.0688,-3.0695,-3.0683,-3.0672,-3.1022,-3.1559,-3.18,-3.1991,-3.203,-3.2005,-3.1523,-3.1091,-3.0681,-3.0314,-3.0251,-3.0251,-3.0251,-3.0297,-3.0355,-3.0355,-3.0343,-3.0299,-3.0267,-3.0286,-3.0318,-3.0371,-1.3885,-1.3685,-1.5892,-1.8313,-2.0527,-2.1963,-2.2979,-2.3827,-2.556,-2.6574,-2.6816,-2.6363,-2.5901,-2.5386,-2.4393,-2.3652,-2.323,-2.3253,-2.3223,-2.3271,-2.333,-2.3445,-2.3491,-2.3468,-2.3422,-2.3359,-2.3248,-2.3111,-2.3021,-2.3135,-2.336,-2.3638,-2.473,-2.5991,-2.6327,-2.6977,-2.7562,-2.724,-2.6526,-2.5706,-2.5356,-2.5073,-2.4969,-2.4934,-2.4968,-2.5043,-2.539,-2.5857,-2.6745,-2.7788,-2.8912,-2.9513,-2.9787,-2.9817,-2.9848,-2.9882,-2.9984,-3.0089,-3.0222,-3.0304,-3.0273,-3.029,-3.0404,-3.0462,-3.0481,-3.0568,-3.0678,-3.0734,-3.075,-3.076,-3.0716,-3.0678,-3.0642,-3.0629,-3.0613,-3.0613,-3.0649,-3.0692,-3.0688,-3.0683,-3.0697,-3.0685,-3.0685,-3.0704,-3.0685,-3.0697,-3.0678,-3.0678,-3.0671,-3.0661,-3.0645,-3.0629,-3.061,-3.1075,-3.154,-3.1814,-3.1884,-3.1941,-3.1841,-3.1274,-3.0777,-3.0467,-3.026,-3.0196,-3.0215,-3.0247,-3.026,-3.0266,-3.0266,-3.0292,-3.0266,-3.0234,-3.0221,-3.024,-3.0226,-1.4142,-1.5314,-1.5159,-1.6654,-1.9021,-1.8746,-1.9906,-2.2255,-2.2504,-2.3158,-2.4413,-2.4966,-2.5095,-2.5543,-2.3902,-2.307,-2.296,-2.2935,-2.3003,-2.3035,-2.2993,-2.3157,-2.3188,-2.3007,-2.2857,-2.2755,-2.266,-2.2634,-2.2512,-2.2695,-2.2867,-2.3003,-2.4628,-2.5596,-2.5877,-2.6756,-2.7745,-2.7379,-2.6918,-2.6188,-2.5637,-2.5226,-2.4671,-2.4648,-2.4752,-2.4842,-2.4985,-2.505,-2.5723,-2.6705,-2.7998,-2.8929,-2.9326,-2.9476,-2.955,-2.9658,-2.975,-2.9899,-3.0026,-3.0099,-3.0114,-3.0147,-3.0228,-3.0273,-3.0302,-3.0392,-3.0482,-3.0571,-3.061,-3.0691,-3.0665,-3.063,-3.0599,-3.0585,-3.0558,-3.0586,-3.0615,-3.0632,-3.0649,-3.0645,-3.0653,-3.0661,-3.0668,-3.0661,-3.0634,-3.0634,-3.0626,-3.0626,-3.0634,-3.061,-3.0613,-3.0586,-3.0559,-3.0586,-3.0826,-3.1465,-3.1673,-3.1764,-3.169,-3.1099,-3.0664,-3.0388,-3.0215,-3.0133,-3.0085,-3.0104,-3.0118,-3.0152,-3.0207,-3.024,-3.0213,-3.0218,-3.0185,-3.0157,-3.0157]}]]